GFSMA_con_mucape_000.txt.gz
CAPE
115 129 128 118 111 37 12 2 0 0 0 0 0 0 0 0 0 0 0 0 0 0 2 8 34 55 168 191 139 193 189 148 153 342 273 220 219 220 234 258 277 364 302
94 99 35 77 34 0 0 0 0 0 0 0 0 0 0 0 0 0 0 0 0 0 0 0 0 13 56 49 61 159 167 165 179 159 161 145 158 189 208 287 277 288 339
121 29 66 4 0 0 0 0 0 0 0 0 0 0 0 0 0 0 0 0 0 0 0 0 0 0 0 0 0 0 43 54 36 40 48 97 123 154 193 184 189 264 313
1 0 0 0 0 0 0 0 0 0 0 0 0 0 0 0 0 0 0 0 0 0 0 0 0 0 0 0 0 0 0 0 0 4 19 89 96 124 126 153 193 201 212
0 0 0 0 0 0 0 0 0 0 0 0 0 0 0 0 0 0 0 0 0 0 0 0 0 0 0 0 0 0 0 0 0 0 0 0 0 0 9 29 124 148 103
0 0 0 0 0 0 0 0 0 0 0 0 0 0 0 0 0 0 0 0 0 0 0 0 0 0 0 0 0 0 0 0 0 0 0 2 7 12 12 15 20 31 56
0 0 0 0 0 0 0 0 0 0 0 0 0 0 0 0 0 0 0 0 0 0 0 0 0 0 0 0 0 0 0 0 0 0 0 2 5 14 15 16 23 25 43
0 0 0 0 0 0 0 0 0 0 0 0 0 0 0 0 0 0 0 0 0 0 0 0 0 0 0 0 0 0 0 0 0 0 3 8 18 27 26 36 50 45 79
0 0 0 0 0 0 0 0 0 0 0 0 0 0 0 0 0 0 0 0 0 0 0 0 0 0 0 0 0 0 0 0 0 0 6 14 25 38 60 62 57 52 62
0 0 0 0 0 0 0 0 0 0 0 0 0 0 0 0 0 0 0 0 0 0 0 0 0 0 0 0 0 0 0 0 0 3 20 32 44 60 72 76 91 96 79
0 0 0 0 0 0 0 0 0 0 0 0 0 0 0 0 0 0 0 0 0 0 0 0 0 0 0 0 0 0 0 0 1 8 33 48 62 94 120 102 107 93 112
0 0 0 0 0 0 0 0 0 0 0 0 0 0 0 0 0 0 0 0 0 0 0 0 0 0 0 0 0 0 0 0 0 0 33 47 57 65 76 89 102 106 112
0 0 0 0 0 0 0 0 0 0 0 0 0 0 0 0 0 0 0 0 0 0 0 0 0 0 0 0 0 0 0 0 0 0 30 48 50 54 67 83 101 118 142
0 0 0 0 0 0 0 0 0 0 0 0 0 0 0 0 0 0 0 0 0 0 0 0 0 0 0 0 0 0 0 0 0 0 41 49 47 47 61 78 95 139 136
0 0 0 0 0 0 0 0 0 0 0 0 0 0 0 0 0 0 0 0 0 0 0 0 0 0 0 0 0 0 0 0 0 0 46 53 56 70 77 90 105 112 111
0 0 0 0 0 0 0 0 0 0 0 0 0 0 0 0 0 0 0 0 0 0 0 0 0 0 0 0 0 0 0 0 0 12 56 55 51 68 90 89 94 111 99
0 0 0 0 0 0 0 0 0 0 0 0 0 0 0 0 0 0 0 0 0 0 0 0 0 0 0 0 0 0 0 0 0 39 54 61 71 82 95 83 70 77 89
0 0 0 0 0 0 0 0 0 0 0 0 0 0 0 0 0 0 0 0 0 0 0 0 0 0 0 0 0 0 0 0 0 0 2 73 70 61 59 63 67 78 96
0 0 0 0 0 0 0 0 0 0 0 0 0 0 0 0 0 0 0 0 0 0 0 0 0 0 0 0 0 0 0 0 0 0 0 0 0 43 70 71 95 40 2
0 0 0 0 0 0 0 0 0 0 0 0 0 0 0 0 0 0 0 0 0 0 0 0 0 0 0 0 0 0 0 0 0 0 0 0 0 0 35 21 10 0 0
0 0 0 0 0 0 0 0 0 0 0 0 0 0 0 0 0 0 0 0 0 0 0 0 0 0 0 0 0 0 0 0 0 0 0 0 0 0 0 0 0 0 0
0 0 0 0 0 0 0 0 0 0 0 0 0 0 0 0 0 0 0 0 0 0 0 0 0 0 0 0 0 0 0 0 0 0 0 0 0 0 0 0 0 0 0
0 0 0 0 0 0 0 0 0 0 0 0 0 0 0 0 0 0 0 0 0 57 67 0 0 0 0 0 0 0 0 0 0 0 0 0 0 0 0 0 0 0 0
0 0 0 0 0 0 0 0 0 0 0 0 0 0 0 0 0 0 0 0 7 2 0 0 0 0 0 0 0 0 0 0 0 0 0 0 0 0 0 0 0 0 0
0 0 0 0 0 0 0 0 0 0 0 0 0 0 0 0 0 14 0 0 0 0 0 0 0 0 0 0 0 0 0 0 0 0 0 0 0 0 0 0 0 0 0
0 0 0 0 0 0 0 0 0 0 0 0 0 0 0 0 0 120 0 0 0 0 0 0 0 0 0 0 0 0 0 0 0 0 0 0 0 0 0 0 0 0 0

GFSMA_con_mucape_003.txt.gz
CAPE
46 81 83 112 29 9 0 0 0 0 0 0 0 0 0 0 0 0 0 0 0 0 0 0 0 10 0 0 0 40 113 86 95 112 80 67 81 48 85 128 133 143 175
65 72 12 3 1 0 0 0 0 0 0 0 0 0 0 0 0 0 0 0 0 0 0 0 0 0 0 0 0 0 0 0 0 0 0 0 0 43 4 19 66 51 95
136 1 1 1 0 0 0 0 0 0 0 0 0 0 0 0 0 0 0 0 0 0 0 0 0 0 0 0 0 0 0 0 0 0 0 0 0 0 0 0 40 115 50
18 0 0 0 0 0 0 0 0 0 0 0 0 0 0 0 0 0 0 0 0 0 0 0 0 0 0 0 0 0 0 0 0 0 0 0 0 0 0 0 0 6 8
2 0 0 0 0 0 0 0 0 0 0 0 0 0 0 0 0 0 0 0 0 0 0 0 0 0 0 0 0 0 0 0 0 1 0 0 0 0 0 0 0 0 0
0 0 0 0 0 0 0 0 0 0 0 0 0 0 0 0 0 0 0 0 0 0 0 0 0 0 0 0 0 0 0 0 0 0 0 0 0 0 4 5 3 1 0
0 0 0 0 0 0 0 0 0 0 0 0 0 0 0 0 0 0 0 0 0 0 0 0 0 0 0 0 0 0 0 0 0 0 0 0 5 7 9 14 17 16 20
0 0 0 0 0 0 0 0 0 0 0 0 0 0 0 0 0 0 0 0 0 0 0 0 0 0 0 0 0 0 0 0 0 0 0 5 10 12 18 22 20 25 29
0 0 0 0 0 0 0 0 0 0 0 0 0 0 0 0 0 0 0 0 0 0 0 0 0 0 0 0 0 0 0 0 0 1 13 15 17 18 24 28 31 31 37
0 0 0 0 0 0 0 0 0 0 0 0 0 0 0 0 0 0 0 0 0 0 0 0 0 0 0 0 0 0 0 0 0 5 11 14 18 22 22 30 37 43 53
0 0 0 0 0 0 0 0 0 0 0 0 0 0 0 0 0 0 0 0 0 0 0 0 0 0 0 0 0 0 0 0 0 0 18 27 34 38 46 57 52 50 50
0 0 0 0 0 0 0 0 0 0 0 0 0 0 0 0 0 0 0 0 0 0 0 0 0 0 0 0 0 0 0 0 0 0 0 3 48 58 71 74 74 67 71
0 0 0 0 0 0 0 0 0 0 0 0 0 0 0 0 0 0 0 0 0 0 0 0 0 0 0 0 0 0 0 0 0 0 0 0 0 49 52 63 74 81 96
0 0 0 0 0 0 0 0 0 0 0 0 0 0 0 0 0 0 0 0 0 0 0 0 0 0 0 0 0 0 0 0 0 0 0 0 0 0 0 55 73 89 105
0 0 0 0 0 0 0 0 0 0 0 0 0 0 0 0 0 0 0 0 0 0 0 0 0 0 0 0 0 0 0 0 0 0 0 0 0 0 56 55 77 84 103
0 0 0 0 0 0 0 0 0 0 0 0 0 0 0 0 0 0 0 0 0 0 0 0 0 0 0 0 0 0 0 0 0 0 0 65 54 58 66 80 98 134 135
0 0 0 0 0 0 0 0 0 0 0 0 0 0 0 0 0 0 0 0 0 0 0 0 0 0 0 0 0 0 0 0 0 0 0 0 0 0 0 77 82 121 102
0 0 0 0 0 0 0 0 0 0 0 0 0 0 0 0 0 0 0 0 0 0 0 0 0 0 0 0 0 0 0 0 0 0 0 0 0 0 48 88 100 106 115
0 0 0 0 0 0 0 0 0 0 0 0 0 0 0 0 0 0 0 0 0 0 0 0 0 0 0 0 0 0 0 0 0 0 0 0 0 0 0 53 66 80 80
0 0 0 0 0 0 0 0 0 0 0 0 0 0 0 0 0 0 0 0 0 0 0 0 0 0 0 0 0 0 0 0 0 0 0 0 0 0 0 0 0 0 0
0 0 0 0 0 0 0 0 0 0 0 0 0 0 0 0 0 0 0 0 0 0 0 0 0 0 0 0 0 0 0 0 0 0 0 0 0 0 0 0 0 0 0
0 0 0 0 0 0 0 0 0 0 0 0 0 0 0 0 0 0 0 0 0 0 0 0 0 0 0 0 0 0 0 0 0 0 0 0 0 0 0 0 0 0 0
0 0 0 0 0 0 0 0 0 0 0 0 0 0 0 0 0 0 0 0 0 30 0 0 0 0 0 0 0 0 0 0 0 0 0 0 0 0 0 0 0 0 0
0 0 0 0 0 0 0 0 0 0 0 0 0 0 0 0 0 0 0 0 0 0 0 0 0 0 0 0 0 0 0 0 0 0 0 0 0 0 0 0 0 0 0
0 0 0 0 0 0 0 0 0 0 0 0 0 0 0 0 0 0 0 0 0 0 0 0 0 0 0 0 0 0 0 0 0 0 0 0 0 0 0 0 0 0 0
0 0 0 0 0 0 0 0 0 0 0 0 0 0 0 0 0 0 0 0 0 0 0 0 0 0 0 0 0 0 0 0 0 0 0 0 0 0 0 0 0 0 0

GFSMA_con_mucape_006.txt.gz
CAPE
12 52 28 41 33 1 0 0 0 0 0 0 0 0 0 0 0 0 0 0 0 0 0 0 0 0 0 0 0 0 0 0 0 0 0 0 0 0 0 5 76 107 102
55 58 60 1 2 1 0 0 0 0 0 0 0 0 0 0 0 0 0 0 0 0 0 0 0 0 0 0 0 0 0 0 0 0 0 0 0 0 0 0 0 2 2
51 3 0 0 0 0 0 0 0 0 0 0 0 0 0 0 0 0 0 0 0 0 0 0 0 0 0 0 0 0 0 0 0 0 0 0 0 0 0 0 0 0 0
14 9 0 0 0 0 0 0 0 0 0 0 0 0 0 0 0 0 0 0 0 0 0 0 0 0 0 0 0 0 0 0 0 0 0 0 0 0 0 0 0 0 0
0 0 0 0 0 0 0 0 0 0 0 0 0 0 0 0 0 0 0 0 0 0 0 0 0 0 0 0 0 0 0 0 0 0 0 0 0 0 0 0 0 0 0
0 0 0 0 0 0 0 0 0 0 0 0 0 0 0 0 0 0 0 0 0 0 0 0 0 0 0 0 0 0 0 0 0 0 0 0 0 2 6 6 8 9 7
0 0 0 0 0 0 0 0 0 0 0 0 0 0 0 0 0 0 0 0 0 0 0 0 0 0 0 0 0 0 0 0 0 0 0 0 0 5 11 12 16 15 14
0 0 0 0 0 0 0 0 0 0 0 0 0 0 0 0 0 0 0 0 0 0 0 0 0 0 0 0 0 0 0 0 0 0 1 3 12 17 19 20 22 25 24
0 0 0 0 0 0 0 0 0 0 0 0 0 0 0 0 0 0 0 0 0 0 0 0 0 0 0 0 0 0 0 0 0 0 6 14 21 27 33 37 38 37 33
0 0 0 0 0 0 0 0 0 0 0 0 0 0 0 0 0 0 0 0 0 0 0 0 0 0 0 0 0 0 0 0 0 0 8 24 35 49 55 57 56 60 58
0 0 0 0 0 0 0 0 0 0 0 0 0 0 0 0 0 0 0 0 0 0 0 0 0 0 0 0 0 0 0 0 0 0 0 44 51 56 64 75 75 79 68
0 0 0 0 0 0 0 0 0 0 0 0 0 0 0 0 0 0 0 0 0 0 0 0 0 0 0 0 0 0 0 0 0 0 0 56 62 73 82 90 84 83 77
0 0 0 0 0 0 0 0 0 0 0 0 0 0 0 0 0 0 0 0 0 0 0 0 0 0 0 0 0 0 0 0 0 0 0 0 0 62 76 85 90 84 85
0 0 0 0 0 0 0 0 0 0 0 0 0 0 0 0 0 0 0 0 0 0 0 0 0 0 0 0 0 0 0 0 0 0 0 0 0 0 0 0 38 79 73
0 0 0 0 0 0 0 0 0 0 0 0 0 0 0 0 0 0 0 0 0 0 0 0 0 0 0 0 0 0 0 0 0 0 6 0 5 0 0 0 0 0 0
0 0 0 0 0 0 0 0 0 0 0 0 0 0 0 0 0 0 0 0 0 0 0 0 0 0 0 0 0 0 0 0 21 40 68 71 15 0 0 0 0 0 0
0 0 0 0 0 0 0 0 0 0 0 0 0 0 0 0 0 0 0 0 0 0 0 0 0 0 0 0 0 0 0 0 2 88 56 33 43 53 0 0 0 81 99
0 0 0 0 0 0 0 0 0 0 0 0 0 0 0 0 0 0 0 0 0 0 0 0 0 0 0 0 0 0 0 0 0 0 1 48 65 54 60 73 79 77 76
0 0 0 0 0 0 0 0 0 0 0 0 0 0 0 0 0 0 0 0 0 0 0 0 0 0 0 0 0 0 0 0 0 0 0 0 0 0 0 0 0 0 0
0 0 0 0 0 0 0 0 0 0 0 0 0 0 0 0 0 0 0 0 0 0 0 0 0 0 0 0 0 0 0 0 0 0 0 0 0 0 0 0 0 0 0
0 0 0 0 0 0 0 0 0 0 0 0 0 0 0 0 0 0 0 0 0 0 0 0 0 0 0 0 0 0 0 0 0 0 0 0 0 0 0 0 0 0 0
0 0 0 0 0 0 0 0 0 0 0 0 0 0 0 0 0 0 0 0 0 0 0 0 0 0 0 0 0 0 0 0 0 0 0 0 0 0 0 0 0 0 0
0 0 0 0 0 0 0 0 0 0 0 0 0 0 0 0 0 0 0 0 0 0 0 0 0 0 0 0 0 0 0 0 0 0 0 0 0 0 0 0 0 0 0
0 0 0 0 0 0 0 0 0 0 0 0 0 0 0 0 0 0 0 0 0 0 0 0 0 0 0 0 0 0 0 0 0 0 0 0 0 0 0 0 0 0 0
0 0 0 0 0 0 0 0 0 0 0 0 0 0 0 0 0 0 0 0 0 0 0 0 0 0 0 0 0 0 0 0 0 0 0 0 0 0 0 0 0 0 0
0 0 0 0 0 0 0 0 0 0 0 0 0 0 0 0 0 0 0 0 0 0 0 0 0 0 0 0 0 0 0 0 0 0 0 0 0 0 0 0 0 0 0

GFSMA_con_mucape_009.txt.gz
CAPE
0 42 11 2 4 0 0 0 0 0 0 0 0 0 0 0 0 0 0 0 0 0 0 0 0 0 0 0 0 0 0 0 0 0 0 0 0 0 0 0 0 33 110
33 48 12 2 0 0 0 0 0 0 0 0 0 0 0 0 0 0 0 0 0 0 0 0 0 0 0 0 0 0 0 0 0 0 0 0 0 0 0 0 0 0 0
68 19 0 0 0 0 0 0 0 0 0 0 0 0 0 0 0 0 0 0 0 0 0 0 0 0 0 0 0 0 0 0 0 0 0 0 0 0 0 0 0 0 0
12 5 2 0 0 0 0 0 0 0 0 0 0 0 0 0 0 0 0 0 0 0 0 0 0 0 0 0 0 0 0 0 0 0 0 0 0 0 0 0 0 0 0
5 1 0 0 0 0 0 0 0 0 0 0 0 0 0 0 0 0 0 0 0 0 0 0 0 0 0 0 0 0 0 0 0 0 0 0 0 0 0 1 1 2 1
0 0 0 0 0 0 0 0 0 0 0 0 0 0 0 0 0 0 0 0 0 0 0 0 0 0 0 0 0 0 0 0 0 0 0 0 0 1 4 6 10 12 14
1 0 0 0 0 0 0 0 0 0 0 0 0 0 0 0 0 0 0 0 0 0 0 0 0 0 0 0 0 0 0 0 0 0 0 0 2 5 9 18 22 24 25
0 0 0 0 0 0 0 0 0 0 0 0 0 0 0 0 0 0 0 0 0 0 0 0 0 0 0 0 0 0 0 0 0 0 0 0 7 18 28 33 33 35 34
0 0 0 0 0 0 0 0 0 0 0 0 0 0 0 0 0 0 0 0 0 0 0 0 0 0 0 0 0 0 0 0 0 0 0 7 14 24 32 42 48 58 57
0 0 0 0 0 0 0 0 0 0 0 0 0 0 0 0 0 0 0 0 0 0 0 0 0 0 0 0 0 0 0 0 0 0 0 15 27 38 52 60 67 73 74
0 0 0 0 0 0 0 0 0 0 0 0 0 0 0 0 0 0 0 0 0 0 0 0 0 0 0 0 0 0 0 0 0 0 18 28 47 70 82 88 91 90 97
0 0 0 0 0 0 0 0 0 0 0 0 0 0 0 0 0 0 0 0 0 0 0 0 0 0 0 0 0 0 0 0 0 0 42 71 84 91 93 107 119 127 127
0 0 0 0 0 0 0 0 0 0 0 0 0 0 0 0 0 0 0 0 0 0 0 0 0 0 0 0 0 0 0 0 0 0 0 75 82 83 78 95 119 120 131
0 0 0 0 0 0 0 0 0 0 0 0 0 0 0 0 0 0 0 0 0 0 0 0 0 0 0 0 0 0 0 0 0 0 5 54 52 52 70 81 100 111 103
0 0 0 0 0 0 0 0 0 0 0 0 0 0 0 0 0 0 0 0 0 0 0 0 0 0 0 0 0 0 0 0 0 0 49 53 45 63 76 82 76 83 84
0 0 0 0 0 0 0 0 0 0 0 0 0 0 0 0 0 0 0 0 0 0 0 0 0 0 0 0 0 0 0 0 0 11 49 65 75 72 70 81 80 83 86
0 0 0 0 0 0 0 0 0 0 0 0 0 0 0 0 0 0 0 0 0 0 0 0 0 0 0 0 0 0 0 0 0 0 0 0 51 66 70 79 86 95 102
0 0 0 0 0 0 0 0 0 0 0 0 0 0 0 0 0 0 0 0 0 0 0 0 0 0 0 0 0 0 0 0 0 0 0 0 0 0 0 0 4 95 89
0 0 0 0 0 0 0 0 0 0 0 0 0 0 0 0 0 0 0 0 0 0 0 0 0 0 0 0 0 0 0 0 0 0 0 0 0 0 0 0 0 0 0
0 0 0 0 0 0 0 0 0 0 0 0 0 0 0 0 0 0 0 0 0 0 0 0 0 0 0 0 0 0 0 0 0 0 0 0 0 0 0 0 0 0 0
0 0 0 0 0 0 0 0 0 0 0 0 0 0 0 0 0 0 0 0 0 0 0 0 0 0 0 0 0 0 0 0 0 0 0 0 0 0 0 0 0 0 0
0 0 0 0 0 0 0 0 0 0 0 0 0 0 0 0 0 0 0 0 0 0 0 0 0 0 0 0 0 0 0 0 0 0 0 0 0 0 0 0 0 0 0
0 0 0 0 0 0 0 0 0 0 0 0 0 0 0 0 0 0 0 0 0 0 0 0 0 0 0 0 0 0 0 0 0 0 0 0 0 0 0 0 0 0 0
0 0 0 0 0 0 0 0 0 0 0 0 0 0 0 0 0 0 0 0 0 0 0 0 0 0 0 0 0 0 0 0 0 0 0 0 0 0 0 0 0 0 0
0 0 0 0 0 0 0 0 0 0 0 0 0 0 0 0 0 0 0 0 0 0 0 0 0 0 0 0 0 0 0 0 0 0 0 0 0 0 0 0 0 0 0
0 0 0 0 0 0 0 0 0 0 0 0 0 0 0 0 0 0 0 0 0 0 0 0 0 0 0 0 0 0 0 0 0 0 0 0 0 0 0 0 0 0 0

GFSMA_con_mucape_012.txt.gz
CAPE
76 47 0 0 0 0 0 0 0 0 0 0 0 0 0 0 0 0 0 0 0 0 0 0 0 0 0 0 0 0 0 0 0 0 0 0 0 0 0 0 0 0 9
132 0 1 3 0 0 0 0 0 0 0 0 0 0 0 0 0 0 0 0 0 0 0 0 0 0 0 0 0 0 0 0 0 0 0 0 0 0 0 0 0 0 0
5 13 10 2 0 0 0 0 0 0 0 0 0 0 0 0 0 0 0 0 0 0 0 0 0 0 0 0 0 0 0 0 0 0 0 0 0 0 0 0 0 0 0
19 2 0 0 0 0 0 0 0 0 0 0 0 0 0 0 0 0 0 0 0 0 0 0 0 0 0 0 0 0 0 0 0 0 0 0 0 0 0 0 0 0 0
10 4 0 0 0 0 0 0 0 0 0 0 0 0 0 0 0 0 0 0 0 0 0 0 0 0 0 0 0 0 0 0 0 0 0 0 0 0 0 0 1 2 4
42 0 0 0 0 0 0 0 0 0 0 0 0 0 0 0 0 0 0 0 0 0 0 0 0 0 0 0 0 0 0 0 0 0 0 0 0 4 2 3 6 10 11
4 0 0 0 0 0 0 0 0 0 0 0 0 0 0 0 0 0 0 0 0 0 0 0 0 0 0 0 0 0 0 0 0 0 0 0 0 6 6 11 14 23 25
6 0 0 0 0 0 0 0 0 0 0 0 0 0 0 0 0 0 0 0 0 0 0 0 0 0 0 0 0 0 0 0 0 0 0 0 0 2 15 22 26 34 39
9 0 0 0 0 0 0 0 0 0 0 0 0 0 0 0 0 0 0 0 0 0 0 0 0 0 0 0 0 0 0 0 0 0 0 0 0 20 29 37 43 48 52
3 0 0 0 0 0 0 0 0 0 0 0 0 0 0 0 0 0 0 0 0 0 0 0 0 0 0 0 0 0 0 0 0 0 0 0 6 35 50 60 72 82 73
0 0 0 0 0 0 0 0 0 0 0 0 0 0 0 0 0 0 0 0 0 0 0 0 0 0 0 0 0 0 0 0 0 0 0 0 47 58 68 75 84 92 105
0 0 0 0 0 0 0 0 0 0 0 0 0 0 0 0 0 0 0 0 0 0 0 0 0 0 0 0 0 0 0 0 0 0 0 0 14 76 92 100 114 101 128
0 0 0 0 0 0 0 0 0 0 0 0 0 0 0 0 0 0 0 0 0 0 0 0 0 0 0 0 0 0 0 0 0 0 0 0 0 22 63 81 99 111 127
0 0 0 0 0 0 0 0 0 0 0 0 0 0 0 0 0 0 0 0 0 0 0 0 0 0 0 0 0 0 0 0 0 0 0 0 0 0 0 68 85 108 121
0 0 0 0 0 0 0 0 0 0 0 0 0 0 0 0 0 0 0 0 0 0 0 0 0 0 0 0 0 0 0 0 0 0 0 0 0 66 71 81 81 102 97
0 0 0 0 0 0 0 0 0 0 0 0 0 0 0 0 0 0 0 0 0 0 0 0 0 0 0 0 0 0 0 0 0 0 0 0 0 0 37 41 43 40 74
0 0 0 0 0 0 0 0 0 0 0 0 0 0 0 0 0 0 0 0 0 0 0 0 0 0 0 0 0 0 0 0 0 0 0 0 0 0 0 0 0 0 28
0 0 0 0 0 0 0 0 0 0 0 0 0 0 0 0 0 0 0 0 0 0 0 0 0 0 0 0 0 0 0 0 0 0 0 0 0 0 0 0 0 0 0
0 0 0 0 0 0 0 0 0 0 0 0 0 0 0 0 0 0 0 0 0 0 0 0 0 0 0 0 0 0 0 0 0 0 0 0 0 0 0 0 0 0 0
0 0 0 0 0 0 0 0 0 0 0 0 0 0 0 0 0 0 0 0 0 0 0 0 0 0 0 0 0 0 0 0 0 0 0 0 0 0 0 0 0 0 0
0 0 0 0 0 0 0 0 0 0 0 0 0 0 0 0 0 0 0 0 0 0 0 0 0 0 0 0 0 0 0 0 0 0 0 0 0 0 0 0 0 0 0
0 0 0 0 0 0 0 0 0 0 0 0 0 0 0 0 0 0 0 0 0 0 0 0 0 0 0 0 0 0 0 0 0 0 0 0 0 0 0 0 0 0 0
0 0 0 0 0 0 0 0 0 0 0 0 0 0 0 0 0 0 0 0 0 0 0 0 0 0 0 0 0 0 0 0 0 0 0 0 0 0 0 0 0 0 0
0 0 0 0 0 0 0 0 0 0 0 0 0 0 0 0 0 0 0 0 0 0 0 0 0 0 0 0 0 0 0 0 0 0 0 0 0 0 0 0 0 0 0
0 0 0 0 0 0 0 0 0 0 0 0 0 0 0 0 0 0 0 0 0 0 0 0 0 0 0 0 0 0 0 0 0 0 0 0 0 0 0 0 0 0 0
0 0 0 0 0 0 0 0 0 0 0 0 0 0 0 0 0 0 0 0 0 0 0 0 0 0 0 0 0 0 0 0 0 0 0 0 0 0 0 0 0 0 0

GFSMA_con_mucape_018.txt.gz
CAPE
0 0 2 1 0 0 0 0 0 0 0 0 0 0 0 0 0 0 0 0 0 0 0 0 0 0 0 0 0 0 0 0 0 0 0 0 0 0 0 0 0 0 0
0 1 8 0 0 0 0 0 0 0 0 0 0 0 0 0 0 0 0 0 0 0 0 0 0 0 0 0 0 0 0 0 0 0 0 0 0 0 0 0 0 0 0
31 4 1 0 0 0 0 0 0 0 0 0 0 0 0 0 0 0 0 0 0 0 0 0 0 0 0 0 0 0 0 0 0 0 0 0 0 0 0 0 0 0 0
84 47 0 0 0 0 0 0 0 0 0 0 0 0 0 0 0 0 0 0 0 0 0 0 0 0 0 0 0 0 0 0 0 0 0 0 0 0 0 0 0 0 1
187 6 0 0 0 0 0 0 0 0 0 0 0 0 0 0 0 0 0 0 0 0 0 0 0 0 0 0 0 0 0 0 0 0 0 0 0 0 0 0 1 7 4
113 21 0 0 0 0 0 0 0 0 0 0 0 0 0 0 0 0 0 0 0 0 0 0 0 0 0 0 0 0 0 0 0 0 0 0 0 0 3 2 4 10 13
95 40 4 0 0 0 0 0 0 0 0 0 0 0 0 0 0 0 0 0 0 0 0 0 0 0 0 0 0 0 0 0 0 0 0 0 0 0 0 9 12 17 20
123 70 6 1 0 0 0 0 0 0 0 0 0 0 0 0 0 0 0 0 0 0 0 0 0 0 0 0 0 0 0 0 0 0 0 0 0 0 0 0 16 23 29
154 128 77 33 0 0 0 0 0 0 0 0 0 0 0 0 0 0 0 0 0 0 0 0 0 0 0 0 0 0 0 0 0 0 0 0 0 0 0 0 28 32 40
224 174 84 7 1 0 0 0 0 0 0 0 0 0 0 0 0 0 0 0 0 0 0 0 0 0 0 0 0 0 0 0 0 0 0 0 0 0 0 0 3 50 51
325 159 211 62 7 0 0 0 0 0 0 0 0 0 0 0 0 0 0 0 0 0 0 0 0 0 0 0 0 0 0 0 0 0 0 0 0 0 0 0 0 0 0
398 222 79 65 5 0 0 0 0 0 0 0 0 0 0 0 0 0 0 0 0 0 0 0 0 0 0 0 0 0 0 0 0 0 0 0 0 0 0 0 45 76 79
293 203 60 145 3 0 0 0 0 0 0 0 0 0 0 0 0 0 0 0 0 0 0 0 0 0 0 0 0 0 0 0 0 0 0 0 0 0 0 73 82 82 72
300 114 165 76 0 0 0 0 0 0 0 0 0 0 0 0 0 0 0 0 0 0 0 0 0 0 0 0 0 0 0 0 0 0 0 0 0 0 0 8 69 63 70
252 210 126 91 0 0 0 0 0 0 0 0 0 0 0 0 0 0 0 0 0 0 0 0 0 0 0 0 0 0 0 0 0 0 0 0 0 0 0 0 49 49 0
153 2 23 3 0 0 0 0 0 0 0 0 0 0 0 0 0 0 0 0 0 0 0 0 0 0 0 0 0 0 0 0 0 0 0 0 0 0 0 0 0 0 0
118 3 11 0 0 0 0 0 0 0 0 0 0 0 0 0 0 0 0 0 0 0 0 0 0 0 0 0 0 0 0 0 0 0 0 0 0 0 0 0 0 0 0
16 10 9 0 0 0 0 0 0 0 0 0 0 0 0 0 0 0 0 0 0 0 0 0 0 0 0 0 0 0 0 0 0 0 0 0 0 0 0 0 0 0 0
10 12 2 0 0 0 0 0 0 0 0 0 0 0 0 0 0 0 0 0 0 0 0 0 0 0 0 0 0 0 0 0 0 0 0 0 0 0 0 0 0 0 0
9 19 0 0 0 0 0 0 0 0 0 0 0 0 0 0 0 0 0 0 0 0 0 0 0 0 0 0 0 0 0 0 0 0 0 0 0 0 0 0 0 0 0
15 0 0 0 0 0 0 0 0 0 0 0 0 0 0 0 0 0 0 0 0 0 0 0 0 0 0 0 0 0 0 0 0 0 0 0 0 0 0 0 0 0 0
0 0 0 0 0 0 0 0 0 0 0 0 0 0 0 0 0 0 0 0 0 0 0 0 0 0 0 0 0 0 0 0 0 0 0 0 0 0 0 0 0 0 0
0 0 0 0 0 0 0 0 0 0 0 0 0 0 0 0 0 0 0 0 0 0 0 0 0 0 0 0 0 0 0 0 0 0 0 0 0 0 0 0 0 0 0
0 0 0 0 0 0 0 0 0 0 0 0 0 0 0 0 0 0 0 0 0 0 0 0 0 0 0 0 0 0 0 0 0 0 0 0 0 0 0 0 0 0 0
0 0 0 0 0 0 0 0 0 0 0 0 0 0 0 0 0 0 0 0 0 0 0 0 0 0 0 0 0 0 0 0 0 0 0 0 0 0 0 0 0 0 0
0 0 0 0 0 0 0 0 0 0 0 0 0 0 0 0 0 0 0 0 0 0 0 0 0 0 0 0 0 0 0 0 0 0 0 0 0 0 0 0 0 0 0

GFSMA_con_mucape_021.txt.gz
CAPE
0 0 0 7 0 0 0 0 0 0 0 0 0 0 0 0 0 0 0 0 0 0 0 0 0 0 0 0 0 0 0 0 0 0 0 0 0 0 0 0 0 0 0
0 0 4 11 0 0 0 0 0 0 0 0 0 0 0 0 0 0 0 0 0 0 0 0 0 0 0 0 0 0 0 0 0 0 0 0 0 0 0 0 0 0 0
0 0 3 45 0 0 0 0 0 0 0 0 0 0 0 0 0 0 0 0 0 0 0 0 0 0 0 0 0 0 0 0 0 0 0 0 0 0 0 0 0 0 2
71 46 54 41 0 0 0 0 0 0 0 0 0 0 0 0 0 0 0 0 0 0 0 0 0 0 0 0 0 0 0 0 0 0 0 0 0 0 0 0 0 0 4
121 106 75 33 0 0 0 0 0 0 0 0 0 0 0 0 0 0 0 0 0 0 0 0 0 0 0 0 0 0 0 0 0 0 0 0 0 0 0 0 6 4 6
138 160 128 10 0 0 0 0 0 0 0 0 0 0 0 0 0 0 0 0 0 0 0 0 0 0 0 0 0 0 0 0 0 0 0 0 0 0 0 0 6 7 11
202 278 97 31 5 0 0 0 0 0 0 0 0 0 0 0 0 0 0 0 0 0 0 0 0 0 0 0 0 0 0 0 0 0 0 0 0 0 0 0 13 12 17
321 263 113 36 22 1 0 0 0 0 0 0 0 0 0 0 0 0 0 0 0 0 0 0 0 0 0 0 0 0 0 0 0 0 0 0 0 0 0 0 0 0 0
610 258 117 20 7 1 0 0 0 0 0 0 0 0 0 0 0 0 0 0 0 0 0 0 0 0 0 0 0 0 0 0 0 0 0 0 0 0 0 0 0 14 41
726 405 117 56 5 3 0 0 0 0 0 0 0 0 0 0 0 0 0 0 0 0 0 0 0 0 0 0 0 0 0 0 0 0 0 0 0 0 0 0 0 6 64
712 435 130 74 9 5 8 0 0 0 0 0 0 0 0 0 0 0 0 0 0 0 0 0 0 0 0 0 0 0 0 0 0 0 0 0 0 0 0 0 0 0 0
762 352 176 129 8 17 17 0 0 0 0 0 0 0 0 0 0 0 0 0 0 0 0 0 0 0 0 0 0 0 0 0 0 0 0 0 0 0 0 0 0 0 0
578 305 457 87 9 11 16 0 0 0 0 0 0 0 0 0 0 0 0 0 0 0 0 0 0 0 0 0 0 0 0 0 0 0 0 0 0 0 0 0 71 70 87
287 236 295 164 31 23 23 0 0 0 0 0 0 0 0 0 0 0 0 0 0 0 0 0 0 0 0 0 0 0 0 0 0 0 0 0 0 0 0 0 63 66 74
413 296 163 194 38 31 17 0 0 0 0 0 0 0 0 0 0 0 0 0 0 0 0 0 0 0 0 0 0 0 0 0 0 0 0 0 0 0 0 0 50 50 64
310 271 189 116 45 36 35 0 0 0 0 0 0 0 0 0 0 0 0 0 0 0 0 0 0 0 0 0 0 0 0 0 0 0 0 0 0 0 0 0 0 0 35
338 259 136 52 5 13 6 0 0 0 0 0 0 0 0 0 0 0 0 0 0 0 0 0 0 0 0 0 0 0 0 0 0 0 0 0 0 0 0 0 0 0 0
350 228 118 36 7 31 0 0 0 0 0 0 0 0 0 0 0 0 0 0 0 0 0 0 0 0 0 0 0 0 0 0 0 0 0 0 0 0 0 0 0 0 0
198 119 100 16 5 7 0 0 0 0 0 0 0 0 0 0 0 0 0 0 0 0 0 0 0 0 0 0 0 0 0 0 0 0 0 0 0 0 0 0 0 0 0
103 13 12 28 22 2 0 0 0 0 0 0 0 0 0 0 0 0 0 0 0 0 0 0 0 0 0 0 0 0 0 0 0 0 0 0 0 0 0 0 0 0 0
70 83 11 20 10 0 0 0 0 0 0 0 0 0 0 0 0 0 0 0 0 0 0 0 0 0 0 0 0 0 0 0 0 0 0 0 0 0 0 0 0 0 0
3 18 8 9 0 0 0 0 0 0 0 0 0 0 0 0 0 0 0 0 0 0 0 0 0 0 0 0 0 0 0 0 0 0 0 0 0 0 0 0 0 0 0
0 1 1 0 0 6 0 0 0 0 0 0 0 0 0 0 0 0 0 0 0 0 0 0 0 0 0 0 0 0 0 0 0 0 0 0 0 0 0 0 0 0 0
0 0 0 3 0 0 0 0 0 0 0 0 0 0 0 0 0 0 0 0 0 0 0 0 0 0 0 0 0 0 0 0 0 0 0 0 0 0 0 0 0 0 0
0 0 0 0 4 0 0 0 0 0 0 0 0 0 0 0 0 0 0 0 0 0 0 0 0 0 0 0 0 0 0 0 0 0 0 0 0 0 0 0 0 0 0
0 0 0 0 0 0 0 0 0 0 0 0 0 0 0 0 0 0 0 0 0 0 0 0 0 0 0 0 0 0 0 0 0 0 0 0 0 0 0 0 0 0 0

GFSMA_con_mucape_024.txt.gz
CAPE
0 37 0 0 0 0 0 0 0 0 0 0 0 0 0 0 0 0 0 0 0 0 0 0 0 0 0 0 0 0 0 0 0 0 0 0 0 0 0 0 0 0 0
2 17 0 18 0 0 0 0 0 0 0 0 0 0 0 0 0 0 0 0 0 0 0 0 0 0 0 0 0 0 0 0 0 0 0 0 0 0 0 0 0 0 0
64 0 0 27 0 0 0 0 0 0 0 0 0 0 0 0 0 0 0 0 0 0 0 0 0 0 0 0 0 0 0 0 0 0 0 0 0 0 0 0 0 0 0
136 0 15 40 23 21 0 0 0 0 0 0 0 0 0 0 0 0 0 0 0 0 0 0 0 0 0 0 0 0 0 0 0 0 0 0 0 0 0 0 0 7 5
178 36 12 32 57 28 0 0 0 0 0 0 0 0 0 0 0 0 0 0 0 0 0 0 0 0 0 0 0 0 0 0 0 0 0 0 0 0 0 0 0 0 5
278 117 58 66 52 14 2 0 0 0 0 0 0 0 0 0 0 0 0 0 0 0 0 0 0 0 0 0 0 0 0 0 0 0 0 0 0 0 0 0 0 0 10
471 89 60 100 108 0 0 0 0 0 0 0 0 0 0 0 0 0 0 0 0 0 0 0 0 0 0 0 0 0 0 0 0 0 0 0 0 0 0 0 0 0 0
946 665 139 180 60 0 0 0 0 0 0 0 0 0 0 0 0 0 0 0 0 0 0 0 0 0 0 0 0 0 0 0 0 0 0 0 0 0 0 0 0 0 0
582 930 591 249 81 0 0 0 0 0 0 0 0 0 0 0 0 0 0 0 0 0 0 0 0 0 0 0 0 0 0 0 0 0 0 0 0 0 0 0 0 0 0
681 649 249 333 126 0 0 4 0 0 0 0 0 0 0 0 0 0 0 0 0 0 0 0 0 0 0 0 0 0 0 0 0 0 0 0 0 0 0 0 0 0 0
395 360 446 455 434 41 0 5 2 0 0 0 0 0 0 0 0 0 0 0 0 0 0 0 0 0 0 0 0 0 0 0 0 0 0 0 0 0 0 0 0 0 0
432 405 610 595 372 124 10 15 1 2 0 0 0 0 0 0 0 0 0 0 0 0 0 0 0 0 0 0 0 0 0 0 0 0 0 0 0 0 0 0 0 0 0
403 454 562 452 417 176 9 9 2 22 1 0 0 0 0 0 0 0 0 0 0 0 0 0 0 0 0 0 0 0 0 0 0 0 0 0 0 0 0 0 0 0 0
318 377 316 233 516 219 46 13 6 12 6 0 0 0 0 0 0 0 0 0 0 0 0 0 0 0 0 0 0 0 0 0 0 0 0 0 0 0 0 0 0 0 0
266 343 207 132 345 201 115 16 9 19 2 0 0 0 0 0 0 0 0 0 0 0 0 0 0 0 0 0 0 0 0 0 0 0 0 0 0 0 0 0 0 0 0
291 404 197 266 212 157 133 20 4 11 1 0 0 0 0 0 0 0 0 0 0 0 0 0 0 0 0 0 0 0 0 0 0 0 0 0 0 0 0 0 0 0 0
312 233 449 248 201 59 59 1 14 1 16 0 0 0 0 0 0 0 0 0 0 0 0 0 0 0 0 0 0 0 0 0 0 0 0 0 0 0 0 0 0 0 0
231 189 209 228 99 27 26 7 0 14 4 0 0 0 0 0 0 0 0 0 0 0 0 0 0 0 0 0 0 0 0 0 0 0 0 0 0 0 0 0 0 0 0
28 176 226 138 65 21 14 12 13 12 0 0 0 0 0 0 0 0 0 0 0 0 0 0 0 0 0 0 0 0 0 0 0 0 0 0 0 0 0 0 0 0 0
75 334 155 81 3 3 2 13 6 0 0 0 0 0 0 0 0 0 0 0 0 0 0 0 0 0 0 0 0 0 0 0 0 0 0 0 0 0 0 0 0 0 0
61 74 92 1 1 0 4 3 0 0 0 0 1 0 0 0 0 0 0 0 0 0 0 0 0 0 0 0 0 0 0 0 0 0 0 0 0 0 0 0 0 0 0
137 4 1 11 2 5 1 0 0 0 0 1 0 0 0 0 0 0 0 0 0 0 0 0 0 0 0 0 0 0 0 0 0 0 0 0 0 0 0 0 0 0 0
6 1 0 0 0 0 0 0 0 0 0 0 0 0 0 0 0 0 0 0 0 0 0 0 0 0 0 0 0 0 0 0 0 0 0 0 0 0 0 0 0 0 0
5 0 0 0 0 0 0 0 0 1 0 0 0 0 0 0 0 0 0 0 0 0 0 0 0 0 0 0 0 0 0 0 0 0 0 0 0 0 0 0 0 0 0
0 0 0 0 0 0 1 2 0 0 0 0 0 0 0 0 0 0 0 0 0 0 0 0 0 0 0 0 0 0 0 0 0 0 0 0 0 0 0 0 0 0 0
0 0 0 0 0 0 0 0 0 0 0 0 0 0 0 0 0 0 0 0 0 0 0 0 0 0 0 0 0 0 0 0 0 0 0 0 0 0 0 0 0 0 0

GFSMA_con_mucape_027.txt.gz
CAPE
137 179 126 48 1 0 0 0 0 0 0 0 0 0 0 0 0 0 0 0 0 0 0 0 0 0 0 0 0 0 0 0 0 0 0 0 0 0 0 0 0 0 0
0 88 122 19 0 0 0 0 0 0 0 0 0 0 0 0 0 0 0 0 0 0 0 0 0 0 0 0 0 0 0 0 0 0 0 0 0 0 0 1 0 0 0
0 0 56 3 30 0 0 0 0 0 0 0 0 0 0 0 0 0 0 0 0 0 0 0 0 0 0 0 0 0 0 0 0 0 0 0 0 0 0 0 0 0 3
5 19 14 0 53 17 7 0 0 0 0 0 0 0 0 0 0 0 0 0 0 0 0 0 0 0 0 0 0 0 0 0 0 0 0 0 0 0 0 0 0 0 0
179 152 68 0 34 16 30 3 0 0 0 0 0 0 0 0 0 0 0 0 0 0 0 0 0 0 0 0 0 0 0 0 0 0 0 0 0 0 0 0 0 0 0
275 210 137 46 27 18 33 6 0 0 0 0 0 0 0 0 0 0 0 0 0 0 0 0 0 0 0 0 0 0 0 0 0 0 0 0 0 0 0 0 0 0 0
317 254 276 69 43 48 48 0 0 0 0 0 0 0 0 0 0 0 0 0 0 0 0 0 0 0 0 0 0 0 0 0 0 0 0 0 0 0 0 0 0 0 0
398 226 316 164 56 203 81 0 0 0 0 0 0 0 0 0 0 0 0 0 0 0 0 0 0 0 0 0 0 0 0 0 0 0 0 0 0 0 0 0 0 0 0
432 537 401 315 402 98 128 0 0 0 0 0 0 0 0 0 0 0 0 0 0 0 0 0 0 0 0 0 0 0 0 0 0 0 0 0 0 0 0 0 0 0 0
481 615 630 336 399 252 253 6 0 0 0 0 0 0 0 0 0 0 0 0 0 0 0 0 0 0 0 0 0 0 0 0 0 0 0 0 0 0 0 0 0 0 0
592 470 433 391 415 274 276 124 3 0 0 0 0 0 0 0 0 0 0 0 0 0 0 0 0 0 0 0 0 0 0 0 0 0 0 0 0 0 0 0 0 0 0
606 450 367 388 402 352 281 146 44 0 1 1 0 0 0 0 0 0 0 0 0 0 0 0 0 0 0 0 0 0 0 0 0 0 0 0 0 0 0 0 0 0 0
402 399 352 399 251 333 370 255 81 18 7 8 0 6 0 0 0 0 0 0 0 0 0 0 0 0 0 0 0 0 0 0 0 0 0 0 0 0 0 0 0 0 0
454 363 300 302 228 230 327 217 137 44 8 12 2 2 3 0 0 0 0 0 0 0 0 0 0 0 0 0 0 0 0 0 0 0 0 0 0 0 0 0 0 0 0
315 401 256 104 115 94 276 203 73 55 29 19 5 3 3 0 0 0 0 0 0 0 0 0 0 0 0 0 0 0 0 0 0 0 0 0 0 0 0 0 0 0 0
327 299 80 76 102 73 240 124 66 13 11 3 1 0 2 0 0 0 0 0 0 0 0 0 0 0 0 0 0 0 0 0 0 0 0 0 0 0 0 0 0 0 0
322 226 171 119 91 248 188 102 103 14 72 0 0 1 0 0 0 0 0 0 0 0 0 0 0 0 0 0 0 0 0 0 0 0 0 0 0 0 0 0 0 0 0
326 220 105 157 178 244 100 89 51 85 22 0 0 0 0 0 0 0 0 0 0 0 0 0 0 0 0 0 0 0 0 0 0 0 0 0 0 0 0 0 0 0 0
287 217 175 154 240 238 88 72 31 1 9 4 0 0 0 0 0 0 0 0 0 0 0 0 0 0 0 0 0 0 0 0 0 0 0 0 0 0 0 0 0 0 0
241 282 91 143 86 24 58 56 22 5 23 0 0 0 0 0 2 0 0 0 0 0 0 0 0 0 0 0 0 0 0 0 0 0 0 0 0 0 0 0 0 0 0
225 193 28 192 21 93 80 21 4 4 0 0 0 0 1 0 0 0 0 0 0 0 0 0 0 0 0 0 0 0 0 0 0 0 0 0 0 0 0 0 0 0 0
127 130 29 75 59 32 4 3 1 0 0 0 0 0 0 0 0 0 0 0 0 0 0 0 0 0 0 0 0 0 0 0 0 0 0 0 0 0 0 0 0 0 0
117 22 70 16 20 3 0 0 0 0 0 0 0 0 0 0 0 0 0 0 0 0 0 0 0 0 0 0 0 0 0 0 0 0 0 0 0 0 0 0 0 0 0
8 14 15 27 2 0 0 0 0 0 0 0 0 0 0 0 0 0 0 0 0 0 0 0 0 0 0 0 0 0 0 0 0 0 0 0 0 0 0 0 0 0 0
6 0 0 0 0 0 0 0 0 0 0 0 0 0 0 0 0 0 0 0 0 0 0 0 0 0 0 0 0 0 0 0 0 0 0 0 0 0 0 0 0 0 0
0 0 0 0 0 0 0 0 0 0 0 0 0 0 0 0 0 0 0 0 0 0 0 0 0 0 0 0 0 0 0 0 0 0 0 0 0 0 0 0 0 0 0

GFSMA_con_mucape_030.txt.gz
CAPE
331 311 186 120 22 15 0 0 0 0 0 0 0 0 0 0 0 0 0 0 0 0 0 0 0 0 0 0 0 0 0 0 0 0 0 0 0 0 0 0 0 0 0
175 255 171 106 48 2 0 0 0 0 0 0 0 0 0 0 0 0 0 0 0 0 0 0 0 0 0 0 0 0 0 0 0 0 0 0 0 0 0 0 0 1 1
3 43 104 100 37 0 0 0 0 0 0 0 0 0 0 0 0 0 0 0 0 0 0 0 0 0 0 0 0 0 0 0 0 0 0 0 0 0 0 0 0 0 0
16 0 29 65 8 0 0 0 0 0 0 0 0 0 0 0 0 0 0 0 0 0 0 0 0 0 0 0 0 0 0 0 0 0 0 0 0 0 0 0 0 0 0
5 0 0 6 8 1 24 0 0 0 0 0 0 0 0 0 0 0 0 0 0 0 0 0 0 0 0 0 0 0 0 0 0 0 0 0 0 0 0 0 0 0 0
55 19 88 87 30 17 27 0 9 0 0 0 0 0 0 0 0 0 0 0 0 0 0 0 0 0 0 0 0 0 0 0 0 0 0 0 0 0 0 0 0 0 0
195 225 206 128 71 30 16 32 12 0 0 0 0 0 0 0 0 0 0 0 0 0 0 0 0 0 0 0 0 0 0 0 0 0 0 0 0 0 0 0 0 0 0
412 397 270 103 94 35 64 49 174 0 0 0 0 0 0 0 0 0 0 0 0 0 0 0 0 0 0 0 0 0 0 0 0 0 0 0 0 0 0 0 0 0 24
684 526 419 146 85 214 34 14 124 0 0 0 0 0 0 0 0 0 0 0 0 0 0 0 0 0 0 0 0 0 0 0 0 0 0 0 0 0 0 0 4 33 15
772 656 643 233 191 186 113 123 141 29 0 0 0 0 0 0 0 0 0 0 0 0 0 0 0 0 0 0 0 0 0 0 0 0 0 0 0 0 0 0 0 0 0
839 676 630 412 282 239 265 308 217 164 10 3 0 0 0 0 0 0 0 0 0 0 0 0 0 0 0 0 0 0 0 0 0 0 0 0 0 0 0 0 0 0 0
711 518 634 506 329 327 299 338 259 219 137 28 1 0 1 0 0 0 0 0 0 0 0 0 0 0 0 0 0 0 0 0 0 0 0 0 0 0 0 0 0 0 0
550 552 489 511 341 423 356 327 267 190 161 96 3 19 13 0 0 1 0 0 0 0 0 0 0 0 0 0 0 0 0 0 0 0 0 0 0 0 0 0 0 0 0
492 543 494 409 340 385 326 279 262 143 181 110 69 1 4 14 1 1 2 0 0 0 0 0 0 0 0 0 0 0 0 0 0 0 0 0 0 0 0 0 0 0 0
310 424 476 408 296 293 303 267 150 125 145 105 57 1 1 15 0 0 0 0 0 0 0 0 0 0 0 0 0 0 0 0 0 0 0 0 0 0 0 0 0 0 0
345 289 423 432 359 129 127 131 89 58 122 130 17 10 2 1 0 0 0 1 0 0 0 0 0 0 0 0 0 0 0 0 0 0 0 0 0 0 0 0 0 0 0
331 358 284 369 328 260 118 68 84 52 95 107 56 23 8 0 2 0 0 0 0 0 0 0 0 0 0 0 0 0 0 0 0 0 0 0 0 0 0 0 0 0 0
186 241 321 296 293 271 64 61 58 76 61 6 13 78 3 0 3 0 1 0 0 0 0 0 0 0 0 0 0 0 0 0 0 0 0 0 0 0 0 0 0 0 0
90 82 169 299 322 162 36 90 109 75 67 20 0 14 0 0 4 0 0 0 0 0 0 0 0 0 0 0 0 0 0 0 0 0 0 0 0 0 0 0 0 0 0
56 183 257 283 252 194 68 46 77 8 8 9 3 9 0 0 0 0 0 0 0 0 0 0 0 0 0 0 0 0 0 0 0 0 0 0 0 0 0 0 0 0 0
79 208 275 236 188 161 27 13 21 5 8 33 5 0 0 0 0 0 0 0 0 0 0 0 0 0 0 0 0 0 0 0 0 0 0 0 0 0 0 0 0 0 0
74 360 209 166 298 25 2 0 0 0 16 16 0 0 0 0 0 0 0 0 0 0 0 0 0 0 0 0 0 0 0 0 0 0 0 0 0 0 0 0 0 0 0
114 134 155 70 5 0 5 1 0 8 0 0 0 0 0 0 0 0 0 0 0 0 0 0 0 0 0 0 0 0 0 0 0 0 0 0 0 0 0 0 0 0 0
24 47 11 29 1 0 0 0 0 0 0 0 0 0 0 0 0 0 0 0 0 0 0 0 0 0 0 0 0 0 0 0 0 0 0 0 0 0 0 0 0 0 0
7 1 0 0 3 0 0 0 0 0 0 0 0 0 0 0 0 0 0 0 0 0 0 0 0 0 0 0 0 0 0 0 0 0 0 0 0 0 0 0 0 0 0
0 0 0 0 0 0 0 0 0 0 0 0 0 0 0 0 0 0 0 0 0 0 0 0 0 0 0 0 0 0 0 0 0 0 0 0 0 0 0 0 0 0 0

GFSMA_con_mucape_033.txt.gz
CAPE
226 225 202 156 111 9 0 0 0 0 0 0 0 0 0 0 0 0 0 0 0 0 0 0 0 0 0 0 0 0 0 0 0 0 0 1 1 0 0 2 2 2 1
199 208 202 131 66 0 0 0 0 0 0 0 0 0 0 0 0 0 0 0 0 0 0 0 0 0 0 0 0 0 0 0 0 0 0 0 0 0 0 0 0 0 2
93 187 212 139 66 24 0 0 0 0 0 0 0 0 0 0 0 0 0 0 0 0 0 0 0 0 0 0 0 0 0 0 0 0 0 0 0 0 0 0 0 0 0
19 50 87 91 52 44 0 0 0 0 0 0 0 0 0 0 0 0 0 0 0 0 0 0 0 0 0 0 0 0 0 0 0 0 0 0 0 0 0 0 0 0 0
34 19 1 19 40 41 0 0 0 0 0 0 0 0 0 0 0 0 0 0 0 0 0 0 0 0 0 0 0 0 0 0 0 0 0 0 0 0 0 0 0 0 0
200 121 2 0 15 22 0 0 0 0 0 0 0 0 0 0 0 0 0 0 0 0 0 0 0 0 0 0 0 0 0 0 0 0 0 0 0 0 0 0 0 0 0
520 336 57 31 8 58 45 0 0 2 1 0 0 0 0 0 0 0 0 0 0 0 0 0 0 0 0 0 0 0 0 0 0 0 0 0 0 0 0 0 0 0 0
713 588 154 64 96 107 42 2 4 5 2 0 0 0 0 0 0 0 0 0 0 0 0 0 0 0 0 0 0 0 0 0 0 0 0 0 0 0 0 0 0 23 23
839 748 458 147 150 146 35 10 4 30 51 0 0 0 0 0 0 0 0 0 0 0 0 0 0 0 0 0 0 0 0 0 0 0 0 0 0 0 0 0 0 8 30
870 818 719 404 239 215 83 56 36 10 22 13 0 0 0 0 0 0 0 0 0 0 0 0 0 0 0 0 0 0 0 0 0 0 0 0 0 0 0 0 0 0 0
726 782 766 633 537 384 178 92 67 60 76 81 6 0 0 0 0 0 0 0 0 0 0 0 0 0 0 0 0 0 0 0 0 0 0 0 0 0 0 0 0 0 0
618 655 695 686 688 598 278 224 153 134 229 161 57 10 5 4 0 0 0 0 0 0 0 0 0 0 0 0 0 0 0 0 0 0 0 0 0 0 0 0 0 0 0
422 663 692 648 625 602 480 262 224 225 239 190 178 72 21 11 12 3 0 0 0 0 0 0 0 0 0 0 0 0 0 0 0 0 0 0 0 0 0 0 0 0 0
399 346 493 613 724 544 426 398 272 273 270 192 185 137 77 28 44 2 1 0 0 2 0 0 0 0 0 0 0 0 0 0 0 0 0 0 0 0 0 0 0 0 0
389 402 397 423 550 529 415 294 260 324 214 206 171 111 150 77 23 0 13 0 0 0 0 0 0 0 0 0 0 0 0 0 0 0 0 0 0 0 0 0 0 0 0
320 364 385 344 309 442 494 407 288 204 217 156 131 102 65 27 21 9 13 0 2 0 0 0 0 0 0 0 0 0 0 0 0 0 0 0 0 0 0 0 0 0 0
138 180 268 376 342 315 411 405 358 179 2 109 103 105 56 43 26 0 9 0 2 0 0 2 0 0 0 0 0 0 0 0 0 0 0 0 0 0 0 0 0 0 0
176 146 139 143 92 310 275 326 277 295 159 118 44 84 22 0 7 0 2 2 4 0 0 0 0 0 0 0 0 0 0 0 0 0 0 0 0 0 0 0 0 0 0
242 208 161 119 137 152 252 188 184 239 168 49 51 57 11 8 2 0 0 0 0 0 0 0 0 0 0 0 0 0 0 0 0 0 0 0 0 0 0 0 0 0 0
234 155 109 69 91 267 198 183 177 214 74 50 70 91 44 1 0 0 0 0 0 0 0 0 0 0 0 0 0 0 0 0 0 0 0 0 0 0 0 0 0 0 0
144 208 84 105 165 255 272 295 135 123 49 37 0 14 2 2 0 0 3 0 0 0 0 0 0 0 0 0 0 0 0 0 0 0 0 0 0 0 0 0 0 0 0
330 268 151 154 153 252 204 138 175 95 27 32 1 0 0 0 0 0 0 0 0 0 0 0 0 0 0 0 0 0 0 0 0 0 0 0 0 0 0 0 0 0 0
291 232 155 184 106 143 113 34 0 0 0 0 0 0 0 0 0 0 0 0 0 0 0 0 0 0 0 0 0 0 0 0 0 0 0 0 0 0 0 0 0 0 0
123 93 113 132 73 4 0 3 0 1 2 0 0 0 0 0 0 0 0 0 0 0 0 0 0 0 0 0 0 0 0 0 0 0 0 0 0 0 0 0 0 0 0
7 10 5 5 2 2 7 0 0 0 0 0 0 0 0 0 0 0 0 0 0 0 0 0 0 0 0 0 0 0 0 0 0 0 0 0 0 0 0 0 0 0 0
4 0 0 0 0 0 0 0 0 0 0 0 0 0 0 0 0 0 0 0 0 0 0 0 0 0 0 0 0 0 0 0 0 0 0 0 0 0 0 0 0 0 0

GFSMA_con_mucape_036.txt.gz
CAPE
268 264 235 191 153 90 8 0 0 0 0 0 0 0 0 0 0 0 7 0 0 0 0 0 0 0 0 0 0 0 0 0 0 0 1 0 0 0 0 1 1 0 0
200 236 219 256 175 139 20 0 0 0 0 0 0 0 0 0 0 0 0 0 0 0 0 0 0 0 0 0 0 0 0 0 0 0 0 0 0 0 1 1 1 0 0
127 195 279 296 224 155 41 0 0 0 0 0 0 0 0 0 0 0 0 0 0 0 0 0 0 0 0 0 0 0 0 0 0 0 0 0 0 0 0 0 0 0 0
73 149 233 306 290 146 23 0 0 0 0 0 0 0 0 0 0 0 0 0 0 0 0 0 0 0 0 0 0 0 0 0 0 0 0 0 0 0 0 0 0 0 0
154 65 135 188 187 126 0 0 0 0 0 0 0 0 0 0 0 0 0 0 0 0 0 0 0 0 0 0 0 0 0 0 0 0 0 0 0 0 0 0 0 0 0
387 126 49 81 117 83 0 0 0 0 0 0 0 0 0 0 0 0 0 0 0 0 0 0 0 0 0 0 0 0 0 0 0 0 0 0 0 0 0 0 0 0 0
528 403 172 122 82 48 0 0 0 13 0 0 0 0 0 0 0 0 0 0 0 0 0 0 0 0 0 0 0 0 0 0 0 0 0 0 0 0 0 0 0 0 0
566 518 450 307 179 54 22 11 60 46 0 0 0 0 0 0 0 0 0 0 0 0 0 0 0 0 0 0 0 0 0 0 0 0 0 0 0 0 0 0 0 0 0
621 501 466 483 267 125 80 67 110 46 7 0 0 0 0 0 0 0 0 0 0 0 0 0 0 0 0 0 0 0 0 0 0 0 0 0 0 0 0 0 0 0 0
670 658 400 532 457 209 117 71 156 46 5 1 0 2 0 0 0 0 0 0 0 0 0 0 0 0 0 0 0 0 0 0 0 0 0 0 0 0 0 0 0 0 0
755 474 333 364 470 515 240 98 232 67 30 16 15 37 17 3 1 0 0 0 0 0 0 0 0 0 0 0 0 0 0 0 0 0 0 0 0 0 0 0 0 0 0
511 611 296 245 385 496 518 210 253 157 85 40 55 47 41 45 11 2 0 0 0 0 0 0 0 0 0 0 0 0 0 0 0 0 0 0 0 0 0 0 0 0 0
413 595 669 389 233 464 500 449 377 299 147 92 84 143 105 112 37 12 1 0 3 0 0 0 0 0 0 0 0 0 0 0 0 0 0 0 0 0 0 0 0 0 0
499 257 223 299 255 279 272 280 354 428 244 213 196 181 195 125 99 51 18 32 0 15 3 0 0 0 0 0 0 0 0 0 0 0 0 0 0 0 0 0 0 0 0
405 475 325 296 379 340 276 226 257 284 296 256 251 279 200 127 102 88 50 15 18 0 0 0 2 1 0 0 0 0 0 0 0 0 0 0 0 0 0 0 0 0 0
229 464 282 194 233 383 423 370 301 311 237 238 204 235 198 167 77 83 46 22 2 5 0 1 0 0 0 0 0 2 0 0 0 0 0 0 0 0 0 0 0 0 0
218 299 257 228 232 187 281 369 346 311 247 221 256 205 36 47 34 59 48 58 55 55 2 0 0 0 0 0 0 0 0 0 0 0 0 0 0 0 0 0 0 0 0
69 112 186 289 307 300 310 241 275 248 315 394 332 264 196 34 37 37 59 45 39 5 1 0 0 0 0 0 0 0 0 0 0 0 0 0 0 0 0 0 0 0 0
86 122 200 268 276 256 160 317 306 317 367 460 301 310 208 48 43 7 44 44 0 0 0 0 0 0 0 0 0 0 0 0 0 0 0 0 0 0 0 0 0 0 0
15 45 74 125 167 173 136 195 386 426 386 316 254 196 138 55 133 38 14 2 7 0 0 0 0 0 0 0 0 0 0 0 0 0 0 0 0 0 0 0 0 0 0
0 1 22 94 185 226 326 217 406 474 386 313 230 111 12 26 24 5 0 0 0 0 0 0 0 0 0 0 0 0 0 0 0 0 0 0 0 0 0 0 0 0 0
0 0 48 149 213 260 306 395 246 332 204 165 55 12 18 10 0 0 0 0 0 0 0 0 0 0 0 0 0 0 0 0 0 0 0 0 0 0 0 0 0 0 0
45 108 135 256 191 170 221 216 167 134 131 55 13 2 0 0 0 0 0 0 0 0 0 0 0 0 0 0 0 0 0 0 0 0 0 0 0 0 0 0 0 0 0
15 49 105 57 45 89 67 71 53 15 9 0 0 0 0 0 0 0 0 0 0 0 0 0 0 0 0 0 0 0 0 0 0 0 0 0 0 0 0 0 0 0 0
9 12 12 21 0 0 0 0 0 0 0 0 0 0 0 0 0 0 0 0 0 0 0 0 0 0 0 0 0 0 0 0 0 0 0 0 0 0 0 0 0 0 0
0 1 0 0 0 0 0 0 0 0 0 0 0 0 0 0 0 0 0 0 0 0 0 0 0 0 0 0 0 0 0 0 0 0 0 0 0 0 0 0 0 0 0

GFSMA_con_mucape_039.txt.gz
CAPE
244 174 109 97 59 39 41 2 0 0 0 0 0 0 0 0 0 0 1 0 0 0 0 0 0 0 0 0 0 0 0 0 0 1 0 0 0 0 1 2 2 2 2
168 325 214 247 187 112 54 6 0 0 0 0 0 0 0 0 0 0 0 0 0 0 0 0 0 0 0 0 0 0 0 0 0 0 0 0 0 0 0 0 0 0 0
104 106 161 230 219 179 97 19 0 0 0 0 0 0 0 0 0 0 0 0 0 0 0 0 0 0 0 0 0 0 0 0 0 0 0 0 0 0 0 0 0 0 0
103 114 177 278 177 466 160 55 0 0 0 0 0 0 0 0 0 0 0 0 0 0 0 0 0 0 0 0 0 0 0 0 0 0 0 0 0 0 0 0 0 0 0
123 108 172 280 226 208 142 86 0 0 0 0 0 0 0 0 0 0 0 0 0 0 0 0 0 0 0 0 0 0 0 0 0 0 0 0 0 0 0 0 0 0 0
456 293 162 169 264 303 102 55 0 0 0 0 0 0 0 0 0 0 0 0 0 0 0 0 0 0 0 0 0 0 0 0 0 0 0 0 0 0 0 0 0 0 0
723 591 405 218 222 236 185 42 0 0 0 0 0 0 0 0 0 0 0 0 0 0 0 0 0 0 0 0 0 0 0 0 0 0 0 0 0 0 0 0 0 0 0
1112 911 671 458 256 245 196 53 18 0 0 0 4 0 0 0 0 0 0 0 0 0 0 0 0 0 0 0 0 0 0 0 0 0 0 0 0 0 0 0 0 0 0
1276 919 863 707 507 324 256 129 65 33 26 12 53 1 0 0 0 0 0 0 0 0 0 0 0 0 0 0 0 0 0 0 0 0 0 0 0 0 0 0 0 0 0
819 1012 834 732 622 404 272 206 88 78 52 57 68 19 2 0 0 0 0 0 0 0 0 0 0 0 0 0 0 0 0 0 0 0 0 0 0 0 0 0 0 0 0
536 618 841 948 597 440 340 192 139 112 89 74 150 43 9 1 3 0 0 0 0 0 0 0 0 0 0 0 0 0 0 0 0 0 0 0 0 0 0 0 0 0 0
846 419 647 684 780 439 340 268 206 148 161 105 157 57 26 13 16 29 4 0 0 6 0 0 0 0 0 0 0 0 0 0 0 0 0 0 0 0 0 0 0 0 0
754 432 539 896 993 798 692 417 209 168 232 151 202 192 92 37 43 60 66 11 0 0 0 0 0 0 0 0 0 0 0 0 0 0 0 0 0 0 0 0 0 0 0
304 548 392 213 579 498 646 677 466 217 210 274 221 265 222 146 139 77 70 72 22 3 1 5 13 0 1 1 0 0 0 0 0 0 0 0 0 0 0 0 0 0 0
34 165 383 374 412 614 534 533 707 537 258 282 268 257 255 245 202 160 170 141 177 39 11 0 11 4 1 1 1 0 0 0 0 0 0 0 0 0 0 0 0 0 0
5 75 172 211 347 589 681 674 645 318 248 275 219 180 157 161 226 205 101 90 8 9 16 3 7 4 1 2 4 6 2 2 3 0 0 0 0 0 0 0 0 0 0
1 5 115 245 212 196 300 432 442 378 222 105 158 181 104 118 135 179 20 6 0 0 0 12 0 7 4 2 1 0 0 0 0 0 0 0 0 0 0 0 0 0 0
2 3 1 59 121 164 218 218 162 190 147 64 119 140 165 201 247 222 162 1 4 0 0 0 1 0 0 0 0 0 0 0 0 0 0 0 0 0 0 0 0 0 0
0 0 0 20 128 153 161 161 173 164 172 105 95 117 269 375 348 273 178 110 63 13 8 2 4 1 0 0 0 0 0 0 0 0 0 0 0 0 0 0 0 0 0
0 0 0 0 4 14 53 123 135 190 191 137 119 150 364 311 330 140 45 31 12 0 2 0 0 2 0 0 0 0 0 0 0 0 0 0 0 0 0 0 0 0 0
0 0 0 0 0 0 14 18 50 193 229 253 440 342 306 192 124 36 10 6 0 2 2 0 0 0 0 0 0 2 0 0 0 0 0 0 0 0 0 0 0 0 0
0 0 0 0 0 0 3 45 106 218 181 241 299 422 228 16 0 3 27 2 1 1 0 0 0 0 0 0 0 0 0 0 0 0 0 0 0 0 0 0 0 0 0
2 1 0 3 5 8 40 57 107 92 156 168 132 87 37 26 0 4 2 0 0 0 0 0 0 0 0 0 0 0 0 0 0 0 0 0 0 0 0 0 0 0 0
2 7 5 5 15 9 4 12 26 31 59 40 26 7 0 0 0 0 0 0 0 0 0 0 0 0 0 0 0 0 0 0 0 0 0 0 0 0 0 0 0 0 0
4 0 0 0 0 1 0 0 0 0 0 1 0 0 0 0 0 0 0 0 0 0 0 0 0 0 0 0 0 0 0 0 0 0 0 0 0 0 0 0 0 0 0
0 0 0 0 0 0 0 0 0 0 0 0 0 0 0 0 0 0 0 0 0 0 0 0 0 0 0 0 0 0 0 0 0 0 0 0 0 0 0 0 0 0 0

GFSMA_con_mucape_042.txt.gz
CAPE
52 47 25 29 16 56 42 60 0 0 0 0 0 0 0 0 0 0 0 0 0 0 0 0 0 0 0 0 0 0 0 0 1 0 0 0 1 0 1 1 1 1 1
91 62 54 49 41 32 24 22 8 0 0 0 0 0 0 0 0 0 0 0 0 0 0 0 0 0 0 0 0 0 0 0 0 0 0 0 0 0 0 0 0 0 0
58 109 71 81 67 46 52 30 8 0 0 0 0 0 0 0 0 0 0 0 0 0 0 0 0 0 0 0 0 0 0 0 0 0 0 0 0 0 0 0 0 0 0
21 50 80 70 116 100 62 61 14 0 0 0 0 0 0 0 0 0 0 0 0 0 0 0 0 0 0 0 0 0 0 0 0 0 0 0 0 0 0 0 0 0 0
132 46 41 54 127 121 88 100 109 13 0 0 0 0 0 0 0 0 0 0 0 0 0 0 0 0 0 0 0 0 0 0 0 0 0 0 0 0 0 0 0 0 0
351 218 109 73 136 112 117 76 67 48 2 0 0 0 0 0 0 0 0 0 0 0 0 0 0 0 0 0 0 0 0 0 0 0 0 0 0 0 0 0 0 0 0
555 427 249 210 91 142 144 121 67 55 0 0 0 0 0 0 0 0 0 0 0 0 0 0 0 0 0 0 0 0 0 0 0 0 0 0 0 0 0 0 0 0 0
817 708 457 280 231 116 193 208 88 81 56 7 0 1 0 0 0 0 0 0 0 0 0 0 0 0 0 0 0 0 0 0 0 0 0 0 0 0 0 0 0 0 0
510 846 736 515 359 254 174 167 170 146 109 40 14 16 7 1 24 1 0 0 0 0 0 0 0 0 0 0 0 0 0 0 0 0 0 0 0 0 0 0 0 0 0
386 488 704 797 852 461 202 168 187 197 169 120 54 38 42 17 40 10 1 5 8 0 0 0 0 0 0 0 0 0 0 0 0 0 0 0 0 0 0 0 0 0 0
704 699 578 773 617 746 623 270 271 206 194 194 144 90 62 44 80 44 21 6 0 6 6 0 0 0 0 0 0 0 0 0 0 0 0 0 0 0 0 0 0 0 0
166 580 614 470 432 723 817 638 691 306 193 149 140 178 119 97 104 94 60 31 7 11 4 0 0 0 0 1 0 0 0 0 0 0 0 0 0 0 0 0 0 0 0
92 344 382 511 272 272 612 671 767 555 440 266 156 151 178 177 107 226 104 49 36 104 46 11 6 10 3 1 0 0 0 0 0 0 0 0 0 0 0 0 0 0 0
18 68 146 249 392 333 407 567 659 669 532 563 514 449 207 192 239 181 247 150 138 121 107 6 0 0 3 0 0 0 1 1 11 10 3 6 7 0 0 0 0 0 0
0 0 49 63 228 337 390 506 502 593 563 532 442 560 385 91 201 206 241 189 247 156 99 5 9 5 6 4 7 4 3 3 4 7 5 1 1 1 0 0 0 0 0
0 0 0 12 46 71 171 370 487 584 623 500 391 445 344 205 160 123 167 146 126 168 111 47 0 0 3 3 1 2 2 4 4 2 1 1 0 0 0 0 0 0 0
0 0 0 0 0 2 86 225 333 397 532 498 385 331 291 294 118 93 130 177 162 81 61 4 0 0 0 1 4 0 3 5 1 0 0 0 0 0 0 0 0 0 0
0 0 0 2 5 4 9 92 75 110 185 265 186 145 104 54 60 75 108 197 153 126 137 29 0 0 0 0 0 0 1 4 0 1 0 0 0 0 0 0 0 0 0
0 0 0 0 0 0 1 1 7 6 43 173 161 80 107 98 79 102 152 248 116 70 35 113 13 2 0 0 0 0 5 3 3 0 0 0 0 0 0 0 0 0 0
0 0 0 0 0 0 0 0 0 0 0 12 82 102 88 136 154 213 230 119 81 79 19 0 5 15 0 0 0 1 0 0 0 0 0 0 0 0 0 0 0 0 0
0 0 0 0 0 0 0 0 0 0 0 1 4 19 2 151 233 198 158 114 100 18 5 0 0 0 0 0 0 0 0 0 0 0 0 0 0 0 0 0 0 0 0
0 0 0 0 0 0 0 0 0 0 0 2 5 0 5 67 113 108 77 28 4 0 2 0 0 0 0 0 0 0 0 0 0 0 0 0 0 0 0 0 0 0 0
0 0 0 3 1 1 2 5 7 12 12 22 8 27 31 5 7 15 7 0 1 0 0 0 0 0 0 0 0 0 0 0 0 0 0 0 0 0 0 0 0 0 0
0 0 0 0 0 0 0 11 4 0 0 0 0 1 0 0 0 0 0 0 0 0 0 0 0 0 0 0 0 0 0 0 0 0 0 0 0 0 0 0 0 0 0
0 0 0 0 0 0 0 0 0 0 0 0 0 0 0 0 0 0 0 0 0 0 0 0 0 0 0 0 0 0 0 0 0 0 0 0 0 0 0 0 0 0 0
0 0 0 0 0 0 0 0 0 0 0 0 0 0 0 0 0 0 0 0 0 0 0 0 0 0 0 0 0 0 0 0 0 0 0 0 0 0 0 0 0 0 0

GFSMA_con_mucape_045.txt.gz
CAPE
9 15 25 15 19 55 64 38 18 0 0 0 0 0 0 0 0 0 0 0 0 0 0 0 0 0 1 0 0 1 0 2 0 0 1 1 1 0 0 0 1 1 1
0 3 35 36 35 43 50 76 60 16 0 0 0 0 0 0 0 0 0 0 0 0 0 0 0 0 2 0 0 0 0 0 0 0 0 0 0 0 0 0 0 0 0
0 16 20 49 42 38 30 25 25 13 4 0 0 0 0 0 0 0 0 0 0 0 0 0 0 0 3 0 0 0 0 0 0 0 0 0 0 0 0 0 0 0 0
19 43 75 102 78 19 59 51 23 22 28 1 0 0 0 0 0 0 0 0 0 0 0 0 0 0 0 2 0 0 0 0 0 0 0 0 0 0 0 0 0 0 0
172 58 39 107 109 118 102 99 56 45 26 19 0 0 0 0 0 0 0 0 0 0 0 0 0 0 0 0 0 0 0 0 0 0 0 0 0 0 0 0 0 0 0
327 277 197 104 52 103 132 127 101 47 35 33 33 0 0 0 0 0 0 0 0 0 0 0 0 0 0 0 0 0 0 0 0 0 0 0 0 0 0 0 0 0 0
278 363 341 288 156 106 168 171 146 92 75 53 61 14 0 0 0 0 0 0 0 0 0 0 0 0 0 0 0 0 0 0 0 0 0 0 0 0 0 0 0 0 0
310 421 259 401 345 213 154 195 206 188 130 102 106 62 3 0 0 0 0 0 5 0 0 0 0 0 0 0 0 0 0 0 0 0 0 0 0 0 0 0 0 0 0
229 205 253 251 431 443 278 204 234 218 168 141 137 99 21 3 2 11 7 18 47 6 1 6 9 0 0 0 0 0 0 0 0 0 0 0 0 0 0 0 0 0 0
282 287 217 201 318 393 552 344 265 255 269 193 140 94 70 41 35 10 21 31 57 30 19 22 18 0 0 0 0 0 0 0 0 0 0 0 0 0 0 0 0 0 0
473 505 421 315 303 396 372 597 558 451 185 205 213 152 75 75 53 51 49 45 53 52 55 30 7 0 2 0 0 0 0 0 0 0 0 0 0 0 0 0 0 0 0
0 213 423 507 584 349 420 536 531 544 494 308 222 245 197 195 139 65 61 62 60 74 80 62 32 17 16 3 0 0 0 1 0 0 4 0 0 0 0 0 0 0 0
0 1 23 225 304 340 211 175 441 452 514 475 427 369 358 332 234 248 259 106 62 51 68 77 57 77 69 11 0 1 0 3 0 0 0 0 0 5 0 7 4 6 0
0 0 2 2 27 68 114 254 245 293 372 413 433 448 449 347 285 224 201 141 111 127 139 63 60 54 32 100 23 6 5 6 8 0 1 5 1 1 0 1 5 3 1
0 0 0 0 11 30 67 84 114 119 177 261 285 354 312 346 374 307 200 184 151 65 75 51 37 2 23 5 2 6 2 1 1 1 1 0 1 1 1 5 4 0 0
0 0 0 0 0 0 0 32 79 87 113 180 278 320 408 591 418 361 164 83 110 126 54 7 2 0 4 1 0 1 1 0 1 1 0 0 0 3 5 4 5 0 0
0 0 0 0 0 0 0 0 0 12 20 15 56 212 324 417 423 352 68 1 6 96 61 18 65 36 2 0 0 0 2 7 2 1 0 0 0 2 0 4 0 0 0
0 0 0 0 0 0 1 1 2 4 3 2 9 13 51 261 36 5 22 21 15 30 69 26 20 3 13 1 6 0 1 0 6 1 2 0 1 0 0 0 0 0 0
0 0 0 0 0 0 0 0 0 0 0 0 0 2 2 6 0 0 0 13 38 66 66 57 1 23 1 0 0 2 2 0 6 1 0 0 0 0 0 0 0 0 0
0 0 0 0 0 0 0 0 0 0 0 0 0 0 0 1 5 15 12 5 31 87 79 39 4 1 1 0 2 0 0 0 0 0 0 0 0 0 0 0 0 0 0
0 0 0 0 0 0 0 0 0 0 0 0 0 0 0 5 1 3 2 37 19 60 51 20 1 0 0 0 0 0 0 0 0 0 0 0 0 0 0 0 0 0 0
0 0 0 0 0 0 0 0 0 0 0 0 0 0 0 0 0 0 1 0 21 14 3 4 0 0 0 0 0 0 0 0 0 0 0 0 0 0 0 0 0 0 0
0 0 0 0 0 0 0 0 0 0 0 0 0 0 0 0 0 1 0 1 4 0 0 0 0 0 0 0 0 0 0 0 0 0 0 0 0 0 0 0 0 0 0
0 0 0 0 0 0 0 0 0 0 0 0 0 0 0 0 0 0 0 0 0 0 0 0 0 0 0 0 0 0 0 0 0 0 0 0 0 0 0 0 0 0 0
0 0 0 0 0 0 0 0 0 0 0 0 0 0 0 0 0 0 0 0 0 0 0 0 0 0 0 0 0 0 0 0 0 0 0 0 0 0 0 0 0 0 0
0 0 0 0 0 0 0 0 0 0 0 0 0 0 0 0 0 0 0 0 0 0 0 0 0 0 0 0 0 0 0 0 0 0 0 0 0 0 0 0 0 0 0

GFSMA_con_mucape_048.txt.gz
CAPE
6 4 14 15 16 41 51 35 27 12 0 0 0 0 0 0 0 1 43 45 75 39 0 0 0 2 0 0 1 1 3 0 0 0 1 1 1 0 1 1 2 2 3
20 0 1 18 24 5 20 18 20 25 7 0 0 0 0 0 0 1 17 5 25 47 0 0 0 1 1 0 2 1 2 0 0 0 0 0 0 0 0 0 0 0 0
86 19 0 0 19 23 25 18 30 41 37 22 18 0 0 0 0 0 6 3 0 0 0 0 0 0 0 0 3 1 0 0 0 0 0 0 0 0 0 0 0 0 0
67 17 0 0 0 31 56 24 20 38 39 13 28 24 6 0 0 0 0 0 0 0 0 0 0 0 0 0 0 0 0 0 0 0 0 0 0 0 0 0 0 0 0
171 62 32 9 7 55 84 43 42 70 69 18 16 24 9 0 0 0 0 0 0 0 0 0 0 0 0 0 0 0 0 0 0 0 0 0 0 0 0 0 0 0 0
224 142 162 217 135 74 84 86 95 108 130 105 35 24 3 18 0 0 0 0 0 0 0 0 0 0 0 0 0 0 0 0 0 0 0 0 0 0 0 0 0 0 0
364 193 153 218 227 186 184 149 132 135 144 162 100 31 29 0 8 0 0 0 0 0 0 0 10 0 0 0 0 0 0 0 0 0 0 0 0 0 0 0 0 0 0
262 310 205 128 193 217 165 233 195 163 200 189 149 84 66 2 18 57 12 0 1 1 8 25 37 1 0 1 0 0 0 0 0 0 0 0 0 0 0 0 0 0 0
437 329 203 134 143 186 188 116 259 252 218 211 257 138 35 3 6 11 18 8 16 19 30 38 44 20 2 21 8 0 0 0 0 0 0 0 0 0 0 0 0 0 0
230 279 275 191 135 86 103 201 288 291 272 183 190 218 156 64 34 6 7 34 36 30 34 38 43 46 46 41 23 0 0 0 0 0 0 0 0 0 0 0 0 0 0
0 0 60 286 250 104 88 140 204 207 218 290 357 135 20 79 147 117 22 39 62 64 32 12 17 28 49 27 7 0 0 0 0 0 0 0 0 0 0 0 0 0 0
0 0 0 14 161 220 182 100 80 79 141 192 218 285 362 158 165 158 130 54 51 28 65 43 36 22 33 35 23 5 1 0 0 0 0 0 0 9 0 1 0 0 0
0 0 0 0 6 150 220 42 53 71 66 53 81 129 166 262 306 315 174 94 18 19 35 45 44 33 28 53 29 18 3 1 1 0 0 5 1 0 5 1 1 0 1
0 0 0 0 0 0 15 24 29 108 100 84 65 50 73 74 69 178 157 128 123 14 6 2 8 40 26 42 12 27 9 8 1 1 0 1 2 0 0 1 0 1 1
0 0 0 0 0 0 0 0 14 29 28 40 58 62 88 63 78 96 110 235 267 129 10 4 13 2 29 3 2 3 2 1 10 1 0 1 0 0 0 0 1 1 1
0 0 0 0 0 0 0 0 0 0 1 3 6 71 65 53 49 53 109 235 327 288 148 13 0 23 14 4 1 0 0 4 1 0 0 0 0 0 0 1 1 0 0
0 0 0 0 0 0 0 0 0 0 0 0 0 1 2 4 12 14 12 26 32 90 64 63 1 1 8 2 4 1 0 0 0 0 0 0 0 0 0 5 5 0 2
0 0 0 0 0 0 0 0 0 0 1 1 3 2 3 5 4 5 3 14 15 7 5 0 16 0 0 0 0 0 0 0 0 0 5 0 0 0 5 1 0 0 0
0 0 0 0 0 0 0 0 0 0 0 0 0 0 0 1 0 2 3 0 0 0 2 0 3 9 3 0 0 0 0 0 0 1 1 0 0 2 0 0 0 0 0
0 0 0 0 0 0 0 0 0 0 0 0 0 0 0 0 0 0 0 0 0 2 0 0 8 14 6 0 0 1 2 0 0 0 0 5 0 0 0 0 0 0 0
0 0 0 0 0 0 0 0 0 0 0 0 0 0 0 0 0 0 0 0 0 0 0 2 16 6 8 0 0 2 0 0 0 0 0 0 0 0 0 0 0 0 0
0 0 0 0 0 0 0 0 0 0 0 0 0 0 0 0 0 0 0 0 0 0 0 0 0 0 0 0 3 0 3 0 0 0 0 0 0 0 0 0 0 0 0
0 0 0 0 0 0 0 0 0 0 0 0 0 0 0 0 0 0 0 0 0 0 0 0 0 0 0 0 0 0 0 0 0 0 0 0 0 0 0 0 0 0 0
0 0 0 0 0 0 0 0 0 0 0 0 0 0 0 0 0 0 0 0 0 0 0 0 0 0 0 0 0 0 0 0 0 0 0 0 0 0 0 0 0 0 0
0 0 0 0 0 0 0 0 0 0 0 0 0 0 0 0 0 0 0 0 0 0 0 0 0 0 0 0 0 0 0 0 0 0 0 0 0 0 0 0 0 0 0
0 0 0 0 0 0 0 0 0 0 0 0 0 0 0 0 0 0 0 0 0 0 0 0 0 0 0 0 0 0 0 0 0 0 0 0 0 0 0 0 0 0 0

GFSMA_con_mucape_051.txt.gz
CAPE
0 0 0 0 18 61 69 41 22 20 10 0 0 0 0 0 0 0 49 151 145 176 80 0 0 0 0 0 0 1 2 0 1 2 2 2 2 2 2 1 2 2 2
0 0 0 0 0 13 20 27 17 6 10 1 0 0 0 0 0 0 11 67 62 140 100 1 1 2 0 0 0 0 2 2 0 2 1 0 0 0 0 0 1 2 2
0 17 0 0 0 11 14 16 0 0 0 9 7 0 1 0 0 0 0 17 45 42 79 18 10 3 0 0 0 0 4 4 0 0 0 0 0 0 0 0 0 0 0
46 19 41 28 0 0 0 18 28 4 0 0 19 1 0 3 1 0 0 1 21 22 5 87 94 9 7 0 0 0 0 6 0 0 0 0 0 0 0 0 0 0 0
44 103 99 69 17 7 0 0 23 36 17 4 26 59 31 15 3 0 0 0 0 7 0 0 17 29 18 0 0 0 0 0 0 0 0 0 0 0 0 0 0 0 0
147 99 146 155 96 112 125 59 19 30 24 76 73 70 80 16 11 0 0 4 3 0 0 0 0 0 0 14 0 0 0 0 0 0 0 0 0 0 0 0 0 0 0
374 242 238 215 178 94 114 155 152 131 124 119 131 98 95 56 0 11 25 22 57 49 2 0 7 18 8 0 10 0 0 0 2 1 0 0 0 0 0 0 0 0 0
332 309 244 173 155 115 104 128 183 166 157 152 111 101 26 0 0 21 35 46 27 53 17 17 29 40 51 42 33 0 3 0 0 0 0 0 0 0 0 0 0 0 0
551 425 319 283 166 141 117 126 167 202 179 130 171 98 34 2 0 0 1 0 3 18 17 28 30 36 40 31 39 21 5 20 0 0 9 6 0 0 0 0 0 0 0
0 19 109 183 225 223 150 101 67 64 120 146 165 226 123 87 55 6 0 1 6 43 33 38 32 28 21 22 31 67 21 25 6 0 1 6 3 0 0 0 0 0 0
0 0 0 0 0 153 213 76 52 53 77 132 44 95 142 119 113 35 31 2 24 53 42 38 27 31 21 38 55 50 53 9 3 0 0 0 0 0 0 0 0 0 0
0 0 0 0 1 1 114 169 121 95 82 66 62 101 103 47 64 67 58 39 14 8 22 30 9 0 6 3 19 26 5 9 3 4 4 0 37 0 0 0 0 0 0
0 0 0 0 0 0 12 93 109 70 62 61 59 49 40 44 71 51 29 16 15 5 5 8 12 29 12 20 35 4 3 5 4 5 0 1 0 0 0 0 0 2 0
0 0 0 0 0 0 3 23 68 70 63 71 56 35 28 1 3 16 57 24 24 9 4 3 0 12 1 35 13 0 0 1 1 2 2 1 1 0 0 0 0 0 0
0 0 0 0 0 0 0 1 19 20 36 39 21 19 20 28 17 12 15 20 22 11 4 9 6 12 56 14 2 1 1 0 0 1 1 1 0 0 0 1 0 0 0
0 0 0 0 0 0 0 0 0 0 0 0 1 0 14 0 6 29 29 31 24 11 13 4 3 14 5 5 0 0 0 0 5 1 7 0 0 0 0 0 0 0 0
0 0 0 0 0 0 0 0 0 0 0 0 0 0 1 0 3 3 9 5 8 4 1 2 3 1 0 2 0 0 0 1 0 3 2 1 0 2 0 0 0 0 0
0 0 0 0 0 0 0 0 0 0 0 0 0 2 0 0 0 0 3 2 3 3 2 4 0 0 0 0 1 0 0 0 7 0 0 0 0 0 0 0 1 0 0
0 0 0 0 0 0 0 0 0 0 0 0 0 0 0 0 0 0 0 0 0 0 0 0 0 0 0 0 0 1 0 0 0 0 0 0 1 5 0 0 0 0 0
0 0 0 0 0 0 0 0 0 0 0 0 0 0 0 0 0 0 0 0 0 0 0 0 0 0 0 0 0 1 0 0 2 7 7 6 4 0 0 0 0 0 0
0 0 0 0 0 0 0 0 0 0 0 0 0 0 0 0 0 0 0 0 0 0 0 0 0 0 0 0 0 0 0 6 3 0 0 0 0 0 0 0 0 0 0
0 0 0 0 0 0 0 0 0 0 0 0 0 0 0 0 0 0 0 0 0 0 0 0 0 0 0 0 0 0 0 0 0 0 0 0 0 0 0 0 0 0 0
0 0 0 0 0 0 0 0 0 0 0 0 0 0 0 0 0 0 0 0 0 0 0 0 0 0 0 0 0 0 0 0 0 0 0 0 0 0 0 0 0 0 0
0 0 0 0 0 0 0 0 0 0 0 0 0 0 0 0 0 0 0 0 0 0 0 0 0 0 0 0 0 0 0 0 0 0 0 0 0 0 0 0 0 0 0
0 0 0 0 0 0 0 0 0 0 0 0 0 0 0 0 0 0 0 0 0 0 0 0 0 0 0 0 0 0 0 0 0 0 0 0 0 0 0 0 0 0 0
0 0 0 0 0 0 0 0 0 0 0 0 0 0 0 0 0 0 0 0 0 0 0 0 0 0 0 0 0 0 0 0 0 0 0 0 0 0 0 0 0 0 0

GFSMA_con_mucape_054.txt.gz
CAPE
0 0 0 0 0 13 30 31 12 4 8 0 0 0 0 0 0 0 0 36 192 281 137 76 0 0 0 0 0 0 0 0 0 1 2 2 1 2 4 5 5 4 5
0 0 0 0 0 0 1 11 1 0 0 0 0 0 0 0 0 0 0 0 116 129 232 82 17 3 6 0 0 0 0 0 2 3 2 2 0 1 2 2 4 5 6
0 0 0 0 0 0 0 0 0 10 0 0 0 0 0 0 0 0 0 0 11 60 111 92 44 27 10 4 0 0 0 0 6 5 3 0 0 0 0 0 0 2 5
0 4 11 28 32 3 0 0 0 2 27 19 0 0 0 2 3 9 2 0 0 3 37 144 184 84 34 8 7 0 0 0 0 6 5 0 0 0 0 0 0 0 0
12 17 30 53 59 40 23 42 40 20 12 27 33 22 27 40 67 62 45 24 12 12 7 17 25 72 116 15 12 15 0 0 0 0 4 2 0 0 0 0 0 0 0
33 80 104 107 109 143 131 98 107 115 115 93 50 46 61 73 64 53 49 36 29 33 19 37 13 0 0 92 4 10 0 0 0 0 0 2 0 0 0 0 0 0 0
204 229 280 274 205 205 192 173 142 115 105 122 84 28 38 61 35 66 144 121 88 65 64 46 42 10 0 11 94 3 0 6 0 0 0 0 2 0 0 0 0 0 0
421 311 257 319 283 166 169 129 127 92 68 92 95 69 63 0 0 0 0 0 1 20 28 22 16 7 8 6 5 56 35 35 24 3 6 0 2 4 0 0 0 0 0
569 547 495 445 406 253 153 151 106 123 64 43 89 82 32 9 4 1 1 0 7 0 4 36 18 29 17 16 14 16 40 60 32 55 29 4 0 16 15 16 0 0 0
0 0 1 11 70 127 174 215 215 150 97 50 11 17 33 43 38 22 20 12 7 0 1 1 11 32 16 31 27 67 78 54 65 27 7 9 0 48 45 35 30 9 0
0 0 0 0 0 0 0 13 156 130 80 48 38 46 115 23 6 48 22 9 6 6 2 5 2 5 32 27 0 30 104 84 14 11 1 7 10 1 84 81 62 41 5
0 0 0 0 0 1 3 1 21 135 135 93 80 105 37 22 21 22 15 20 5 8 3 8 5 4 4 4 30 27 46 24 16 20 1 117 70 1 41 89 38 0 0
0 0 0 0 0 0 1 1 23 89 102 102 90 63 55 59 35 17 12 10 9 3 7 3 4 3 0 0 0 0 1 8 70 18 86 93 32 91 0 0 0 0 1
0 0 0 0 0 0 0 0 17 52 90 70 121 126 83 45 23 19 34 16 15 3 1 6 7 1 2 1 3 0 4 24 2 12 92 125 1 39 0 0 0 0 1
0 0 0 0 0 0 0 1 11 47 32 33 25 41 26 46 1 6 19 9 3 14 0 2 4 4 0 1 8 2 1 0 0 3 1 0 0 0 0 0 0 0 0
0 0 0 0 0 0 0 0 0 0 1 3 1 6 14 16 5 15 4 4 4 3 3 2 6 7 1 2 0 0 0 0 0 0 3 1 0 0 0 0 0 0 0
0 0 0 0 0 0 0 0 0 0 0 0 0 0 0 1 1 0 1 1 2 2 0 1 0 0 0 0 0 0 0 0 0 1 0 0 0 0 0 0 0 0 0
0 0 0 0 0 0 0 0 0 0 0 0 0 0 0 0 0 0 0 0 0 0 0 0 0 0 0 0 0 0 0 0 0 0 0 0 0 0 0 0 0 0 0
0 0 0 0 0 0 0 0 0 0 0 0 0 0 0 0 0 0 0 0 0 0 0 0 0 0 0 0 0 0 0 0 0 0 0 0 0 0 0 0 0 0 0
0 0 0 0 0 0 0 0 0 0 0 0 0 0 0 0 0 0 0 0 0 0 0 0 0 0 0 0 0 0 0 0 0 0 0 0 0 0 0 0 0 0 0
0 0 0 0 0 0 0 0 0 0 0 0 0 0 0 0 0 0 0 0 0 0 0 0 0 0 0 0 0 0 0 0 0 0 0 0 1 1 0 0 0 0 0
0 0 0 0 0 0 0 0 0 0 0 0 0 0 0 0 0 0 0 0 0 0 0 0 0 0 0 0 0 0 0 0 0 0 0 0 0 0 0 0 0 0 0
0 0 0 0 0 0 0 0 0 0 0 0 0 0 0 0 0 0 0 0 0 0 0 0 0 0 0 0 0 0 0 0 0 0 0 0 0 0 0 0 0 0 0
0 0 0 0 0 0 0 0 0 0 0 0 0 0 0 0 0 0 0 0 0 0 0 0 0 0 0 0 0 0 0 0 0 0 0 0 0 0 0 0 0 0 0
0 0 0 0 0 0 0 0 0 0 0 0 0 0 0 0 0 0 0 0 0 0 0 0 0 0 0 0 0 0 0 0 0 0 0 0 0 0 0 0 0 0 0
0 0 0 0 0 0 0 0 0 0 0 0 0 0 0 0 0 0 0 0 0 0 0 0 0 0 0 0 0 0 0 0 0 0 0 0 0 0 0 0 0 0 0

GFSMA_con_mucape_057.txt.gz
CAPE
0 0 0 0 2 13 19 28 12 0 0 0 0 0 0 0 0 0 0 0 7 287 295 82 56 2 0 0 0 0 0 0 0 1 2 2 0 2 2 4 4 5 7
0 0 0 0 0 0 0 3 0 0 0 0 0 0 0 0 0 0 0 0 0 79 211 153 86 19 11 6 3 0 0 0 0 1 3 2 0 1 3 3 2 4 6
0 0 0 0 0 0 0 0 0 0 0 0 0 0 0 0 0 0 0 0 0 0 62 189 121 65 24 11 11 3 0 0 0 0 3 2 1 0 0 2 2 3 6
0 0 0 0 0 0 0 0 0 0 0 0 0 0 8 8 13 23 42 45 22 0 0 71 222 188 111 62 15 16 1 0 0 0 0 5 3 1 0 0 0 0 0
0 0 0 15 28 25 17 9 10 14 30 31 37 42 37 46 53 48 52 55 39 29 14 4 27 126 262 133 68 22 23 0 0 0 0 0 4 2 0 0 0 0 0
44 0 0 63 67 48 52 95 134 136 88 91 55 42 56 59 54 56 98 121 119 85 59 20 17 20 3 159 103 60 41 0 0 1 0 0 0 4 3 0 0 0 0
141 149 157 177 183 208 198 143 125 87 75 53 47 20 0 0 0 40 8 0 28 63 57 28 6 0 0 4 201 140 76 64 38 2 6 4 0 0 5 6 0 0 0
283 292 349 350 255 253 291 241 165 137 90 110 57 39 4 0 0 0 0 0 0 0 0 0 0 2 15 0 0 150 196 102 91 90 50 0 13 2 0 15 19 20 0
369 375 428 415 390 345 314 340 295 146 104 82 115 49 16 4 2 2 3 2 3 2 0 0 0 0 0 0 10 0 4 161 104 37 112 103 0 19 23 4 32 39 35
13 23 19 7 284 59 78 258 155 175 157 85 57 4 8 7 22 31 10 6 11 2 7 1 1 1 3 7 17 8 11 10 83 121 62 65 151 60 0 0 2 62 59
0 0 0 0 0 1 4 5 4 106 20 100 144 26 9 35 23 32 18 9 0 9 2 3 0 4 4 4 4 5 1 22 0 90 169 169 283 171 9 76 119 88 93
0 0 0 0 0 1 1 2 3 3 4 98 86 51 30 36 16 24 22 18 0 1 1 1 0 1 0 1 2 1 1 9 7 29 154 265 296 237 192 168 154 121 89
0 0 0 0 0 0 0 2 3 2 3 3 71 84 88 98 52 48 9 1 6 3 0 0 0 0 2 4 2 0 1 4 5 3 71 227 401 272 129 92 102 145 96
0 0 0 0 0 0 0 0 1 6 39 23 77 75 86 29 46 32 11 2 0 5 5 0 1 1 0 1 0 0 0 0 0 0 1 68 223 200 139 59 80 69 11
0 0 0 0 0 0 0 0 1 1 10 34 55 35 18 11 16 16 15 4 10 4 1 5 0 0 0 0 1 0 0 0 0 0 0 0 4 11 21 61 0 0 0
0 0 0 0 0 0 0 0 2 2 2 4 10 1 5 0 1 3 8 7 4 6 0 2 0 0 1 0 0 0 0 0 0 0 0 1 0 3 0 0 0 0 0
0 0 0 0 0 0 0 0 0 0 0 0 1 0 0 0 1 2 1 0 1 1 0 0 0 0 0 0 0 0 0 0 0 0 0 0 0 1 0 0 0 0 0
0 0 0 0 0 0 0 0 0 0 0 0 0 0 0 0 0 0 0 0 0 0 0 0 0 0 0 0 0 0 0 0 0 0 0 0 0 0 0 0 0 0 0
0 0 0 0 0 0 0 0 0 0 0 0 0 0 0 0 0 0 0 0 0 0 0 0 0 0 0 0 0 0 0 0 0 0 0 0 0 0 0 0 0 0 0
0 0 0 0 0 0 0 0 0 0 0 0 0 0 0 0 0 0 0 0 0 0 0 0 0 0 0 0 0 0 0 0 0 0 0 0 0 0 0 0 0 0 0
0 0 0 0 0 0 0 0 0 0 0 0 0 0 0 0 0 0 0 0 0 0 0 0 0 0 0 0 0 0 0 0 0 0 0 0 0 0 0 0 0 0 0
0 0 0 0 0 0 0 0 0 0 0 0 0 0 0 0 0 0 0 0 0 0 0 0 0 0 0 0 0 0 0 0 0 0 0 0 0 0 0 0 0 0 0
0 0 0 0 0 0 0 0 0 0 0 0 0 0 0 0 0 0 0 0 0 0 0 0 0 0 0 0 0 0 0 0 0 0 0 0 0 0 0 0 0 0 0
0 0 0 0 0 0 0 0 0 0 0 0 0 0 0 0 0 0 0 0 0 0 0 0 0 0 0 0 0 0 0 0 0 0 0 0 0 0 0 0 0 0 0
0 0 0 0 0 0 0 0 0 0 0 0 0 0 0 0 0 0 0 0 0 0 0 0 0 0 0 0 0 0 0 0 0 0 0 0 0 0 0 0 0 0 0
0 0 0 0 0 0 0 0 0 0 0 0 0 0 0 0 0 0 0 0 0 0 0 0 0 0 0 0 0 0 0 0 0 0 0 0 0 0 0 0 0 0 0

GFSMA_con_mucape_063.txt.gz
CAPE
48 16 0 0 0 0 0 0 0 0 0 0 0 0 0 0 0 0 0 0 0 0 34 373 137 47 0 0 0 0 0 0 0 0 0 0 0 0 0 1 2 2 4
52 33 0 0 0 0 0 0 0 15 13 1 0 0 0 0 0 0 0 0 0 0 0 186 377 138 80 14 10 5 1 0 0 0 0 0 0 0 0 0 0 0 1
64 37 9 0 0 0 0 0 0 0 17 20 19 16 4 1 0 0 0 0 0 0 0 0 88 153 118 76 44 27 9 6 0 0 0 0 0 0 0 0 0 0 0
98 102 50 41 43 39 11 10 4 25 39 35 36 31 25 26 30 35 42 28 0 0 0 0 3 78 121 126 116 79 55 1 0 0 0 0 0 0 0 0 0 0 3
193 193 219 183 154 175 153 132 116 129 129 124 127 142 145 154 135 113 98 121 82 23 0 0 0 35 179 262 147 164 158 129 17 0 0 0 0 0 0 0 0 0 0
264 264 276 276 278 299 342 585 410 316 279 294 271 147 197 171 180 201 123 38 45 81 6 0 0 0 4 35 123 205 166 181 159 53 9 0 0 0 3 6 8 10 0
404 415 434 381 589 364 395 532 273 466 230 391 212 198 165 151 151 75 11 0 6 1 0 0 0 0 0 0 102 113 238 239 206 212 166 61 3 0 0 0 0 0 14
486 447 444 390 564 537 523 549 644 266 249 310 137 155 68 2 0 55 1 0 0 0 0 0 0 0 0 0 1 59 99 228 265 254 267 305 145 32 6 1 0 0 0
597 610 531 1055 835 873 772 550 440 394 237 228 343 58 69 33 26 10 8 0 0 0 0 0 1 3 5 6 2 4 3 5 19 212 290 260 312 281 115 54 19 5 2
334 209 104 100 171 104 102 109 136 115 283 45 31 20 46 56 61 23 24 3 0 0 0 0 0 7 5 1 0 3 1 6 7 10 25 154 221 256 243 166 107 25 0
0 0 0 0 0 0 0 0 1 4 9 4 23 19 7 21 14 25 32 16 41 8 0 0 0 0 0 0 0 0 0 0 0 6 4 5 40 156 146 372 483 91 40
0 0 0 0 0 0 0 0 2 4 4 5 4 12 19 23 9 9 16 10 40 48 27 7 0 0 0 0 0 0 0 0 0 4 1 12 30 80 32 102 311 196 149
0 0 0 0 0 0 0 0 1 5 3 6 7 8 18 16 47 58 52 50 13 32 13 11 1 0 0 0 0 0 0 0 0 0 0 0 0 0 0 0 22 189 390
0 0 0 0 0 0 0 0 0 8 17 41 43 44 47 41 16 46 51 44 50 10 10 5 2 0 0 0 0 0 0 0 0 0 0 0 0 0 0 0 0 34 13
0 0 0 0 0 0 0 0 3 10 10 11 11 6 38 16 36 37 21 44 54 8 1 0 0 0 0 0 0 0 0 0 0 0 0 0 0 0 0 10 17 1 23
0 0 0 0 0 0 0 0 0 0 0 4 4 10 16 33 8 16 7 12 16 21 5 0 0 1 2 0 0 0 0 0 0 0 0 0 0 0 0 0 0 0 11
0 0 0 0 0 0 0 0 0 0 0 1 3 5 4 0 1 2 3 0 0 0 0 0 0 0 0 0 0 0 0 0 0 0 0 0 0 0 0 0 0 0 0
0 0 0 0 0 0 0 0 0 0 0 0 0 0 0 0 0 0 0 0 0 0 0 0 0 0 0 0 0 0 0 0 0 0 0 0 0 0 0 0 0 0 0
0 0 0 0 0 0 0 0 0 0 0 0 0 0 0 0 0 0 0 0 0 0 0 0 0 0 0 0 0 0 0 0 0 0 0 0 0 0 0 0 0 0 0
0 0 0 0 0 0 0 0 0 0 0 0 0 0 0 0 0 0 0 0 0 0 0 0 0 0 0 0 0 0 0 0 0 0 0 0 0 0 0 0 0 0 0
0 0 0 0 0 0 0 0 0 0 0 0 0 0 0 0 0 0 0 0 0 0 0 0 0 0 0 0 0 0 0 0 0 0 0 0 0 0 0 0 0 0 0
0 0 0 0 0 0 0 0 0 0 0 0 0 0 0 0 0 0 0 0 0 0 0 0 0 0 0 0 0 0 0 0 0 0 0 0 0 0 0 0 0 0 0
0 0 0 0 0 0 0 0 0 0 0 0 0 0 0 0 0 0 0 0 0 0 0 0 0 0 0 0 0 0 0 0 0 0 0 0 0 0 0 0 0 0 0
0 0 0 0 0 0 0 0 0 0 0 0 0 0 0 0 0 0 0 0 0 0 0 0 0 0 0 0 0 0 0 0 0 0 0 0 0 0 0 0 0 0 0
0 0 0 0 0 0 0 0 0 0 0 0 0 0 0 0 0 0 0 0 0 0 0 0 0 0 0 0 0 0 0 0 0 0 0 0 0 0 0 0 0 0 0
0 0 0 0 0 0 0 0 0 0 0 0 0 0 0 0 0 0 0 0 0 0 0 0 0 0 0 0 0 0 0 0 0 0 0 0 0 0 0 0 0 0 0

GFSMA_con_mucape_066.txt.gz
CAPE
6 0 0 0 0 0 0 0 0 0 0 0 0 0 0 0 0 0 0 0 0 0 0 214 204 47 0 0 0 0 0 0 0 0 0 0 0 0 0 1 1 2 4
34 18 0 0 0 0 0 0 0 0 0 0 0 0 0 0 0 0 0 0 0 0 0 0 310 366 135 8 2 2 0 0 0 0 0 0 0 0 0 0 0 1 0
37 25 0 0 0 0 0 0 0 0 0 0 0 0 0 0 0 0 0 0 0 0 0 0 0 49 76 152 65 41 0 0 0 0 0 0 0 0 0 0 0 0 0
50 28 3 0 0 0 0 0 0 0 0 0 0 0 0 4 4 0 0 2 0 0 0 0 0 0 54 90 149 138 139 10 0 0 0 0 0 0 0 0 0 0 0
146 79 143 70 68 88 71 42 30 49 32 5 5 170 5 59 53 38 32 47 42 32 26 10 0 0 64 85 85 144 167 166 65 2 0 0 0 0 0 0 4 7 9
278 196 201 233 233 373 428 361 209 207 448 244 379 154 35 31 66 46 52 68 50 6 9 6 7 0 0 16 33 70 90 185 202 131 37 11 0 0 0 0 0 0 0
290 263 305 303 490 732 486 476 398 289 151 115 51 31 39 54 67 69 65 29 0 0 0 0 0 0 0 4 53 71 79 115 207 146 245 148 36 7 0 0 0 0 0
487 405 394 374 609 298 699 512 491 252 133 105 64 49 15 12 6 0 26 18 5 10 9 0 0 0 0 1 4 34 75 103 121 189 174 172 264 172 48 19 5 0 0
593 516 530 854 633 450 931 625 430 246 165 127 91 57 47 24 16 2 27 21 4 0 0 0 0 1 9 4 5 3 0 3 4 3 36 133 201 223 355 292 118 21 7
589 473 388 281 220 95 72 53 23 15 20 18 36 78 67 81 53 6 8 10 9 1 3 0 3 3 2 1 2 2 6 1 3 3 4 7 20 53 159 243 376 177 42
128 0 0 0 0 0 0 0 0 0 0 0 0 3 20 20 25 26 15 1 6 32 18 14 6 4 4 0 0 0 0 0 0 0 2 7 26 95 109 144 230 359 174
0 0 0 0 0 0 0 0 0 0 0 0 0 3 5 15 10 24 15 15 28 31 31 21 8 15 3 0 0 0 0 0 0 0 3 12 39 8 0 6 38 105 184
0 0 0 0 0 0 0 0 0 0 0 0 0 6 7 4 10 38 36 6 32 42 18 55 47 18 3 0 0 0 0 0 0 0 3 0 0 0 0 0 1 6 31
0 0 0 0 0 0 0 0 0 0 2 6 12 19 23 16 29 47 56 37 8 13 22 17 17 8 0 0 0 0 0 0 0 0 0 0 0 0 0 0 0 4 0
0 0 0 0 0 0 0 0 0 0 2 3 5 2 5 17 12 47 12 44 76 20 2 15 5 0 0 1 0 1 0 0 0 0 0 0 0 0 2 3 16 6 1
0 0 0 0 0 0 0 0 0 0 0 0 0 2 8 10 9 12 48 22 6 7 2 3 2 4 2 1 0 0 0 0 0 0 0 0 0 0 0 0 0 0 0
0 0 0 0 0 0 0 0 0 0 0 0 0 0 2 4 5 3 1 2 0 2 1 1 3 0 0 0 0 0 0 0 0 0 0 0 0 0 0 0 0 0 0
0 0 0 0 0 0 0 0 0 0 0 0 0 0 0 0 0 0 0 0 0 0 0 0 0 0 0 0 0 0 0 0 0 0 0 0 0 0 0 0 0 0 0
0 0 0 0 0 0 0 0 0 0 0 0 0 0 0 0 0 0 0 0 0 0 0 0 0 0 0 0 0 0 0 0 0 0 0 0 0 0 0 0 0 0 0
0 0 0 0 0 0 0 0 0 0 0 0 0 0 0 0 0 0 0 0 0 0 0 0 0 0 0 0 0 0 0 0 0 0 0 0 0 0 0 0 0 0 0
0 0 0 0 0 0 0 0 0 0 0 0 0 0 0 0 0 0 0 0 0 0 0 0 0 0 0 0 0 0 0 0 0 0 0 0 0 0 0 0 0 0 0
0 0 0 0 0 0 0 0 0 0 0 0 0 0 0 0 0 0 0 0 0 0 0 0 0 0 0 0 0 0 0 0 0 0 0 0 0 0 0 0 0 0 0
0 0 0 0 0 0 0 0 0 0 0 0 0 0 0 0 0 0 0 0 0 0 0 0 0 0 0 0 0 0 0 0 0 0 0 0 0 0 0 0 0 0 0
0 0 0 0 0 0 0 0 0 0 0 0 0 0 0 0 0 0 0 0 0 0 0 0 0 0 0 0 0 0 0 0 0 0 0 0 0 0 0 0 0 0 0
0 0 0 0 0 0 0 0 0 0 0 0 0 0 0 0 0 0 0 0 0 0 0 0 0 0 0 0 0 0 0 0 0 0 0 0 0 0 0 0 0 0 0
0 0 0 0 0 0 0 0 0 0 0 0 0 0 0 0 0 0 0 0 0 0 0 0 0 0 0 0 0 0 0 0 0 0 0 0 0 0 0 0 0 0 0

GFSMA_con_mucape_069.txt.gz
CAPE
0 0 0 0 0 0 0 0 0 0 0 0 0 0 0 0 0 0 0 0 0 0 0 13 150 77 4 0 0 0 0 0 0 0 0 0 0 0 0 0 0 3 2
20 0 0 0 0 0 0 0 0 0 0 0 0 0 0 0 0 0 0 0 0 0 0 0 6 179 180 41 1 0 0 0 0 0 0 0 0 0 0 0 0 0 0
65 17 0 0 0 0 0 0 0 0 0 0 0 0 0 0 0 0 0 0 0 0 0 18 0 5 89 160 137 133 13 0 0 0 0 0 0 0 0 0 0 0 0
88 26 1 0 0 0 0 0 0 0 0 0 0 0 2 9 6 10 12 6 26 38 17 19 10 6 23 94 129 141 132 112 19 0 0 0 0 0 0 0 0 0 0
164 44 43 6 0 16 24 14 15 5 7 4 101 8 15 16 14 20 27 48 69 82 33 8 17 6 31 44 56 71 154 155 146 87 18 0 0 0 0 0 0 0 0
286 189 127 185 173 130 75 329 278 66 109 143 124 23 13 20 20 12 24 62 71 84 46 23 18 25 0 28 32 76 95 116 211 127 134 74 13 0 0 0 0 0 0
354 339 259 233 223 394 268 314 139 476 62 23 20 25 16 13 18 20 33 43 74 48 13 14 36 0 0 0 19 57 87 95 130 167 123 141 177 41 18 5 0 0 0
492 352 349 327 320 387 726 330 236 162 123 53 33 34 17 0 4 27 9 1 49 58 25 16 0 0 0 0 3 11 18 27 24 17 56 141 174 302 224 128 71 8 12
567 515 487 537 838 537 524 337 389 354 169 67 28 43 37 14 2 5 19 26 24 17 13 10 1 0 0 11 7 1 0 1 7 0 4 5 19 78 155 336 511 215 19
631 592 492 418 432 342 197 117 56 27 26 1 0 2 62 68 38 15 0 0 5 9 10 11 17 13 14 15 2 2 0 0 0 1 3 7 14 24 56 126 178 444 358
630 690 615 571 336 9 0 0 0 0 0 0 0 0 0 0 1 14 6 0 0 12 32 33 4 3 8 1 5 13 5 0 0 1 4 6 14 54 13 23 32 220 287
603 239 0 0 0 0 0 0 0 0 0 0 0 0 0 0 0 4 17 16 2 3 42 27 21 27 4 8 10 0 0 0 0 2 5 10 7 5 3 5 7 26 48
67 0 0 0 0 0 0 0 0 0 0 0 0 0 0 4 3 5 15 22 29 29 50 46 16 7 11 5 5 0 0 0 0 0 3 12 2 0 0 0 0 1 3
0 0 0 0 0 0 0 0 0 0 0 0 1 8 6 17 37 27 37 29 33 13 35 18 16 3 16 5 2 0 0 0 0 0 0 0 0 0 0 0 0 1 0
0 0 0 0 0 0 0 0 0 0 0 2 3 3 1 3 3 8 19 37 26 27 3 16 4 10 0 0 6 0 0 0 0 0 0 0 0 0 32 27 23 25 21
0 0 0 0 0 0 0 0 0 0 0 0 0 0 0 0 3 8 13 7 21 31 23 7 8 8 0 2 1 2 0 0 0 0 0 0 0 0 0 0 0 0 0
0 0 0 0 0 0 0 0 0 0 0 0 0 0 0 0 0 3 3 7 14 6 27 8 6 1 3 2 0 0 0 0 0 0 0 0 0 0 0 0 0 0 0
3 0 0 0 0 0 0 0 0 0 0 0 0 0 0 0 0 0 0 0 0 0 3 0 2 1 0 0 0 0 0 0 0 0 0 0 0 0 0 0 0 0 10
0 0 0 0 0 0 0 0 0 0 0 0 0 0 0 0 0 0 0 0 0 0 0 0 0 0 0 0 0 0 0 0 0 0 0 0 0 0 0 0 0 0 0
0 0 0 0 0 0 0 0 0 0 0 0 0 0 0 0 0 0 0 0 0 0 0 0 0 0 0 0 0 0 0 0 0 0 0 0 0 0 0 0 0 0 0
0 0 0 0 0 0 0 0 0 0 0 0 0 0 0 0 0 0 0 0 0 0 0 0 0 0 0 0 0 0 0 0 0 0 0 0 0 0 0 0 0 0 0
0 0 0 0 0 0 0 0 0 0 0 0 0 0 0 0 0 0 0 0 0 0 0 0 0 0 0 0 0 0 0 0 0 0 0 0 0 0 0 0 0 0 0
0 0 0 0 0 0 0 0 0 0 0 0 0 0 0 0 0 0 0 0 0 0 0 0 0 0 0 0 0 0 0 0 0 0 0 0 0 0 0 0 0 0 0
0 0 0 0 0 0 0 0 0 0 0 0 0 0 0 0 0 0 0 0 0 0 0 0 0 0 0 0 0 0 0 0 0 0 0 0 0 0 0 0 0 0 0
0 0 0 0 0 0 0 0 0 0 0 0 0 0 0 0 0 0 0 0 0 0 0 0 0 0 0 0 0 0 0 0 0 0 0 0 0 0 0 0 0 0 0
0 0 0 0 0 0 0 0 0 0 0 0 0 0 0 0 0 0 0 0 0 0 0 0 0 0 0 0 0 0 0 0 0 0 0 0 0 0 0 0 0 0 0

GFSMA_con_mucape_072.txt.gz
CAPE
25 7 0 0 0 0 0 0 0 0 0 0 0 0 0 0 0 0 0 0 0 0 0 0 69 124 23 6 0 0 0 0 0 0 0 0 0 0 0 0 0 0 1
3 0 0 0 0 0 0 0 0 0 0 0 0 0 0 0 0 0 0 0 0 0 0 0 0 34 162 119 45 0 0 0 0 0 0 0 0 0 0 0 0 0 0
60 40 0 0 0 0 0 0 0 0 0 0 0 0 0 0 0 0 0 0 0 3 7 20 15 11 46 106 165 112 85 15 11 3 0 0 0 0 0 0 0 0 0
118 80 16 0 0 0 0 0 0 0 0 0 0 0 0 4 7 9 11 11 18 15 21 18 38 73 62 64 94 170 155 131 106 30 21 13 0 0 0 0 0 0 0
198 134 60 27 15 3 5 0 6 0 2 2 9 5 8 60 26 117 20 19 45 50 44 35 20 26 59 47 47 47 82 145 143 132 104 17 1 4 0 0 0 0 0
276 268 138 74 48 33 76 65 17 139 56 50 150 83 14 3 2 1 2 15 37 61 65 47 49 14 44 27 33 46 82 94 108 103 120 149 103 16 6 0 0 0 0
348 355 246 166 237 215 123 182 236 139 92 54 19 16 6 4 4 0 10 8 8 25 67 55 19 23 19 0 1 30 78 112 103 76 134 148 178 190 95 54 6 0 0
403 385 387 307 281 284 240 524 307 241 136 54 20 24 3 0 0 0 0 5 2 21 24 37 24 8 6 1 1 2 4 0 2 1 1 8 53 134 345 270 193 77 11
561 629 570 402 464 682 516 441 331 214 149 56 41 32 23 9 0 0 10 1 7 23 22 23 11 1 0 11 16 10 3 0 0 0 0 2 6 18 28 85 294 434 259
523 566 560 504 743 421 390 287 220 113 42 35 18 39 4 50 34 10 0 0 0 2 6 10 14 9 21 28 18 11 1 3 2 0 6 6 6 44 55 65 61 177 314
554 607 598 596 543 435 411 455 339 30 0 0 0 0 0 0 0 16 2 1 0 0 8 13 15 16 32 22 8 5 7 6 2 1 4 8 8 13 24 35 10 16 92
368 472 478 606 621 453 64 0 0 0 0 0 0 0 0 0 0 0 3 5 0 0 2 17 33 24 19 23 19 20 8 0 0 3 7 10 9 8 8 2 3 4 8
340 433 274 149 1 0 0 0 0 0 0 0 0 0 0 0 0 0 0 4 6 4 14 23 28 13 8 17 17 14 2 0 0 0 0 0 0 0 1 0 0 2 7
262 199 95 2 0 0 0 0 0 0 0 0 0 0 0 0 0 11 11 19 2 15 20 32 20 5 1 2 21 15 2 0 0 0 0 0 0 1 0 0 2 10 14
56 12 0 2 0 0 0 0 0 0 0 0 0 0 3 2 0 0 6 20 29 17 19 5 13 0 2 25 21 8 0 0 0 0 0 0 0 0 0 36 35 26 29
0 0 0 3 2 0 0 0 0 0 0 0 0 1 1 0 0 0 9 21 26 43 17 7 3 5 11 9 14 4 1 3 0 0 0 0 0 0 0 0 0 0 0
25 0 0 0 3 0 0 0 0 0 0 0 0 0 0 0 0 0 0 11 22 4 19 37 6 9 22 3 5 0 0 0 0 0 0 0 0 0 0 0 0 0 0
1 0 0 0 6 2 0 0 0 0 0 0 0 0 0 0 0 0 0 0 0 2 8 0 7 9 1 0 0 0 0 0 0 0 0 0 0 0 0 0 0 0 0
0 0 0 0 0 0 0 0 0 0 0 0 0 0 0 0 0 0 0 0 0 0 0 0 0 0 0 0 0 0 0 0 0 0 0 0 0 0 0 0 0 0 0
0 0 0 0 0 0 0 0 0 0 0 0 0 0 0 0 0 0 0 0 0 0 0 0 0 0 0 0 0 0 0 0 0 0 0 0 0 0 0 0 0 0 0
0 0 0 0 0 0 0 0 0 0 0 0 0 0 0 0 0 0 0 0 0 0 0 0 0 0 0 0 0 0 0 0 0 0 0 0 0 0 0 0 0 0 0
0 0 0 0 0 0 0 0 0 0 0 0 0 0 0 0 0 0 0 0 0 0 0 0 0 0 0 0 0 0 0 0 0 0 0 0 0 0 0 0 0 0 0
0 0 0 0 0 0 0 0 0 0 0 0 0 0 0 0 0 0 0 0 0 0 0 0 0 0 0 0 0 0 0 0 0 0 0 0 0 0 0 0 0 0 0
0 0 0 0 0 0 0 0 0 0 0 0 0 0 0 0 0 0 0 0 0 0 0 0 0 0 0 0 0 0 0 0 0 0 0 0 0 0 0 0 0 0 0
0 0 0 0 0 0 0 0 0 0 0 0 0 0 0 0 0 0 0 0 0 0 0 0 0 0 0 0 0 0 0 0 0 0 0 0 0 0 0 0 0 0 0
0 0 0 0 0 0 0 0 0 0 0 0 0 0 0 0 0 0 0 0 0 0 0 0 0 0 0 0 0 0 0 0 0 0 0 0 0 0 0 0 0 0 0

GFSMA_con_mucape_078.txt.gz
CAPE
7 0 12 0 0 0 0 0 0 0 0 0 0 0 0 0 0 0 0 0 0 0 0 1 8 142 99 48 8 0 0 0 0 0 0 0 0 0 0 0 0 0 0
46 34 27 16 0 0 0 0 0 0 0 0 0 0 0 0 0 0 0 0 0 4 10 16 17 23 151 163 107 99 53 22 2 1 0 0 0 0 0 0 0 0 0
27 6 26 10 0 0 0 0 0 0 0 0 0 0 0 0 0 0 0 3 6 7 8 20 30 32 66 91 104 122 106 91 96 56 8 2 0 0 0 0 0 0 0
96 115 65 33 0 0 0 0 0 0 0 0 0 0 0 1 2 3 3 10 6 11 16 26 28 62 86 90 108 103 103 90 87 123 135 65 7 1 0 0 0 0 0
160 194 166 99 30 9 5 1 1 2 9 14 17 11 2 4 4 0 0 0 0 0 12 26 38 70 68 109 75 69 67 81 80 83 111 117 132 70 17 1 0 0 0
216 183 220 185 110 41 39 28 35 57 44 42 31 30 15 0 0 0 0 0 0 0 0 20 34 71 70 70 55 54 55 69 72 63 64 60 101 124 155 66 9 0 0
321 277 198 250 188 101 53 43 82 125 89 108 72 43 4 0 0 0 0 0 0 0 0 6 10 59 79 68 39 39 46 12 4 0 11 21 21 58 92 155 164 58 1
345 340 255 291 290 200 132 148 190 165 249 124 121 11 0 0 0 0 0 0 0 0 0 1 10 19 36 33 26 10 3 0 0 0 0 4 11 15 13 20 107 168 135
276 243 270 205 217 236 248 270 281 257 235 110 118 55 8 0 0 0 0 0 0 0 0 1 12 19 25 13 11 6 9 6 3 5 3 2 11 30 41 40 71 69 58
178 173 158 178 181 243 289 270 267 254 224 165 87 124 201 129 48 0 0 0 0 0 0 0 8 15 12 7 15 16 28 21 12 1 4 2 5 13 15 13 33 48 20
112 96 80 135 145 121 83 178 139 141 95 95 94 133 0 0 0 0 0 0 0 0 0 0 4 5 4 8 15 34 19 24 19 11 9 1 0 8 10 10 9 8 8
84 63 112 92 47 7 6 7 18 13 43 70 1 0 0 0 0 0 0 0 0 0 0 1 5 15 12 8 21 39 27 20 18 6 3 1 0 9 7 8 4 7 5
110 85 64 70 33 27 7 43 37 21 8 0 0 0 0 0 0 0 0 0 0 0 0 1 4 12 15 14 29 14 13 17 20 4 0 1 0 3 14 2 1 4 5
93 101 62 19 2 1 9 24 7 0 0 0 0 0 0 0 0 0 0 0 0 0 9 2 1 14 14 17 9 0 10 24 30 18 2 0 0 0 13 21 17 27 15
144 79 25 24 27 0 2 1 11 0 0 0 0 0 0 0 0 0 0 0 1 0 0 4 13 7 15 10 34 22 5 20 2 13 5 0 0 0 0 4 7 11 16
85 37 31 34 31 3 13 8 3 6 0 0 0 0 0 0 0 0 0 0 0 0 0 0 0 3 26 15 7 14 2 0 6 6 0 0 0 0 0 0 0 0 0
154 116 85 45 32 18 13 16 6 0 0 0 0 0 0 0 0 0 0 0 0 0 0 0 0 2 1 21 7 8 6 4 8 8 0 0 0 0 0 0 0 0 0
72 80 32 0 0 3 10 6 0 0 0 0 0 0 0 0 0 0 0 0 0 0 0 0 0 5 3 0 15 9 7 4 0 0 0 0 0 0 0 0 0 0 0
0 0 1 2 2 5 1 0 0 0 0 0 0 0 0 0 0 0 0 0 0 0 0 0 0 0 0 0 0 2 3 0 0 0 0 0 0 0 0 0 0 0 0
0 0 0 0 0 0 0 0 0 0 0 0 0 0 0 0 0 0 0 0 0 0 0 0 0 0 0 0 0 1 1 0 0 0 0 0 0 0 0 0 0 0 0
0 0 0 0 0 0 0 0 0 0 0 0 0 0 0 0 0 0 0 0 0 0 0 0 0 0 0 0 0 0 0 0 0 0 0 0 0 0 0 0 0 0 0
0 0 0 0 0 0 0 0 0 0 0 0 0 0 0 0 0 0 0 0 0 0 0 0 0 0 0 0 0 0 0 0 0 0 0 0 0 0 0 0 0 0 0
0 0 0 0 0 0 0 0 0 0 0 0 0 0 0 0 0 0 0 0 0 0 0 0 0 0 0 0 0 0 0 0 0 0 0 0 0 0 0 0 0 0 0
0 0 0 0 0 0 0 0 0 0 0 0 0 0 0 0 0 0 0 0 0 0 0 0 0 0 0 0 0 0 0 0 0 0 0 0 0 0 0 0 0 0 0
0 0 0 0 0 0 0 0 0 0 0 0 0 0 0 0 0 0 0 0 0 0 0 0 0 0 0 0 0 0 0 0 0 0 0 0 0 0 0 0 0 0 0
0 0 0 0 0 0 0 0 0 0 0 0 0 0 0 0 0 0 0 0 0 0 0 0 0 0 0 0 0 0 0 0 0 0 0 0 0 0 0 0 0 0 0

GFSMA_con_mucape_081.txt.gz
CAPE
0 0 0 0 0 0 0 0 0 0 0 0 0 0 0 0 0 0 0 0 0 0 0 5 2 90 102 57 25 0 0 0 0 0 0 0 0 0 0 0 0 0 0
12 4 7 0 0 0 0 0 0 0 0 0 0 0 0 0 0 0 0 0 0 1 4 8 8 23 56 138 102 102 87 43 15 2 0 0 0 0 0 0 0 0 0
40 34 24 21 3 0 0 0 0 0 0 0 0 0 0 0 0 0 0 0 0 1 0 3 10 22 38 71 107 101 89 117 113 80 39 3 2 0 0 0 0 0 0
75 47 27 33 3 0 0 0 0 0 0 0 0 0 0 0 0 0 0 0 0 0 0 3 7 29 53 64 89 97 80 81 95 82 118 114 53 8 1 0 0 0 0
129 43 96 68 41 0 0 0 0 0 0 0 0 0 2 0 0 0 0 0 0 0 0 0 5 18 43 54 59 93 62 66 68 64 68 110 124 119 82 22 1 0 0
51 93 140 158 101 43 5 0 0 7 24 24 19 27 46 22 0 3 0 0 0 0 0 0 0 7 23 51 50 40 55 76 67 63 55 43 73 100 149 153 95 10 0
130 174 176 182 182 122 61 32 29 49 70 37 65 73 12 0 0 0 0 0 0 0 0 0 0 0 20 46 46 28 58 39 24 8 13 16 18 12 14 42 94 148 32
169 236 243 168 198 240 168 91 67 108 100 85 163 17 16 0 0 0 0 0 0 0 0 0 0 0 13 28 42 22 22 11 10 7 0 4 0 14 31 55 81 105 164
188 128 152 150 146 191 174 147 164 193 198 152 79 72 8 1 0 0 0 0 0 0 0 0 0 0 7 26 17 9 7 12 11 11 5 0 0 6 13 30 52 55 48
118 109 127 137 131 118 87 111 149 142 170 267 105 89 19 36 12 4 0 0 0 0 0 0 0 0 10 16 11 10 9 10 27 19 14 7 1 0 0 0 9 33 27
102 118 108 74 45 79 100 67 52 49 68 113 96 62 49 10 0 0 0 0 0 0 0 0 0 0 0 4 12 18 15 33 27 30 8 9 3 0 0 12 7 8 6
73 79 92 66 44 58 60 7 23 7 1 7 2 1 0 0 0 0 0 0 0 0 0 0 0 0 2 5 19 13 16 32 15 15 3 10 5 0 3 12 15 8 8
100 87 110 106 45 5 7 3 5 0 1 1 1 0 0 2 0 0 0 0 0 0 0 0 0 0 0 8 16 18 27 4 1 6 2 4 1 0 0 7 0 7 9
129 113 97 76 53 56 48 43 25 4 9 1 0 0 0 0 0 0 0 0 0 0 0 5 0 0 1 19 22 5 12 13 0 0 7 6 4 0 0 29 32 42 46
138 135 98 77 63 13 3 22 45 19 0 0 0 0 0 0 0 0 0 0 0 0 0 0 1 2 1 2 7 12 9 2 23 3 12 0 2 0 0 2 10 10 27
147 74 72 35 27 15 25 13 1 4 11 9 1 0 0 0 0 0 0 0 0 0 0 0 0 0 0 0 4 14 4 6 14 5 7 3 6 0 0 0 0 0 0
92 111 67 50 37 47 15 0 5 10 15 3 0 0 0 0 0 0 0 0 0 0 0 0 0 0 0 0 5 2 4 7 8 15 0 10 8 0 0 0 0 1 0
1 51 60 68 62 61 52 31 13 0 5 0 0 0 0 0 0 0 0 0 0 0 0 0 0 0 0 0 0 6 3 11 6 10 9 1 0 0 0 0 0 0 0
0 0 16 27 23 11 1 1 7 5 0 0 0 0 0 0 0 0 0 0 0 0 0 0 0 0 0 0 0 2 2 11 2 1 0 0 0 0 0 0 0 0 0
0 0 0 0 0 0 0 1 0 1 0 0 0 0 0 0 0 0 0 0 0 0 0 0 0 0 0 0 0 0 0 7 0 0 0 0 0 0 0 0 0 0 0
0 0 0 0 0 0 0 0 0 0 0 0 0 0 0 0 0 0 0 0 0 0 0 0 0 0 0 0 0 0 0 0 0 0 0 0 0 0 0 0 0 0 0
0 0 0 0 0 0 0 0 0 0 0 0 0 0 0 0 0 0 0 0 0 0 0 0 0 0 0 0 0 0 0 0 0 0 0 0 0 0 0 0 0 0 0
0 0 0 0 0 0 0 0 0 0 0 0 0 0 0 0 0 0 0 0 0 0 0 0 0 0 0 0 0 0 0 0 0 0 0 0 0 0 0 0 0 0 0
0 0 0 0 0 0 0 0 0 0 0 0 0 0 0 0 0 0 0 0 0 0 0 0 0 0 0 0 0 0 0 0 0 0 0 0 0 0 0 0 0 0 0
0 0 0 0 0 0 0 0 0 0 0 0 0 0 0 0 0 0 0 0 0 0 0 0 0 0 0 0 0 0 0 0 0 0 0 0 0 0 0 0 0 0 0
0 0 0 0 0 0 0 0 0 0 0 0 0 0 0 0 0 0 0 0 0 0 0 0 0 0 0 0 0 0 0 0 0 0 0 0 0 0 0 0 0 0 0

GFSMA_con_mucape_084.txt.gz
CAPE
10 0 0 0 0 0 0 0 0 0 0 0 0 0 0 0 0 0 0 0 0 0 0 0 1 18 156 74 60 25 0 0 0 0 0 0 0 0 0 0 0 0 0
2 0 0 0 0 0 0 0 0 0 0 0 0 0 0 0 0 0 0 0 0 0 0 1 10 19 41 104 119 109 84 50 37 10 0 0 0 0 0 0 0 0 0
75 46 28 68 52 16 0 0 0 0 3 0 0 0 0 3 2 1 3 5 3 0 0 0 7 20 27 56 90 101 107 97 123 120 92 60 7 1 0 0 0 0 0
154 136 151 149 101 26 7 1 0 0 0 0 0 0 1 5 35 9 14 11 7 1 0 0 0 14 43 61 127 123 72 98 93 113 132 150 131 45 17 3 0 0 0
299 186 114 119 122 39 21 10 13 0 0 0 0 13 33 45 54 10 12 15 9 0 1 0 0 0 0 25 62 92 73 68 85 86 74 67 104 133 108 81 22 1 0
431 304 100 110 99 57 17 19 4 0 0 6 31 35 82 58 41 62 40 4 1 0 0 0 0 3 0 1 23 69 41 60 77 66 47 28 44 62 74 132 119 117 11
190 196 78 120 168 144 73 28 7 0 7 69 168 93 46 52 34 21 6 0 0 0 0 0 0 0 5 0 23 24 26 60 28 21 16 23 28 27 24 27 42 102 174
231 190 141 151 182 213 192 80 21 55 91 162 148 171 29 16 0 0 0 0 0 0 0 0 0 0 11 22 33 33 45 39 33 29 23 19 14 37 53 65 74 84 56
243 286 261 175 127 135 310 221 182 206 377 200 208 154 40 1 5 0 0 0 0 0 0 0 0 0 0 0 18 24 14 10 25 42 29 12 6 9 19 28 27 38 59
256 175 125 76 105 55 108 104 86 117 257 203 167 179 201 91 23 0 0 0 0 0 0 0 0 0 0 0 7 15 11 5 16 22 24 20 9 5 0 1 3 4 37
141 83 117 76 37 75 56 78 32 60 58 46 33 69 156 169 67 56 0 0 0 0 0 0 0 0 0 0 0 0 6 11 8 9 19 8 7 1 8 2 2 6 4
65 86 103 89 91 100 79 58 35 34 25 35 14 27 58 0 0 6 1 0 0 0 0 0 0 0 0 0 0 3 10 8 9 20 17 11 3 2 10 0 10 5 6
96 61 93 79 100 80 67 41 11 2 11 14 4 0 3 7 0 0 1 0 0 0 0 0 0 0 0 0 0 4 6 12 22 11 6 0 6 6 0 0 0 1 7
148 126 99 83 78 66 48 6 8 0 0 0 1 5 14 0 0 0 0 0 0 0 0 0 0 0 0 0 2 4 8 5 6 4 4 4 1 2 2 0 17 42 36
180 132 84 120 60 51 42 35 24 24 16 0 24 0 0 0 0 0 0 0 0 0 0 0 0 0 0 0 1 2 8 6 9 7 2 5 3 9 10 0 0 12 27
149 130 149 119 103 65 57 12 8 9 9 29 0 0 1 0 0 0 0 0 0 0 0 0 0 0 0 0 0 0 0 2 2 4 8 4 10 7 3 10 1 1 9
117 183 177 180 152 100 12 3 5 22 30 5 6 7 0 0 0 0 0 0 0 0 0 0 0 0 0 0 0 0 2 0 3 4 7 7 10 1 10 2 0 0 0
0 68 141 147 88 30 31 42 38 1 6 22 5 0 0 0 0 0 0 0 0 0 0 0 0 0 0 0 0 0 0 4 3 3 5 2 1 7 1 0 0 0 0
0 0 44 75 77 61 57 55 76 66 32 11 2 0 0 0 0 0 0 0 0 0 0 0 0 0 0 0 0 0 0 0 6 13 10 9 0 0 0 0 0 0 0
0 0 0 13 53 58 42 15 3 0 0 0 0 0 0 0 0 0 0 0 0 0 0 0 0 0 0 0 0 0 0 0 0 0 3 0 0 0 0 0 0 0 0
0 0 0 0 0 0 0 0 0 0 0 0 0 0 0 0 0 0 0 0 0 0 0 0 0 0 0 0 0 0 0 0 0 0 0 0 0 0 0 0 0 0 0
0 0 0 0 0 0 0 0 0 0 0 0 0 0 0 0 0 0 0 0 0 0 0 0 0 0 0 0 0 0 0 0 0 0 0 0 0 0 0 0 0 0 0
0 0 0 0 0 0 0 0 0 0 0 0 0 0 0 0 0 0 0 0 0 0 0 0 0 0 0 0 0 0 0 0 0 0 0 0 0 0 0 0 0 0 0
0 0 0 0 0 0 0 0 0 0 0 0 0 0 0 0 0 0 0 0 0 0 0 0 0 0 0 0 0 0 0 0 0 0 0 0 0 0 0 0 0 0 0
0 0 0 0 0 0 0 0 0 0 0 0 0 0 0 0 0 0 0 0 0 0 0 0 0 0 0 0 0 0 0 0 0 0 0 0 0 0 0 0 0 0 0
0 0 0 0 0 0 0 0 0 0 0 0 0 0 0 0 0 0 0 0 0 0 0 0 0 0 0 0 0 0 0 0 0 0 0 0 0 0 0 0 0 0 0

GFSMA_con_mucape_087.txt.gz
CAPE
36 1 0 0 0 0 0 0 0 0 0 0 0 0 0 0 0 0 0 0 0 0 0 0 0 3 32 103 51 33 6 0 0 0 0 0 0 0 0 0 0 0 0
39 32 0 6 0 0 0 0 0 0 0 0 0 0 0 0 0 1 0 0 0 0 0 0 9 15 23 49 93 112 103 60 48 29 8 3 0 0 0 0 0 0 0
0 0 0 0 0 0 0 0 0 0 0 0 0 0 0 3 2 0 10 17 7 0 0 0 12 36 49 44 67 98 107 129 97 111 84 75 41 0 0 0 0 0 0
76 54 37 66 68 50 20 0 0 0 0 0 0 0 0 4 2 10 15 17 22 16 6 5 3 11 38 62 82 91 59 179 114 107 105 123 144 122 77 30 6 0 0
247 190 199 196 146 99 26 15 10 4 6 1 0 0 30 46 41 7 6 11 21 8 5 3 0 0 0 10 57 117 91 90 92 89 81 74 75 97 126 98 80 21 0
460 411 244 131 138 154 75 41 17 32 15 8 0 6 76 97 80 30 13 8 0 0 0 0 0 3 1 0 4 60 76 79 83 76 59 30 29 43 26 42 100 84 108
442 512 371 140 173 246 185 69 36 19 18 18 61 62 91 93 65 53 24 0 0 0 0 0 0 0 12 3 0 6 27 73 55 31 23 11 7 0 21 34 60 80 57
295 321 361 223 229 267 235 212 133 44 35 60 226 150 158 91 35 7 0 0 0 0 0 0 0 0 0 9 0 0 24 37 34 21 21 15 8 20 14 22 30 19 37
340 427 432 356 279 182 221 311 175 99 149 263 295 225 103 35 70 12 19 0 0 0 0 0 0 0 0 0 0 0 6 12 26 39 40 11 8 8 8 8 8 5 3
343 347 316 391 284 195 93 103 140 93 203 254 216 150 118 133 65 32 17 0 0 0 0 0 0 0 0 0 0 0 8 10 16 44 48 23 1 6 7 12 5 1 3
193 238 310 252 158 120 92 70 68 80 17 115 45 19 16 12 48 74 0 0 0 0 0 0 0 0 0 0 0 0 0 0 6 29 44 7 10 9 1 0 19 17 3
142 136 117 182 167 51 52 56 70 59 35 74 68 45 40 18 0 0 0 2 1 0 1 0 0 0 0 0 0 0 0 0 9 6 8 4 7 8 12 1 23 5 0
87 55 116 150 84 102 56 62 70 72 55 47 47 9 6 11 1 2 8 13 7 0 0 0 0 0 0 0 0 0 0 7 16 8 7 19 13 2 0 0 11 0 0
93 81 190 113 113 77 47 68 51 47 32 15 36 3 0 0 9 19 12 0 0 1 0 0 0 0 0 0 0 0 0 8 12 7 5 6 8 1 7 7 10 3 0
265 216 230 191 172 103 57 78 80 34 14 5 0 10 13 28 23 0 0 0 0 0 0 0 0 0 0 0 0 0 0 3 4 2 6 11 7 5 1 7 18 4 0
355 232 190 169 163 141 96 78 73 24 39 40 24 3 6 0 0 0 0 0 0 0 0 0 0 0 0 0 0 0 0 0 0 0 4 10 10 11 5 11 14 7 0
317 340 290 204 139 141 151 83 64 64 8 3 0 9 5 1 2 0 0 0 0 0 0 0 0 0 0 0 0 0 0 0 3 0 0 0 9 9 17 7 6 2 0
0 7 82 221 373 401 287 187 105 35 7 16 32 12 1 0 0 0 0 0 0 0 0 0 0 0 0 0 0 0 0 0 0 0 5 10 6 12 2 0 1 0 0
0 0 0 39 122 165 163 117 72 33 18 41 12 1 6 3 2 0 0 0 0 0 0 0 0 0 0 0 0 0 0 0 0 0 0 12 8 3 0 0 0 0 0
0 0 0 1 12 143 170 128 90 72 69 35 22 32 13 0 0 0 0 0 0 0 0 0 0 0 0 0 0 0 0 0 0 0 0 0 0 0 0 0 0 0 0
0 0 0 0 2 11 71 104 83 89 86 65 36 5 2 0 0 0 0 0 0 0 0 0 0 0 0 0 0 0 0 0 0 0 0 0 0 0 0 0 0 0 0
0 0 0 0 0 0 0 9 21 9 14 28 15 0 0 0 0 0 0 0 0 0 0 0 0 0 0 0 0 0 0 0 0 0 0 0 0 0 0 0 0 0 0
0 0 0 0 0 0 0 0 0 0 0 0 0 0 0 0 0 0 0 0 0 0 0 0 0 0 0 0 0 0 0 0 0 0 0 0 0 0 0 0 0 0 0
0 0 0 0 0 0 0 0 0 0 0 0 0 0 0 0 0 0 0 0 0 0 0 0 0 0 0 0 0 0 0 0 0 0 0 0 0 0 0 0 0 0 0
0 0 0 0 0 0 0 0 0 0 0 0 0 0 0 0 0 0 0 0 0 0 0 0 0 0 0 0 0 0 0 0 0 0 0 0 0 0 0 0 0 0 0
0 0 0 0 0 0 0 0 0 0 0 0 0 0 0 0 0 0 0 0 0 0 0 0 0 0 0 0 0 0 0 0 0 0 0 0 0 0 0 0 0 0 0

GFSMA_con_mucape_090.txt.gz
CAPE
0 0 0 0 0 0 0 0 0 0 0 0 0 0 0 0 0 0 0 0 0 0 0 0 0 0 3 100 87 50 12 2 0 0 0 0 0 0 0 0 0 0 0
0 0 0 0 0 0 0 0 0 0 0 0 0 0 0 0 0 0 0 0 0 0 0 0 0 11 21 23 52 106 106 82 62 51 22 8 1 0 0 0 0 0 0
0 0 0 0 0 0 0 0 0 0 0 0 0 0 0 0 0 0 0 0 1 0 0 6 23 28 31 31 37 128 105 107 95 84 106 99 84 59 0 0 0 0 0
0 0 0 0 0 0 0 0 0 0 0 0 0 0 0 0 0 0 4 9 4 6 1 7 43 50 23 17 70 107 64 168 144 130 86 93 93 104 125 88 70 2 0
3 0 0 0 20 39 39 8 0 0 0 0 7 0 0 0 12 13 12 3 0 7 1 0 0 0 0 0 0 40 110 258 114 83 45 35 19 20 29 46 84 75 78
151 116 135 131 131 108 95 33 15 13 7 16 0 0 0 15 41 29 22 22 4 1 0 0 0 0 0 0 0 2 58 110 45 39 37 13 1 0 0 0 48 69 67
387 372 236 138 106 160 154 60 55 26 30 28 3 0 9 20 35 55 15 15 2 0 0 0 0 0 0 0 0 0 16 30 42 27 9 10 2 7 29 35 36 23 59
399 368 353 290 109 174 252 207 142 99 56 26 10 66 47 28 11 43 27 9 0 0 0 0 0 0 0 0 0 0 0 39 26 20 15 12 17 13 13 13 10 12 1
347 324 294 313 242 239 263 293 246 196 101 96 41 125 94 50 48 33 9 0 0 0 0 0 0 0 0 0 0 0 0 0 9 42 38 28 17 12 6 13 12 14 6
322 344 317 298 290 250 232 235 172 160 154 127 105 148 101 55 30 3 4 0 0 0 0 0 0 0 0 0 0 0 0 0 7 26 51 46 6 1 0 5 14 38 33
193 244 253 279 247 192 189 110 115 90 61 78 78 69 100 54 13 0 0 0 0 0 0 0 0 0 0 0 0 0 0 0 1 11 52 30 12 5 2 5 15 37 2
148 145 142 189 208 212 169 140 95 70 73 68 11 20 23 49 46 28 0 0 0 0 0 0 0 0 0 0 0 0 0 0 1 7 16 28 7 3 6 0 8 17 4
37 67 67 109 162 157 86 77 43 43 58 38 60 38 45 23 20 0 6 8 5 3 0 0 0 0 0 0 0 0 0 0 3 3 18 3 4 6 3 3 0 4 15
7 12 29 41 117 102 54 102 27 27 52 53 52 36 83 1 1 5 1 4 5 8 0 0 0 0 0 0 0 0 0 0 0 0 6 6 2 3 2 1 0 0 3
83 60 50 122 101 23 54 72 19 54 56 80 76 65 37 13 26 20 12 8 5 1 0 0 0 0 0 0 0 0 0 0 0 0 6 2 6 6 10 2 0 4 12
130 144 114 93 71 66 65 61 49 67 60 61 60 30 9 8 23 26 10 2 0 0 0 0 0 0 0 0 0 0 0 0 0 0 0 0 0 3 7 3 3 1 4
227 266 219 175 116 113 110 93 78 60 59 67 44 30 44 12 0 6 0 0 0 0 0 0 0 0 0 0 0 0 0 0 0 0 0 0 0 0 2 7 7 12 2
0 0 11 176 154 157 242 165 142 130 78 75 64 60 22 0 7 1 10 0 0 0 0 0 0 0 0 0 0 0 0 0 0 0 0 0 0 0 0 3 6 1 0
0 0 0 3 115 218 235 195 506 237 166 121 60 6 5 15 16 5 4 0 0 0 0 0 0 0 0 0 0 0 0 0 0 0 0 0 0 0 0 0 0 0 0
0 0 0 0 2 11 126 208 257 217 206 72 20 16 43 44 18 14 14 0 0 0 0 0 0 0 0 0 0 0 0 0 0 0 0 0 0 0 0 0 0 0 0
0 0 0 0 0 2 14 71 126 159 86 71 67 47 45 40 33 28 9 1 0 0 0 0 0 0 0 0 0 0 0 0 0 0 0 0 0 0 0 0 0 0 0
0 0 0 0 0 0 2 4 16 158 146 104 130 61 87 47 39 18 3 0 0 0 0 0 0 0 0 0 0 0 0 0 0 0 0 0 0 0 0 0 0 0 0
0 0 0 0 0 0 0 0 5 43 95 131 48 38 53 55 21 18 0 0 0 0 0 0 0 0 0 0 0 0 0 0 0 0 0 0 0 0 0 0 0 0 0
0 0 0 0 0 0 0 0 0 0 0 1 2 4 6 8 1 0 0 0 0 0 0 0 0 0 0 0 0 0 0 0 0 0 0 0 0 0 0 0 0 0 0
0 0 0 0 0 0 0 0 0 0 0 0 0 0 0 0 0 0 0 0 0 0 0 0 0 0 0 0 0 0 0 0 0 0 0 0 0 0 0 0 0 0 0
0 0 0 0 0 0 0 0 0 0 0 0 0 0 0 0 0 0 0 0 0 0 0 0 0 0 0 0 0 0 0 0 0 0 0 0 0 0 0 0 0 0 0

GFSMA_con_mucape_093.txt.gz
CAPE
45 0 2 7 2 1 0 0 0 0 0 0 0 0 0 0 0 0 0 0 0 0 0 0 0 0 0 48 110 54 16 3 0 0 0 0 0 0 0 0 0 0 0
33 20 1 1 0 0 0 0 0 0 0 0 0 0 0 0 0 0 0 0 0 0 0 0 0 2 12 19 27 110 94 65 42 18 4 0 0 0 0 0 0 0 0
82 47 0 0 0 0 0 0 0 0 0 0 0 0 0 0 0 0 0 0 0 0 0 3 16 28 44 60 67 70 190 122 98 71 65 63 51 40 34 0 0 0 0
52 46 9 0 0 0 0 0 0 0 0 0 0 0 0 0 0 0 0 0 2 1 2 2 94 136 115 73 54 90 210 274 228 219 118 73 93 54 90 95 75 41 0
46 16 25 0 5 4 0 0 0 0 0 0 0 16 0 0 16 26 20 9 11 3 0 0 0 0 10 25 7 17 87 253 306 183 49 32 10 21 48 46 41 72 63
82 41 29 18 7 0 0 0 0 0 0 0 0 26 9 0 11 20 22 11 8 8 0 0 0 0 0 0 0 4 41 155 155 25 39 27 20 11 10 20 63 70 69
51 17 34 14 28 57 77 77 32 13 20 17 20 14 3 6 22 17 44 46 4 3 1 0 0 0 0 0 0 0 63 116 91 49 38 15 12 22 30 25 22 24 32
192 245 219 196 179 177 172 153 78 54 50 42 26 24 8 18 15 16 33 32 7 9 0 0 0 0 0 0 0 0 0 30 55 23 17 15 21 17 12 6 0 1 9
134 210 275 300 203 137 207 232 194 120 133 102 79 54 73 58 44 55 36 56 5 6 0 0 0 0 0 0 0 0 1 26 37 38 28 25 8 5 1 2 3 15 26
118 129 133 238 299 235 253 284 293 249 216 139 115 116 73 38 39 40 40 52 41 3 0 0 0 0 0 0 0 0 0 1 9 34 52 52 1 0 10 6 9 33 20
122 154 129 91 137 161 201 203 267 230 160 141 108 85 74 74 79 37 40 17 0 0 0 0 0 0 0 0 0 0 0 0 0 14 47 48 12 0 18 11 7 24 13
48 51 94 101 188 182 154 155 191 143 125 107 88 79 41 0 6 45 19 32 3 1 1 0 0 0 0 0 0 0 0 0 9 27 36 39 6 6 6 2 0 20 25
59 46 73 78 124 128 152 148 160 141 121 95 81 3 1 5 18 24 10 7 0 1 0 1 0 0 0 0 0 0 0 0 4 7 48 19 6 7 6 4 0 0 8
31 26 27 60 54 105 162 133 80 78 44 76 53 29 19 1 1 37 39 1 0 2 0 0 0 0 0 0 0 0 0 0 0 10 16 1 5 7 1 2 9 2 0
29 40 17 37 40 53 64 65 38 46 40 48 81 63 48 7 0 1 1 1 0 1 2 0 0 0 0 0 0 0 0 0 0 0 3 0 9 4 0 1 3 2 0
51 62 53 50 59 49 58 76 32 32 4 21 55 64 73 55 46 24 7 25 8 10 4 1 0 0 0 0 0 0 0 0 0 0 0 0 0 0 0 0 2 2 4
141 165 130 72 54 61 67 77 48 53 37 51 49 42 54 62 44 21 19 8 9 1 10 0 0 0 0 0 0 0 0 0 0 0 0 0 0 0 0 0 0 0 0
3 0 0 11 100 126 151 141 151 121 104 106 55 41 52 56 35 50 5 6 7 2 1 0 0 0 0 0 0 0 0 0 0 0 0 0 0 0 0 0 0 0 0
0 0 0 0 0 15 82 116 165 164 128 97 168 67 93 108 71 60 0 21 12 11 6 1 0 0 0 0 0 0 0 0 0 0 0 0 0 0 0 0 0 0 0
0 0 0 0 0 0 3 3 55 38 296 228 183 124 101 100 45 34 3 41 14 21 21 0 0 0 0 0 0 0 0 0 0 0 0 0 0 0 0 0 0 0 0
0 0 0 0 0 0 0 4 7 8 22 114 139 164 92 55 40 47 49 40 27 35 21 1 0 0 0 0 0 0 0 0 0 0 0 0 0 0 0 0 0 0 0
0 0 0 0 0 0 0 1 2 4 7 6 56 120 62 83 68 67 61 53 48 62 19 2 0 0 0 0 0 0 0 0 0 0 0 0 0 0 0 0 0 0 0
0 0 0 0 0 0 0 0 0 5 9 10 19 25 60 62 64 52 75 81 62 37 10 0 0 0 0 0 0 0 0 0 0 0 0 0 0 0 0 0 0 0 0
0 0 0 0 0 0 0 0 0 0 0 5 8 8 38 33 20 45 39 23 11 17 4 0 0 0 0 0 0 0 0 0 0 0 0 0 0 0 0 0 0 0 0
0 0 0 0 0 0 0 0 0 0 0 0 1 6 8 8 14 17 29 22 14 0 0 0 0 0 0 0 0 0 0 0 0 0 0 0 0 0 0 0 0 0 0
0 0 0 0 0 0 0 0 0 0 0 0 2 2 0 3 3 4 3 0 0 0 0 0 0 0 0 0 0 0 0 0 0 0 0 0 0 0 0 0 0 0 0

GFSMA_con_mucape_096.txt.gz
CAPE
82 87 15 10 3 3 9 0 0 0 0 0 0 0 0 0 0 0 0 0 0 0 0 0 0 0 7 38 94 47 16 3 0 0 0 0 0 0 0 0 0 0 0
13 58 2 15 4 3 11 0 0 0 0 0 0 0 0 0 0 0 0 0 0 0 0 0 4 11 9 6 24 68 78 55 34 7 0 0 0 0 0 0 0 0 0
50 10 50 66 38 36 43 0 0 0 0 0 0 0 0 0 0 0 0 0 0 0 0 4 52 55 66 74 62 80 284 144 88 80 49 39 45 50 72 34 0 0 0
106 56 5 18 87 100 36 15 0 0 0 0 0 0 0 0 0 0 0 0 0 0 0 0 90 171 166 136 77 19 118 250 278 301 84 71 83 81 73 89 62 88 58
77 123 67 79 76 43 5 0 0 0 0 0 0 0 0 0 0 0 0 0 0 2 1 0 0 3 19 63 26 40 43 176 378 280 101 52 20 21 39 27 21 58 55
84 94 106 97 58 0 5 0 0 0 0 0 0 1 14 3 0 0 0 0 0 2 14 0 0 0 0 0 2 4 30 104 271 149 46 37 21 10 7 14 27 32 25
72 100 129 97 67 49 28 0 0 0 0 0 0 1 21 14 0 3 13 0 4 0 10 0 0 0 0 0 0 0 41 132 212 82 54 32 8 10 25 18 12 10 15
60 87 113 96 78 57 59 13 0 14 14 2 4 37 21 3 0 22 13 21 5 1 1 1 0 0 0 0 0 0 4 32 121 66 25 19 18 9 11 3 4 4 13
67 41 99 130 127 64 20 54 116 110 55 66 76 67 35 44 39 24 38 16 35 15 18 0 0 0 0 0 0 0 0 6 70 62 25 26 19 4 0 0 4 14 13
48 83 118 169 112 105 217 246 227 236 147 131 144 131 100 90 86 63 49 42 57 64 15 13 3 0 0 0 0 0 0 1 5 46 62 57 33 2 0 3 13 21 11
39 48 100 104 138 229 197 209 207 222 207 194 104 90 83 72 63 42 51 60 35 22 34 36 1 1 0 0 0 0 0 0 0 5 57 79 47 5 1 4 17 17 40
3 46 59 39 34 75 94 89 181 191 181 146 86 88 85 68 71 54 28 13 10 0 8 23 11 2 0 0 0 0 0 0 0 0 32 60 16 5 2 0 8 9 10
54 64 51 44 71 70 59 40 94 108 113 95 85 71 83 87 53 43 13 0 0 0 1 10 10 1 1 0 0 0 0 0 0 0 17 39 3 2 3 5 1 2 1
47 5 42 22 36 47 43 50 66 73 56 45 44 69 93 75 74 38 6 5 10 5 1 0 8 3 0 0 0 0 0 0 0 12 15 0 3 7 5 0 3 0 0
44 40 30 2 30 52 49 108 103 75 67 49 46 64 113 43 24 14 26 30 10 0 0 0 0 0 0 0 0 0 0 0 0 2 11 10 7 1 0 0 0 0 1
38 24 40 42 34 10 31 15 55 70 23 22 44 50 71 38 12 22 3 34 31 19 0 0 1 4 0 0 0 0 0 0 0 0 0 0 0 0 0 0 0 0 0
40 51 93 94 59 47 43 37 43 40 43 19 17 27 19 18 15 19 37 6 28 1 6 6 1 4 0 0 0 0 0 0 0 0 0 0 0 0 0 0 0 0 0
13 8 3 8 16 67 76 60 56 54 62 35 38 46 36 35 27 34 36 34 46 13 11 5 4 0 0 0 0 0 0 0 0 0 0 0 0 0 0 0 0 0 0
0 0 0 0 0 0 5 90 134 127 110 89 93 76 100 40 27 40 38 26 29 34 13 11 4 6 0 0 0 0 0 0 0 0 0 0 0 0 0 0 0 0 0
0 0 0 0 0 0 0 2 6 12 47 66 230 154 111 109 89 37 24 50 34 17 18 7 20 20 4 0 0 0 0 0 0 0 0 0 0 0 0 0 0 0 0
0 0 0 0 0 0 0 0 0 2 5 6 19 49 100 124 60 51 52 30 57 5 10 10 5 4 0 0 0 0 0 0 0 0 0 0 0 0 0 0 0 0 0
0 0 0 0 0 0 0 0 0 1 1 0 2 8 58 49 46 35 35 26 40 20 31 16 14 14 5 0 0 0 0 0 0 0 0 0 0 0 0 0 0 0 0
0 0 0 0 0 0 0 0 0 0 1 2 2 1 3 27 73 72 55 55 60 46 9 35 35 0 4 1 0 0 0 0 0 0 0 0 0 0 0 0 0 0 0
0 0 0 0 0 0 0 0 0 0 0 0 3 3 1 6 10 33 39 58 52 41 21 31 21 6 7 3 0 0 0 0 0 0 0 0 0 0 0 0 0 0 0
0 0 0 0 0 0 0 0 0 0 0 0 0 1 8 7 20 28 24 16 32 31 8 37 3 11 4 0 0 0 0 0 0 0 0 0 0 0 0 0 0 0 0
0 0 0 0 0 0 0 0 0 0 0 1 2 2 5 10 12 9 18 10 14 16 22 17 10 6 0 0 0 0 0 0 0 0 0 0 0 0 0 0 0 0 0

GFSMA_con_mucape_099.txt.gz
CAPE
200 145 164 125 16 6 50 53 26 0 0 0 0 0 0 0 0 0 0 0 0 70 11 0 0 23 34 51 59 52 30 8 0 0 0 0 0 0 0 0 0 0 0
247 194 129 126 49 6 24 54 20 0 0 0 0 0 0 0 0 0 0 0 0 0 2 0 0 0 17 24 38 79 132 129 50 11 0 0 0 0 0 0 0 0 0
195 178 27 122 34 32 31 35 20 0 0 0 0 0 0 0 0 0 0 0 0 0 0 0 40 0 67 73 71 95 273 205 165 88 62 49 49 53 54 63 55 41 10
110 116 26 26 17 50 62 78 58 11 0 0 0 0 0 0 0 0 0 0 0 0 0 0 56 151 133 119 117 58 53 208 249 251 183 89 87 89 78 66 80 76 68
143 113 40 35 3 4 62 94 76 38 0 0 0 0 0 0 0 0 0 0 0 0 0 0 0 0 28 89 52 21 40 113 274 246 188 90 50 13 18 12 30 61 56
118 124 57 24 3 54 91 116 67 50 0 0 0 0 0 0 0 0 0 0 0 13 4 1 0 0 0 0 0 3 0 31 160 230 119 44 17 11 8 15 17 17 23
54 83 90 93 78 66 122 91 109 58 19 28 1 0 0 7 10 16 10 0 0 7 0 0 2 2 0 0 0 0 7 56 113 218 84 6 14 0 17 20 12 3 0
76 76 111 104 169 84 110 66 18 4 25 22 0 0 4 1 20 29 15 14 36 26 35 1 4 0 0 0 0 0 0 3 78 111 75 17 4 10 10 4 1 3 21
95 49 49 75 78 74 103 82 81 77 36 36 0 20 37 29 33 23 19 40 67 57 38 37 1 0 0 0 0 0 0 0 54 130 61 18 28 7 2 1 1 24 28
62 69 40 36 37 86 131 124 111 104 103 32 26 48 76 77 76 57 25 36 105 72 115 92 92 21 6 0 0 0 0 0 1 94 85 45 45 23 5 2 9 18 27
52 39 53 16 37 90 123 133 140 151 87 96 135 75 107 120 95 64 68 47 67 107 104 101 74 37 13 7 17 0 0 0 0 1 39 74 67 36 9 3 3 9 37
21 13 10 40 52 72 99 144 162 149 150 167 155 110 90 94 74 66 61 48 35 2 36 65 49 41 0 8 4 0 0 0 0 0 1 54 55 9 5 3 3 4 11
26 30 31 38 40 47 94 120 96 94 116 93 76 92 67 67 78 68 71 38 0 4 20 14 18 21 1 2 29 1 0 0 0 0 7 46 3 3 3 1 3 0 12
25 13 24 38 45 20 51 57 88 66 68 60 51 44 43 54 68 78 75 63 0 11 12 21 8 5 4 3 4 8 3 0 0 0 23 1 1 0 0 5 3 0 0
21 32 37 27 36 44 29 50 23 39 49 36 20 32 29 37 37 30 44 55 63 0 5 8 8 11 7 3 3 0 0 0 0 0 0 1 0 1 4 0 0 0 0
13 0 25 17 31 31 20 8 38 44 64 56 29 31 32 36 50 39 55 58 53 63 1 0 3 2 2 4 1 0 0 0 0 0 0 0 1 1 0 0 0 0 0
34 33 22 6 41 62 50 44 50 62 41 35 43 24 21 43 42 38 10 26 14 6 0 9 3 4 1 0 2 0 0 0 0 0 0 0 0 0 0 0 0 0 0
0 3 4 3 11 2 52 55 63 64 52 44 56 2 31 32 36 19 21 25 11 1 1 0 0 0 0 0 4 0 0 0 0 0 0 0 0 0 0 0 0 0 0
0 0 0 0 0 0 0 0 53 71 69 72 50 49 43 51 47 40 28 6 3 32 11 1 0 1 7 14 9 0 0 0 0 0 0 0 0 0 0 0 0 0 0
0 0 0 0 0 0 0 0 0 0 0 1 33 81 70 94 75 93 71 21 8 17 48 6 0 3 17 0 0 2 0 0 0 0 0 0 0 0 0 0 0 0 0
0 0 0 0 0 0 0 0 0 0 1 2 4 3 15 30 88 119 49 47 12 10 41 0 22 0 0 0 0 3 0 0 0 0 0 0 0 0 0 0 0 0 0
0 0 0 0 0 0 0 0 0 0 0 0 2 3 7 4 2 41 32 13 24 3 43 36 0 14 35 23 19 19 5 0 0 0 0 0 0 0 0 0 0 0 0
0 0 0 0 0 0 0 0 0 0 0 0 0 1 3 8 10 8 17 11 12 20 50 12 0 23 40 34 25 34 27 1 0 0 0 0 0 0 0 0 0 0 0
0 0 0 0 0 0 0 0 0 0 0 0 0 0 0 2 4 9 7 9 31 23 45 57 27 21 41 33 0 0 0 1 0 0 0 0 0 0 0 0 0 0 0
0 0 0 0 0 0 0 0 0 0 0 0 0 0 0 0 3 8 16 17 27 18 54 41 20 0 0 0 0 16 0 0 0 0 0 0 0 0 0 0 0 0 0
0 0 0 0 0 0 0 0 0 0 0 0 0 0 8 4 7 8 13 11 11 12 16 59 12 16 7 4 9 3 2 0 0 0 0 0 0 0 0 0 0 0 0

GFSMA_con_mucape_102.txt.gz
CAPE
185 201 169 122 163 143 107 154 93 7 0 0 0 0 0 0 0 0 0 0 0 70 96 22 27 35 34 27 14 8 10 0 0 0 0 0 0 0 0 0 0 0 0
183 183 151 109 181 161 149 184 90 37 3 0 0 0 0 0 0 0 0 0 0 0 55 63 8 53 37 36 42 115 123 112 84 35 4 0 0 0 0 0 0 0 1
164 169 180 136 135 87 113 73 50 42 0 0 0 0 0 0 0 0 0 0 0 0 0 0 77 72 84 101 66 86 260 213 208 128 69 43 19 26 37 56 64 65 70
105 142 166 165 182 120 51 38 55 40 22 0 0 0 0 0 0 0 0 0 0 0 0 0 6 183 215 130 135 150 113 143 220 254 186 146 101 73 77 33 63 47 59
106 104 155 177 140 159 93 38 51 82 36 12 0 0 0 0 0 0 0 0 0 0 0 0 0 0 50 130 147 148 57 111 210 285 266 222 153 73 8 14 35 27 33
93 89 112 162 75 117 91 16 1 32 71 80 70 0 0 0 0 0 0 0 0 0 0 0 0 0 0 0 44 22 29 65 101 212 247 157 47 0 6 20 9 12 16
35 93 174 101 92 23 0 0 29 68 92 151 115 0 12 0 0 0 0 0 0 0 7 21 9 0 0 0 3 16 22 69 148 166 340 131 6 2 5 13 0 0 0
22 44 67 110 93 96 58 28 27 9 19 80 77 31 28 2 0 0 0 8 25 10 22 40 39 26 28 0 0 0 2 26 166 261 207 96 22 6 18 0 0 0 0
60 64 49 93 107 89 38 37 38 38 18 7 86 52 21 0 0 0 8 46 49 36 28 66 64 34 8 5 11 7 0 0 104 224 224 109 29 24 4 0 0 0 2
18 66 68 67 97 72 54 43 35 30 64 5 18 69 53 42 23 22 37 54 80 86 110 123 68 56 40 18 31 19 2 0 8 229 104 117 86 24 10 11 7 2 21
17 17 59 69 51 55 44 62 52 58 46 63 64 80 80 68 102 96 102 104 94 82 154 144 128 116 94 45 44 34 49 7 10 60 183 171 141 69 35 9 3 5 16
2 4 11 29 51 57 45 26 26 13 49 114 98 87 131 84 78 142 116 131 96 77 56 84 66 42 67 56 48 44 3 7 6 0 30 63 162 68 14 4 0 3 5
15 12 12 2 13 13 31 26 18 24 56 98 94 70 121 123 129 77 85 86 68 69 49 25 6 0 4 29 49 69 48 11 11 2 16 81 58 3 3 3 1 1 3
40 34 52 14 11 56 67 65 13 29 63 85 102 110 104 106 101 71 62 60 38 13 13 1 3 3 1 5 11 42 69 26 4 4 2 17 2 2 2 1 2 0 1
21 49 22 19 2 25 47 60 26 29 41 58 81 78 72 74 76 56 46 36 60 0 0 0 6 0 0 12 27 47 43 12 3 2 5 0 0 0 1 0 0 0 0
17 19 15 3 0 18 25 12 25 17 35 40 54 48 52 27 44 27 24 20 30 17 0 1 1 2 15 13 15 19 29 4 0 0 0 0 0 0 0 0 0 0 0
1 1 0 4 0 23 2 20 50 49 37 17 18 47 25 62 68 67 53 48 59 56 39 2 3 17 20 8 3 3 3 0 1 1 0 0 0 0 0 0 0 0 0
0 0 0 0 0 1 1 2 4 4 47 57 54 49 0 44 63 42 48 29 17 14 50 14 3 13 18 9 3 0 3 0 0 0 0 0 0 0 0 0 0 0 0
0 0 0 0 0 0 0 0 0 3 7 39 14 49 41 55 7 15 26 36 33 55 4 29 0 7 1 3 0 0 0 1 22 0 0 0 0 0 0 0 0 0 0
0 0 0 0 0 0 0 0 0 0 0 0 0 6 28 34 5 31 53 31 25 18 4 1 0 0 0 14 37 14 1 2 3 0 0 0 0 0 0 0 0 0 0
0 0 0 0 0 0 0 0 0 0 0 0 0 0 0 2 12 25 33 39 42 57 6 31 43 15 45 9 0 1 10 5 0 0 0 0 0 0 0 0 0 0 0
0 0 0 0 0 0 0 0 0 0 0 0 0 0 0 0 0 5 4 27 5 25 18 50 29 0 9 0 24 0 0 0 1 1 0 0 0 0 0 0 0 0 0
0 0 0 0 0 0 0 0 0 0 0 0 0 0 0 0 0 0 3 6 8 35 39 30 36 33 18 11 13 7 12 5 16 4 0 0 0 0 0 0 0 0 0
0 0 0 0 0 0 0 0 0 0 0 0 0 0 0 0 0 0 0 2 6 10 10 22 26 52 44 63 66 16 1 1 10 4 1 0 0 0 0 0 0 0 0
0 0 0 0 0 0 0 0 0 0 0 0 0 0 0 0 0 0 0 7 6 5 11 30 30 30 48 27 39 3 0 2 15 0 0 0 0 0 0 0 0 0 0
0 0 0 0 0 0 0 0 0 0 0 0 0 0 0 0 0 0 0 1 4 7 9 21 28 23 6 1 21 0 1 0 0 0 0 0 0 0 0 0 0 0 0

GFSMA_con_mucape_105.txt.gz
CAPE
205 221 214 202 255 177 243 239 125 10 0 0 0 0 0 0 0 0 0 0 0 0 68 100 40 15 26 16 13 13 13 0 0 0 0 0 0 0 0 0 0 0 0
158 158 154 163 160 131 128 197 164 91 0 0 0 0 0 0 0 0 0 0 0 0 0 127 92 94 138 154 132 132 162 149 105 60 9 0 0 0 0 0 0 0 1
172 137 134 142 140 102 66 111 94 104 38 0 0 0 0 0 0 0 0 0 0 0 0 0 54 71 115 129 138 164 372 200 154 166 149 76 27 0 10 28 56 48 33
160 165 160 160 134 122 151 149 96 130 84 62 5 0 0 0 0 0 0 0 0 0 0 0 4 112 208 177 190 186 272 142 191 347 216 184 162 83 37 35 23 10 18
114 142 144 142 133 126 127 143 63 91 79 48 60 16 0 0 0 0 0 0 0 0 0 0 0 0 58 259 196 198 191 146 194 321 253 312 182 121 42 0 5 7 0
106 100 74 95 129 117 128 113 88 90 67 31 55 85 8 0 0 0 0 0 0 0 0 0 0 0 0 24 130 163 191 75 127 176 229 269 195 90 0 0 0 0 0
38 97 108 173 64 114 84 86 97 92 8 3 11 19 0 15 0 0 0 0 0 0 0 0 8 19 15 18 55 177 129 94 128 146 212 290 146 0 0 1 0 0 0
34 63 127 151 143 72 55 27 22 30 18 11 0 0 0 10 17 5 14 0 0 0 1 18 19 53 62 60 47 59 131 132 137 203 321 352 104 18 5 6 0 0 0
90 36 55 171 158 66 135 23 21 4 2 1 6 0 0 0 15 11 22 40 26 22 6 42 53 66 117 120 83 30 4 63 99 177 357 307 141 33 28 7 0 0 0
46 111 103 97 150 121 110 47 43 15 8 4 2 0 2 0 0 1 16 21 44 64 46 90 85 111 146 157 133 94 49 25 35 123 276 313 185 81 52 18 3 2 15
63 80 136 122 161 163 138 119 49 41 23 5 5 0 0 0 81 99 91 62 58 46 49 104 131 101 123 106 110 78 66 75 45 166 184 304 207 121 59 33 19 5 4
29 12 34 109 144 112 94 59 52 49 41 23 18 10 6 1 23 94 53 67 95 123 113 99 108 164 101 106 112 84 44 38 54 57 144 239 191 168 120 41 13 1 0
48 23 15 20 35 73 82 62 51 27 21 15 13 10 9 5 76 85 108 107 73 120 99 91 78 78 97 77 77 48 34 12 24 28 66 132 134 167 86 4 1 2 0
28 36 4 84 29 15 35 22 14 6 22 24 18 28 7 22 55 50 85 106 83 59 68 71 72 72 56 30 24 19 13 6 26 35 38 37 37 5 16 6 2 2 0
15 26 11 21 15 9 4 14 3 26 6 20 36 7 18 39 49 51 42 49 96 74 47 28 38 52 34 18 6 10 16 20 32 37 10 18 10 2 4 0 0 0 0
9 3 16 8 3 2 21 22 16 9 18 26 43 35 45 56 59 62 57 56 85 68 65 26 9 7 6 3 8 13 4 13 23 20 2 7 5 0 0 0 1 0 0
0 0 0 1 4 3 3 5 1 0 0 0 0 20 7 26 53 47 52 65 72 70 48 59 26 20 29 18 4 5 16 1 19 18 3 1 1 0 0 0 0 0 0
0 0 0 0 0 0 0 0 1 1 0 0 1 0 0 58 17 61 63 53 44 45 1 0 0 4 19 7 4 2 2 3 16 5 4 0 0 0 0 0 0 0 0
0 0 0 0 0 0 0 0 0 0 0 0 0 0 0 9 24 36 35 19 31 20 0 1 0 12 1 1 2 2 2 2 2 3 3 4 0 0 0 0 0 0 0
0 0 0 0 0 0 0 0 0 0 0 0 0 0 0 0 0 20 10 17 0 17 8 53 0 0 1 0 0 0 0 0 0 0 4 3 0 0 0 0 0 0 0
0 0 0 0 0 0 0 0 0 0 0 0 0 0 0 0 0 0 1 22 0 8 0 0 0 0 0 0 0 0 0 0 0 0 0 0 0 0 0 0 0 0 0
0 0 0 0 0 0 0 0 0 0 0 0 0 0 0 0 0 0 0 3 10 25 1 37 37 0 0 0 0 8 6 0 0 5 0 0 2 0 0 0 0 0 0
0 0 0 0 0 0 0 0 0 0 0 0 0 0 0 0 0 0 0 0 0 3 15 26 13 0 23 29 41 14 3 0 0 0 0 0 0 0 0 0 0 0 0
0 0 0 0 0 0 0 0 0 0 0 0 0 0 0 0 0 0 0 0 0 0 1 6 20 29 18 23 53 34 23 20 9 0 0 0 0 1 0 0 0 0 0
0 0 0 0 0 0 0 0 0 0 0 0 0 0 0 0 0 0 0 0 0 0 0 0 1 11 16 19 37 37 23 16 0 0 0 0 0 1 0 0 0 0 0
0 0 0 0 0 0 0 0 0 0 0 0 0 0 0 0 0 0 0 0 0 0 0 0 0 3 22 26 27 15 17 43 25 22 5 0 0 0 0 0 0 0 0

GFSMA_con_mucape_108.txt.gz
CAPE
597 525 680 709 904 846 660 733 294 85 40 0 0 0 0 0 0 0 0 0 0 4 110 126 84 8 14 10 8 0 0 0 0 0 0 0 0 0 0 0 0 0 0
707 773 744 698 658 787 475 330 363 193 64 5 0 0 0 0 0 0 0 0 0 0 0 129 282 235 182 154 136 125 108 115 84 53 9 0 0 0 0 0 0 0 1
384 422 584 555 593 706 222 210 262 138 125 13 0 0 0 0 0 0 0 0 0 0 0 0 42 293 246 249 259 235 345 273 245 167 155 120 8 0 0 0 17 38 7
255 320 320 364 362 349 359 351 292 184 169 84 29 0 0 0 0 0 0 0 0 0 0 0 17 128 315 273 302 266 451 340 372 405 373 346 235 83 16 21 17 0 0
94 228 262 218 206 273 282 347 343 292 103 138 77 19 6 0 0 0 0 0 0 0 0 0 0 0 55 300 313 372 352 384 384 329 370 408 396 207 140 28 0 0 0
120 212 230 218 166 157 208 313 261 238 197 210 38 52 45 29 2 0 0 0 0 0 0 0 0 0 0 13 134 245 316 416 477 309 307 254 347 213 144 5 2 0 0
126 219 227 206 112 82 134 105 92 156 110 112 57 22 20 12 19 8 2 0 0 0 0 0 0 0 0 0 28 211 239 302 315 305 332 321 335 243 149 3 4 1 0
253 234 213 237 234 153 215 140 114 71 62 152 76 61 18 0 1 0 2 0 7 41 31 38 44 33 32 41 43 61 225 281 310 209 301 328 407 311 71 23 8 1 2
296 287 218 297 255 197 95 244 203 155 110 99 78 55 8 0 0 0 0 0 43 77 66 83 80 105 102 105 100 126 103 206 333 269 257 351 509 324 139 44 15 4 4
426 333 323 200 227 223 195 309 313 155 138 59 62 20 14 5 4 0 0 14 35 66 69 106 109 139 147 160 113 151 148 136 245 274 206 319 432 313 230 145 39 21 8
359 339 338 329 287 289 215 283 305 251 167 32 27 12 11 5 6 7 0 22 1 36 62 89 142 122 132 147 154 192 157 102 123 161 146 288 399 358 302 234 50 37 0
379 229 153 171 214 296 262 363 237 151 175 34 27 27 22 9 10 17 1 1 8 91 101 76 106 127 144 128 135 119 101 89 75 96 108 191 385 419 296 241 83 5 0
202 109 19 14 69 67 126 148 112 134 100 114 105 44 26 14 22 0 7 0 6 22 121 83 56 106 125 166 126 137 70 69 37 48 96 131 434 324 335 222 143 7 0
32 80 61 4 15 47 14 40 54 72 109 68 56 51 45 26 24 34 7 6 2 43 186 78 46 66 87 102 102 88 81 56 46 44 113 106 124 109 96 140 35 11 0
127 52 11 18 36 8 17 29 23 40 46 37 12 31 14 16 5 16 2 2 0 0 100 113 16 37 82 89 90 98 72 37 31 25 13 20 50 30 24 22 8 3 5
114 54 39 17 29 11 21 21 10 23 11 5 12 10 15 28 14 15 5 4 0 0 0 0 2 26 59 62 53 55 42 22 18 11 9 16 6 17 19 15 8 0 0
36 37 27 12 5 0 5 2 2 4 12 3 2 1 3 2 1 9 17 23 21 43 22 3 38 23 36 40 35 31 19 19 16 14 5 4 11 6 20 17 4 0 0
0 0 5 0 0 0 0 0 0 0 3 0 0 0 0 0 0 0 46 28 2 53 44 16 0 3 23 25 24 22 39 36 13 3 11 8 11 6 4 3 1 2 0
0 0 0 0 0 0 0 0 0 0 0 0 0 0 0 0 0 0 0 0 12 0 30 0 0 8 3 7 10 0 0 10 2 3 5 4 4 3 3 8 3 0 0
0 0 0 0 0 0 0 0 0 0 0 0 0 0 0 0 0 0 0 0 0 0 3 0 0 0 0 0 0 0 0 6 7 2 6 2 6 11 5 2 1 0 0
0 0 0 0 0 0 0 0 0 0 0 0 0 0 0 0 0 0 0 0 0 1 1 0 0 0 0 0 0 0 0 2 5 2 0 0 0 0 3 1 0 0 0
0 0 0 0 0 0 0 0 0 0 0 0 0 0 0 0 0 0 0 0 0 0 0 7 11 0 1 0 0 0 0 0 0 0 0 0 3 3 0 1 0 0 0
0 0 0 0 0 0 0 0 0 0 0 0 0 0 0 0 0 0 0 0 0 0 0 0 0 7 7 2 6 7 0 0 0 0 0 0 0 0 1 1 0 0 0
0 0 0 0 0 0 0 0 0 0 0 0 0 0 0 0 0 0 0 0 0 0 0 0 0 0 4 13 3 3 0 0 0 22 1 0 5 0 0 1 0 0 0
0 0 0 0 0 0 0 0 0 0 0 0 0 0 0 0 0 0 0 0 0 0 0 0 0 0 0 2 1 15 2 0 0 4 3 10 0 8 0 0 1 0 0
0 0 0 0 0 0 0 0 0 0 0 0 0 0 0 0 0 0 0 0 0 0 0 0 0 0 0 2 0 21 3 19 8 4 1 0 0 0 0 0 0 2 0

GFSMA_con_mucape_111.txt.gz
CAPE
474 326 372 599 587 903 867 880 801 320 93 24 10 0 0 0 0 0 0 0 0 0 33 145 122 26 1 1 1 1 0 0 0 0 0 0 0 0 0 0 0 0 0
293 541 837 924 911 1141 1030 772 573 666 169 42 30 0 0 0 0 0 0 0 0 0 0 13 175 173 137 62 79 71 56 58 51 36 3 0 0 0 0 0 0 0 1
89 251 483 821 811 1028 865 981 676 548 209 53 19 53 0 0 0 0 0 0 0 0 0 0 0 97 346 316 319 239 435 533 371 233 188 164 113 10 0 0 0 5 18
55 133 214 436 411 433 505 512 299 151 168 58 24 13 14 0 0 0 0 0 0 0 0 0 17 38 127 339 378 382 494 429 485 406 293 410 370 231 75 12 3 31 2
106 81 22 80 170 265 288 340 489 481 312 314 210 89 1 1 3 0 0 0 0 0 0 0 0 0 30 230 246 429 627 473 386 493 497 525 535 479 222 149 48 11 0
105 88 113 51 72 196 315 331 340 351 275 209 174 155 153 34 0 2 0 0 0 0 0 0 0 0 0 10 69 145 385 579 563 631 541 503 563 531 308 291 124 1 2
268 245 176 119 213 200 181 224 215 208 197 197 253 88 102 69 17 4 21 0 0 0 0 0 0 0 0 0 2 88 174 290 591 695 667 504 442 367 375 301 166 7 5
342 324 166 198 303 334 199 190 176 197 159 132 67 193 23 4 5 2 19 10 5 0 12 11 0 0 11 18 5 17 130 178 295 449 649 510 406 401 376 336 156 28 9
603 511 392 354 236 320 303 254 154 133 149 186 79 98 30 6 4 12 2 0 1 1 6 7 3 5 27 39 71 71 60 114 341 358 476 408 553 421 455 377 182 90 15
485 531 558 485 387 287 259 344 331 288 286 248 195 153 100 47 2 18 1 0 0 0 6 1 5 7 44 69 59 88 99 111 209 290 365 323 349 370 402 371 299 195 22
471 410 378 387 410 343 297 319 313 359 358 289 217 133 90 87 40 23 13 7 24 3 7 20 21 43 59 56 101 118 145 160 225 313 374 398 273 356 352 437 358 233 31
344 391 510 302 297 210 218 245 287 257 287 265 223 135 59 3 2 20 8 8 7 14 8 8 8 31 68 83 99 110 114 122 264 331 413 411 290 485 463 442 353 273 67
246 301 167 227 151 69 151 139 119 179 246 120 98 128 74 50 8 34 28 12 0 1 3 8 14 27 53 72 80 95 96 108 131 265 347 340 351 296 461 454 412 348 128
110 233 124 67 65 54 57 88 92 115 72 26 116 149 91 48 56 88 40 15 0 0 2 9 3 2 9 47 77 98 77 97 111 113 237 262 181 123 90 215 302 368 240
57 115 73 106 63 22 27 87 34 172 42 35 47 48 51 71 78 58 31 34 29 3 6 1 0 8 37 26 67 74 70 89 91 88 72 58 66 57 61 93 102 108 85
26 69 58 49 28 16 14 57 27 22 36 16 22 26 26 19 20 13 28 13 19 17 8 0 1 8 33 21 42 67 69 72 67 42 27 31 37 10 9 34 110 85 54
25 11 3 27 31 8 13 11 10 14 28 18 9 19 6 17 25 14 11 2 1 0 0 19 14 8 30 19 28 43 60 54 31 26 6 24 15 15 2 24 64 48 5
6 2 6 0 0 0 0 1 2 0 2 1 0 0 0 0 1 2 3 2 0 0 1 0 9 15 58 23 28 50 30 22 27 17 19 22 13 18 5 17 52 10 7
0 0 0 0 0 0 0 0 0 0 0 0 0 0 0 0 0 0 0 0 0 0 0 0 2 23 0 37 0 30 26 16 8 5 8 13 9 3 5 2 10 11 7
0 0 0 0 0 0 0 0 0 0 0 0 0 0 0 0 0 0 0 0 0 0 0 0 0 1 0 6 0 1 0 0 1 1 1 2 5 1 1 3 3 3 23
0 0 0 0 0 0 0 0 0 0 0 0 0 0 0 0 0 0 0 0 0 0 0 0 1 1 0 0 0 2 0 0 0 0 0 0 2 1 0 1 1 6 11
0 0 0 0 0 0 0 0 0 0 0 0 0 0 0 0 0 0 0 0 0 0 0 0 0 0 0 0 0 6 1 0 0 16 0 0 7 7 0 0 0 4 9
0 0 0 0 0 0 0 0 0 0 0 0 0 0 0 0 0 0 0 0 0 0 0 0 0 0 0 0 0 0 7 5 2 0 2 0 1 0 0 3 5 4 3
0 0 0 0 0 0 0 0 0 0 0 0 0 0 0 0 0 0 0 0 0 0 0 0 0 0 0 0 0 0 2 3 0 1 3 0 4 1 1 0 1 1 2
0 0 0 0 0 0 0 0 0 0 0 0 0 0 0 0 0 0 0 0 0 0 0 0 0 0 0 0 0 0 0 1 0 2 12 0 1 1 0 3 0 3 4
0 0 0 0 0 0 0 0 0 0 0 0 0 0 0 0 0 0 0 0 0 0 0 0 0 0 0 0 0 0 1 8 7 0 0 16 0 0 0 0 0 1 1

GFSMA_con_mucape_114.txt.gz
CAPE
131 121 93 170 494 527 448 451 347 229 131 32 9 9 2 0 0 0 0 0 2 108 70 144 178 75 3 3 3 2 0 0 0 0 0 0 0 0 0 0 0 0 0
161 201 218 262 312 350 558 515 403 343 165 91 34 33 34 8 0 0 0 0 0 4 78 52 160 335 204 100 89 72 4 2 3 2 1 0 0 0 0 0 0 0 0
190 213 245 242 275 295 451 380 437 403 212 73 39 25 35 40 0 0 0 0 0 0 0 3 0 90 321 466 349 244 380 418 383 327 196 197 147 81 0 0 0 0 2
75 89 240 243 263 250 255 268 351 318 345 190 93 66 18 30 22 19 0 0 0 0 0 13 69 110 146 214 462 496 682 457 469 484 447 376 389 392 123 61 7 2 17
114 82 199 189 162 115 101 87 151 217 125 142 84 70 40 35 18 14 5 0 0 0 0 0 0 5 70 237 131 327 550 693 625 532 505 567 607 677 467 207 128 36 35
170 94 67 64 55 29 25 46 61 77 122 144 135 125 86 52 20 0 0 3 16 0 0 0 0 0 0 61 176 152 361 939 864 650 615 707 716 750 571 377 271 140 61
232 149 155 82 46 34 17 83 80 133 180 200 173 100 86 88 81 10 0 0 0 3 0 0 0 0 0 0 43 171 332 455 960 939 849 818 736 436 318 358 383 317 57
363 303 293 212 137 130 167 138 84 137 152 170 169 142 53 19 58 48 30 16 9 0 1 0 1 0 0 0 2 35 150 318 340 885 997 993 712 389 338 339 394 367 93
420 360 292 226 228 173 296 244 183 154 95 106 198 146 86 12 8 8 26 19 5 4 0 13 13 7 0 0 0 5 15 116 325 544 940 913 902 491 341 305 386 386 161
543 444 229 532 376 256 214 217 216 183 116 120 181 179 85 56 44 12 0 0 0 3 6 3 0 0 0 0 1 7 25 46 188 278 494 788 764 474 411 328 382 390 236
237 395 270 416 334 248 179 152 200 169 175 120 135 102 149 115 102 43 1 0 0 0 0 1 6 13 10 0 4 24 62 83 184 248 333 449 556 552 465 405 435 517 419
92 135 233 423 371 184 157 146 156 144 160 128 131 163 127 105 71 45 14 0 0 0 6 3 6 23 25 2 5 10 61 111 217 357 422 631 730 682 660 511 801 510 325
12 86 77 119 138 81 107 128 70 78 153 120 141 149 150 116 92 95 33 14 9 1 1 0 6 2 7 11 33 28 83 137 145 357 410 560 697 490 517 582 537 355 338
31 51 82 36 42 47 35 20 17 38 54 69 83 108 79 54 108 131 32 24 18 8 9 2 9 6 6 10 41 62 84 120 126 151 367 366 367 310 257 336 389 425 250
29 8 3 4 2 25 27 37 4 37 27 45 43 43 42 21 42 58 59 30 15 36 16 8 7 0 3 2 13 53 22 50 88 106 138 216 220 264 187 144 132 140 158
7 6 6 3 14 12 8 21 3 27 10 47 24 49 84 17 29 16 21 30 59 39 6 0 30 3 11 11 9 32 18 43 70 106 96 92 154 169 121 72 54 64 71
10 10 12 7 1 14 8 20 20 14 15 13 25 7 52 23 46 7 29 29 80 32 13 10 4 11 14 5 25 36 51 29 28 51 84 79 61 67 55 30 23 27 20
6 0 0 0 1 0 0 0 8 1 0 1 1 3 4 20 12 17 26 8 2 2 9 0 0 4 5 2 30 35 40 42 29 38 56 47 55 47 27 8 8 20 28
0 0 0 0 0 0 0 0 0 0 0 0 0 0 0 0 0 0 0 0 0 0 0 0 0 0 0 2 7 7 10 36 42 52 53 47 34 18 16 17 14 12 16
0 0 0 0 0 0 0 0 0 0 0 0 0 0 0 0 0 0 0 0 0 0 0 0 0 1 0 0 0 0 0 2 4 5 11 18 16 2 7 2 9 8 10
0 0 0 0 0 0 0 0 0 0 0 0 0 0 0 0 0 0 0 0 0 0 0 0 0 0 0 0 0 0 2 0 1 3 10 4 0 2 3 4 6 11 7
0 0 0 0 0 0 0 0 0 0 0 0 0 0 0 0 0 0 0 0 0 0 0 0 0 0 0 0 0 0 8 3 0 2 3 5 10 6 0 1 0 2 2
0 0 0 0 0 0 0 0 0 0 0 0 0 0 0 0 0 0 0 0 0 0 0 0 0 0 0 0 0 0 0 0 0 0 2 0 3 2 7 4 6 4 13
0 0 0 0 0 0 0 0 0 0 0 0 0 0 0 0 0 0 0 0 0 0 0 0 0 0 0 0 0 0 0 0 0 0 0 2 7 3 3 4 4 3 6
0 0 0 0 0 0 0 0 0 0 0 0 0 0 0 0 0 0 0 0 0 0 0 0 0 0 0 0 0 0 0 0 0 0 0 0 0 17 2 6 3 5 4
0 0 0 0 0 0 0 0 0 0 0 0 0 0 0 0 0 0 0 0 0 0 0 0 0 0 0 0 0 0 0 0 0 0 1 0 0 0 9 0 10 2 2

GFSMA_con_mucape_117.txt.gz
CAPE
218 148 187 201 322 388 397 418 308 250 179 148 90 24 4 0 0 0 0 0 28 296 358 159 181 88 13 3 3 2 1 0 0 0 0 0 0 0 0 0 0 0 0
212 222 298 178 241 381 471 404 377 306 290 222 106 26 24 21 17 0 0 0 0 83 327 560 281 318 257 95 54 36 10 2 2 2 1 1 0 0 0 0 0 0 0
382 263 289 239 304 453 555 437 328 368 339 263 174 115 43 15 31 58 16 0 0 2 65 335 332 551 752 422 295 155 367 349 229 193 118 115 130 97 1 1 0 0 1
347 277 287 346 312 350 342 316 349 331 334 280 185 100 68 44 28 39 8 12 0 0 0 44 146 284 484 360 479 583 794 648 544 535 530 480 397 299 206 129 64 15 4
281 246 172 346 346 345 304 248 247 243 172 161 186 100 17 29 21 21 48 7 1 0 0 0 3 40 114 377 197 345 838 925 715 606 587 571 546 429 446 372 358 159 62
336 303 170 253 313 317 276 212 129 79 74 37 43 55 37 19 44 19 14 4 0 0 0 0 0 0 4 111 286 316 605 983 927 798 733 683 613 645 515 423 600 381 223
269 385 302 202 249 239 170 89 73 47 30 16 34 45 32 47 42 42 41 37 0 0 0 0 0 7 0 8 86 221 423 712 1127 1115 897 727 668 737 442 339 400 497 441
258 378 375 239 202 216 138 98 91 119 138 151 38 35 2 55 52 69 85 64 51 42 8 1 3 0 1 0 0 71 202 394 678 1188 1269 1016 907 841 516 442 276 636 663
217 386 447 347 231 164 125 139 154 167 116 141 148 55 56 12 11 51 94 77 60 43 10 15 1 0 1 3 22 18 8 116 339 663 1147 1358 1170 1052 661 540 364 459 800
158 122 234 352 230 244 183 249 235 181 146 108 125 94 66 53 0 0 11 62 74 51 35 11 8 10 6 0 1 18 6 13 182 334 570 1149 1291 966 784 594 462 469 780
260 314 184 58 52 178 124 144 197 257 242 204 143 101 73 78 54 63 44 15 20 1 3 0 0 0 7 4 16 12 8 1 187 340 454 791 1218 1132 882 733 618 516 775
94 135 203 51 63 90 126 129 98 119 134 134 198 87 93 83 68 54 67 27 18 3 3 0 0 0 2 1 14 23 17 16 98 345 502 781 982 1159 1181 1057 951 918 817
22 24 9 38 2 6 52 40 36 51 97 59 9 19 90 82 85 61 73 5 11 1 0 0 0 0 0 0 2 8 22 7 36 279 546 769 789 850 760 1081 1178 1130 927
0 0 0 0 31 61 38 5 45 12 16 15 16 12 27 28 48 56 42 19 22 25 6 0 0 0 5 6 7 15 3 33 20 100 353 391 421 560 462 663 852 753 638
0 4 3 15 30 9 18 0 3 6 6 5 10 15 23 34 19 17 56 55 25 20 7 27 13 4 7 9 19 19 4 11 19 60 59 111 189 166 297 319 343 276 222
0 7 11 6 15 4 6 7 3 0 0 0 5 5 15 33 5 17 26 23 56 33 6 1 5 7 7 12 20 28 13 46 63 27 23 10 20 97 196 186 198 159 146
8 9 12 13 11 3 7 5 15 12 10 14 9 14 5 7 26 15 26 23 10 15 18 11 3 3 11 0 7 12 27 9 19 72 43 6 7 58 92 108 86 91 85
4 1 3 8 2 0 0 0 0 0 0 0 10 8 0 1 1 3 0 0 0 6 13 0 2 14 10 12 11 9 2 9 1 37 48 50 32 37 63 53 69 48 42
0 0 0 0 0 0 0 0 0 0 0 0 0 0 0 0 0 0 0 0 0 0 3 4 6 1 0 0 0 1 1 6 13 1 7 46 29 42 44 47 49 34 27
0 0 0 0 0 0 0 0 0 0 0 0 0 0 0 0 0 0 0 0 0 0 0 0 0 0 0 0 0 0 0 0 0 3 2 10 21 9 34 4 24 23 17
0 0 0 0 0 0 0 0 0 0 0 0 0 0 0 0 0 0 0 0 0 0 0 0 0 0 0 0 0 0 0 5 0 0 0 0 0 0 16 7 1 3 4
0 0 0 0 0 0 0 0 0 0 0 0 0 0 0 0 0 0 0 0 0 0 0 0 0 0 0 0 0 0 0 0 0 0 0 2 0 10 15 7 4 8 4
0 0 0 0 0 0 0 0 0 0 0 0 0 0 0 0 0 0 0 0 0 0 0 0 0 0 0 0 0 0 0 0 0 0 0 0 3 3 6 17 22 4 2
0 0 0 0 0 0 0 0 0 0 0 0 0 0 0 0 0 0 0 0 0 0 0 0 0 0 0 0 0 0 0 0 0 0 0 0 0 0 0 0 8 7 1
0 0 0 0 0 0 0 0 0 0 0 0 0 0 0 0 0 0 0 0 0 0 0 0 0 0 0 0 0 0 0 0 0 0 0 0 0 0 0 0 11 1 2
0 0 0 0 0 0 0 0 0 0 0 0 0 0 0 0 0 0 0 0 0 0 0 0 0 0 0 0 0 0 0 0 0 0 0 0 0 0 0 0 0 12 1

GFSMA_con_mucape_120.txt.gz
CAPE
341 385 221 126 166 115 214 348 355 244 328 321 215 112 77 31 27 3 0 0 3 610 798 503 218 96 12 18 7 3 1 0 0 0 0 0 0 0 0 0 0 0 0
86 250 266 298 266 253 345 420 375 358 265 249 223 175 156 105 53 46 20 0 0 122 589 849 637 259 164 96 66 62 31 4 2 1 1 0 0 0 0 0 0 0 0
3 172 187 213 322 392 417 419 415 347 303 312 254 247 221 164 69 58 50 41 0 7 142 770 793 919 736 188 132 105 239 254 183 124 48 6 64 67 1 1 1 1 1
0 37 89 149 269 296 412 397 365 363 346 338 318 278 256 209 116 28 39 32 28 6 2 172 523 557 957 816 408 290 660 510 453 427 371 308 288 278 164 126 108 47 13
0 87 76 135 89 242 292 417 468 386 313 490 371 238 202 245 176 92 16 11 4 9 4 0 68 180 277 740 464 297 902 733 695 710 675 570 545 567 353 331 376 228 148
137 132 60 82 203 139 236 321 360 366 365 317 254 187 143 127 93 35 43 23 24 1 9 0 0 1 20 223 574 472 619 878 831 778 890 804 663 677 517 474 487 409 299
22 21 31 60 99 130 213 184 220 281 310 236 102 95 48 48 33 29 9 34 30 4 8 0 1 4 0 0 134 332 540 717 971 994 879 931 814 824 711 500 634 599 491
9 4 0 87 233 179 278 288 271 205 168 124 57 71 21 7 34 56 65 44 43 45 35 30 6 0 0 0 0 32 244 422 547 880 1111 1030 1048 970 746 749 796 745 715
31 13 12 59 289 290 206 280 308 218 177 195 151 11 3 0 1 54 87 43 55 76 64 45 49 41 34 29 7 7 8 111 375 556 870 1092 1221 1161 1001 717 613 717 725
29 27 64 99 109 296 257 201 245 247 189 108 181 169 100 45 18 4 2 34 80 82 76 48 34 50 29 19 2 0 2 12 117 244 490 760 1095 1454 1000 1138 840 975 843
50 133 138 97 96 53 30 225 179 102 185 143 151 144 91 57 19 66 45 13 1 17 31 35 24 20 28 20 0 0 0 0 54 175 281 383 814 1101 1566 1424 1281 1052 918
27 48 54 85 190 98 6 12 0 78 114 137 113 111 132 117 75 74 79 35 25 12 32 45 31 22 22 23 2 0 0 9 30 191 214 318 567 834 1225 1470 1296 1228 942
47 48 27 26 75 85 7 0 1 29 35 18 57 43 38 63 38 33 39 22 29 12 4 14 33 30 29 19 4 0 0 0 0 48 111 307 310 296 550 968 1366 1301 1083
13 3 0 1 48 5 0 0 0 1 61 0 4 6 1 7 10 11 7 10 3 1 38 38 26 32 8 11 0 0 0 0 0 0 75 234 156 102 166 281 542 713 774
2 0 0 0 0 0 0 0 0 10 39 53 23 7 8 7 10 5 12 5 11 14 16 3 37 37 48 28 17 5 3 0 3 8 2 2 14 53 61 108 86 213 461
0 1 2 5 8 9 6 1 0 6 7 0 1 2 0 6 2 0 23 19 19 3 3 1 1 8 7 2 2 1 1 0 0 14 0 0 2 37 43 57 58 49 126
0 0 0 1 5 11 8 8 9 3 10 9 15 14 4 1 6 11 9 16 5 13 3 3 12 2 13 11 13 7 4 0 0 5 0 0 14 44 41 21 8 10 29
0 0 0 0 0 0 0 0 0 0 0 0 0 0 0 2 4 1 0 5 9 0 9 10 5 3 1 16 3 3 7 2 2 0 0 9 2 19 29 52 23 1 38
0 0 0 0 0 0 0 0 0 0 0 0 0 0 0 0 0 0 0 0 0 0 0 0 0 0 0 1 0 3 5 5 11 10 6 14 5 3 35 6 25 17 29
0 0 0 0 0 0 0 0 0 0 0 0 0 0 0 0 0 0 0 0 0 0 0 0 0 0 0 0 0 1 11 0 2 0 2 7 15 6 23 7 5 24 12
0 0 0 0 0 0 0 0 0 0 0 0 0 0 0 0 0 0 0 0 0 0 0 0 0 0 0 0 0 0 0 0 0 0 2 0 1 5 3 5 4 7 13
0 0 0 0 0 0 0 0 0 0 0 0 0 0 0 0 0 0 0 0 0 0 0 0 0 0 0 0 0 0 0 0 0 0 0 0 0 0 0 18 27 24 13
0 0 0 0 0 0 0 0 0 0 0 0 0 0 0 0 0 0 0 0 0 0 0 0 0 0 0 0 0 0 0 0 0 0 0 0 0 0 0 2 9 2 9
0 0 0 0 0 0 0 0 0 0 0 0 0 0 0 0 0 0 0 0 0 0 0 0 0 0 0 0 0 0 0 0 0 0 0 0 0 0 0 0 0 1 15
0 0 0 0 0 0 0 0 0 0 0 0 0 0 0 0 0 0 0 0 0 0 0 0 0 0 0 0 0 0 0 0 0 0 0 0 0 0 0 0 0 0 8
0 0 0 0 0 0 0 0 0 0 0 0 0 0 0 0 0 0 0 0 0 0 0 0 0 0 0 0 0 0 0 0 0 0 0 0 0 0 0 0 0 0 0

GFSMA_con_mucape_123.txt.gz
CAPE
0 3 142 196 233 226 151 213 274 307 350 307 273 332 289 231 79 30 17 0 0 109 750 1071 536 240 84 8 32 9 4 2 1 0 0 0 0 0 0 0 0 0 0
0 0 3 115 79 157 214 251 254 230 272 331 283 294 346 294 206 114 44 28 13 3 246 1037 1045 639 300 133 86 69 125 8 5 4 2 1 0 0 0 0 0 0 0
0 0 0 0 0 6 80 245 276 308 279 297 260 260 303 348 288 237 97 49 46 31 25 761 1076 1053 903 329 209 127 267 291 202 132 7 63 66 51 1 1 1 1 2
0 0 0 0 0 19 27 203 335 351 302 345 316 216 213 290 328 319 223 104 58 31 38 135 412 780 968 948 405 277 130 273 381 357 322 251 214 206 112 93 88 68 46
0 11 11 38 45 18 21 113 290 316 223 189 312 308 307 328 219 230 221 172 83 53 47 31 64 190 215 782 843 382 622 690 606 605 477 522 441 381 264 250 274 198 163
0 0 0 0 20 38 5 8 148 260 294 281 303 262 471 542 200 187 205 128 7 12 51 39 33 25 19 98 260 548 649 752 777 842 778 652 628 615 364 376 330 245 243
0 0 2 4 5 30 1 35 160 247 246 252 252 265 264 341 177 94 65 22 25 0 18 60 8 20 6 20 90 182 450 710 733 765 995 996 880 781 584 525 591 435 422
0 0 0 0 7 137 69 87 179 355 218 268 219 195 153 195 74 62 49 2 0 1 5 6 49 18 18 15 11 66 163 294 322 509 629 958 1130 1071 781 780 744 661 624
0 0 0 1 22 95 254 157 386 223 310 301 315 222 185 58 38 90 84 39 26 7 25 15 66 67 67 47 31 12 15 100 299 415 578 641 750 1274 1122 1168 1029 921 889
0 0 0 26 116 210 360 412 430 331 371 314 386 268 234 57 68 4 40 188 90 52 32 32 14 52 59 29 16 21 28 43 43 164 214 416 661 1023 1158 1367 1373 1126 981
0 0 0 79 110 155 241 246 118 547 343 280 254 248 224 100 124 87 20 7 11 8 56 73 64 58 11 9 6 7 9 15 36 109 193 223 316 346 674 1264 1368 1305 1092
0 0 1 1 30 80 113 113 74 144 47 129 251 178 128 75 104 71 98 48 57 31 28 38 42 29 18 16 15 8 4 1 16 81 141 173 387 411 531 748 1034 1162 1196
6 0 0 1 2 27 36 87 42 1 0 0 0 0 3 35 45 57 52 46 70 26 23 43 74 11 12 19 14 14 12 5 6 0 21 98 255 207 265 416 604 665 874
0 0 0 0 0 0 5 5 0 2 0 0 0 0 0 0 0 1 2 9 1 0 2 39 31 12 4 16 13 7 9 10 30 0 0 0 7 11 51 148 182 282 562
0 0 0 0 0 0 1 2 3 0 0 0 0 0 0 0 0 0 0 6 1 0 0 5 41 33 47 14 21 30 9 14 1 8 10 0 0 0 2 1 7 47 75
0 0 0 0 0 0 0 0 0 1 0 0 2 0 7 5 10 13 3 0 0 1 9 2 2 0 9 14 20 19 6 0 0 2 16 3 17 4 3 3 5 18 35
0 0 0 0 0 0 0 0 0 0 0 0 0 2 10 13 12 14 2 1 3 1 0 1 0 0 12 11 17 14 3 0 2 2 0 2 19 4 1 0 4 42 37
0 0 0 0 0 0 0 0 0 0 0 0 0 0 0 0 0 0 0 1 4 2 0 0 0 2 0 0 0 3 5 6 14 7 12 4 0 0 0 3 13 35 68
0 0 0 0 0 0 0 0 0 0 0 0 0 0 0 0 0 0 0 0 0 0 0 0 0 0 0 0 0 0 0 0 0 11 1 5 0 0 0 0 26 22 41
0 0 0 0 0 0 0 0 0 0 0 0 0 0 0 0 0 0 0 0 0 0 0 0 0 0 0 0 0 0 0 0 0 0 0 17 10 13 5 2 6 12 3
0 0 0 0 0 0 0 0 0 0 0 0 0 0 0 0 0 0 0 0 0 0 0 0 0 0 0 0 0 0 0 0 0 0 0 1 2 0 0 6 7 10 6
0 0 0 0 0 0 0 0 0 0 0 0 0 0 0 0 0 0 0 0 0 0 0 0 0 0 0 0 0 0 0 0 0 0 0 0 0 0 0 0 4 4 6
0 0 0 0 0 0 0 0 0 0 0 0 0 0 0 0 0 0 0 0 0 0 0 0 0 0 0 0 0 0 0 0 0 0 0 0 0 0 0 0 0 2 1
0 0 0 0 0 0 0 0 0 0 0 0 0 0 0 0 0 0 0 0 0 0 0 0 0 0 0 0 0 0 0 0 0 0 0 0 0 0 0 0 0 0 4
0 0 0 0 0 0 0 0 0 0 0 0 0 0 0 0 0 0 0 0 0 0 0 0 0 0 0 0 0 0 0 0 0 0 0 0 0 0 0 0 0 0 0
0 0 0 0 0 0 0 0 0 0 0 0 0 0 0 0 0 0 0 0 0 0 0 0 0 0 0 0 0 0 0 0 0 0 0 0 0 0 0 0 0 0 0

GFSMA_con_mucape_126.txt.gz
CAPE
0 0 0 0 0 0 0 56 84 144 224 302 309 288 279 245 284 273 162 58 39 11 20 332 903 709 388 123 77 31 10 5 3 1 1 0 0 0 0 0 0 0 0
0 0 0 0 0 0 0 19 93 162 155 211 228 175 201 252 298 355 327 179 70 39 28 98 855 716 613 236 174 179 247 44 11 8 5 4 2 0 0 0 0 0 0
0 0 0 0 0 0 3 6 5 118 198 188 193 226 185 167 217 298 372 331 238 67 58 49 180 815 896 520 314 225 138 335 245 191 109 75 53 17 5 3 2 2 2
0 0 0 0 0 0 3 4 11 10 141 315 386 242 220 183 147 173 245 321 365 245 105 65 72 500 969 763 591 393 569 347 350 331 291 245 213 184 83 69 109 50 27
1 2 2 3 0 3 3 1 4 12 118 213 278 283 294 305 224 200 156 185 239 260 175 106 79 39 129 546 566 396 492 447 403 465 331 319 290 347 264 176 226 195 127
0 0 0 0 4 4 10 3 0 2 19 168 259 283 273 366 329 221 195 182 151 170 202 124 28 27 46 20 49 166 228 591 315 342 640 380 323 557 406 343 399 315 228
0 0 0 0 0 3 1 16 10 2 29 177 450 380 256 281 260 199 539 253 244 257 144 125 5 9 0 25 34 36 79 122 155 312 377 755 513 679 596 454 479 392 354
0 0 0 0 0 0 0 4 66 178 205 266 409 280 207 167 155 468 525 285 205 125 55 0 0 0 14 18 40 26 17 45 96 127 196 271 483 940 832 845 831 630 644
0 0 0 0 0 0 0 2 108 359 201 360 459 427 257 190 168 135 300 287 261 76 3 6 24 11 36 40 25 13 21 16 25 35 78 162 220 289 713 766 970 1029 908
0 0 0 0 0 3 2 2 84 210 367 420 552 601 447 252 159 64 141 355 253 161 173 74 47 53 30 40 34 55 16 48 53 172 194 229 210 219 498 588 851 1065 1031
0 0 0 0 0 0 8 9 25 99 260 431 417 465 517 332 269 166 99 59 152 333 377 166 121 75 56 57 29 23 6 21 16 70 151 209 207 251 299 482 803 1035 1119
0 0 0 0 0 0 2 3 12 37 184 246 252 272 284 111 28 30 28 57 6 45 71 117 135 99 52 44 23 15 21 7 3 1 11 54 80 155 178 238 394 719 830
0 0 0 0 0 0 0 0 0 15 62 36 93 135 106 6 1 0 0 33 38 62 60 68 65 47 29 24 43 49 9 5 6 5 6 19 29 45 23 59 170 348 502
0 0 0 0 0 0 0 0 0 9 8 34 0 0 0 0 0 0 1 1 0 4 11 23 4 25 20 43 27 12 13 5 15 24 16 15 13 10 0 1 0 26 268
0 0 0 0 0 0 0 0 0 0 3 13 13 0 0 0 0 0 0 0 0 0 0 0 0 6 3 2 2 7 16 1 4 7 11 19 1 0 0 0 0 0 9
0 0 0 0 0 0 0 0 0 0 0 0 1 0 0 0 0 0 2 0 0 0 0 0 67 73 47 37 26 32 15 23 14 23 4 19 13 3 0 3 0 4 1
0 0 0 0 0 0 0 0 0 0 0 0 0 0 0 0 0 0 0 0 3 8 0 0 7 3 9 3 1 2 13 3 2 3 0 0 0 0 0 20 14 14 18
0 0 0 0 0 0 0 0 0 0 0 0 0 0 0 0 0 0 0 0 0 0 0 0 4 4 0 0 0 0 0 3 4 3 0 0 0 1 0 0 17 14 3
0 0 0 0 0 0 0 0 0 0 0 0 0 0 0 0 0 0 0 0 0 0 0 0 0 0 0 0 0 0 0 0 0 0 0 0 0 0 8 0 1 6 0
0 0 0 0 0 0 0 0 0 0 0 0 0 0 0 0 0 0 0 0 0 0 0 0 0 0 0 0 0 0 0 0 0 0 0 0 0 0 1 4 1 2 0
0 0 0 0 0 0 0 0 0 0 0 0 0 0 0 0 0 0 0 0 0 0 0 0 0 0 0 0 0 0 0 0 0 0 0 0 0 0 0 0 2 5 5
0 0 0 0 0 0 0 0 0 0 0 0 0 0 0 0 0 0 0 0 0 0 0 0 0 0 0 0 0 0 0 0 0 0 0 0 0 0 0 0 0 0 0
0 0 0 0 0 0 0 0 0 0 0 0 0 0 0 0 0 0 0 0 0 0 0 0 0 0 0 0 0 0 0 0 0 0 0 0 0 0 0 0 0 0 0
0 0 0 0 0 0 0 0 0 0 0 0 0 0 0 0 0 0 0 0 0 0 0 0 0 0 0 0 0 0 0 0 0 0 0 0 0 0 0 0 0 0 0
0 0 0 0 0 0 0 0 0 0 0 0 0 0 0 0 0 0 0 0 0 0 0 0 0 0 0 0 0 0 0 0 0 0 0 0 0 0 0 0 0 0 0
0 0 0 0 0 0 0 0 0 0 0 0 0 0 0 0 0 0 0 0 0 0 0 0 0 0 0 0 0 0 0 0 0 0 0 0 0 0 0 0 0 0 0